[[{"header":{"parameterUnit":"m.s-1","parameterCategory":1,"la1":30.6,"la2":29.2853,"lo1":-89.7004,"lo2":-87.6739,"dy":0.0162,"dx":0.0183,"nx":112,"ny":82,"refTime":"2023-03-09T18:00:00:Z","depth":0,"parameterNumber":2,"parameterNumberName":"U-component_of_WINDS"},"data":[0.0,0.0,0.0,0.0,0.0,0.0,0.0,0.0,0.0,0.0,0.0,0.0,0.0,0.0,0.0,0.0,0.0,0.0,0.0,0.0,0.0,0.0,0.0,0.0,0.0,0.0,0.0,0.0,0.0,0.0,0.0,0.0,0.0,0.0,0.0,0.0,0.0,0.0,0.0,0.0,0.0,0.0,0.0,0.0,0.0,0.0,0.0,0.0,0.0,0.0,0.0,0.0,0.0,0.0,0.0,0.0,0.0,0.0,0.0,0.0,0.0,0.0,0.0,0.0,0.0,0.0,0.0,0.0,0.0,0.0,0.0,0.0,0.0,0.0,0.0,0.0,0.0,0.0,0.0,0.0,0.0,0.0,0.0,0.0,0.0,0.0,0.0,0.0,0.0,0.0,3.278,3.4478,3.5639,3.6072,3.5522,3.5149,3.4261,3.2661,0.0,0.0,0.0,0.0,0.0,0.0,0.0,0.0,0.0,0.0,0.0,0.0,0.0,0.0,0.0,0.0,0.0,0.0,0.0,0.0,0.0,0.0,0.0,0.0,0.0,0.0,0.0,0.0,0.0,0.0,0.0,0.0,0.0,0.0,0.0,0.0,0.0,0.0,0.0,0.0,0.0,0.0,0.0,0.0,0.0,0.0,0.0,0.0,0.0,0.0,0.0,0.0,0.0,0.0,0.0,0.0,0.0,0.0,0.0,0.0,0.0,0.0,0.0,0.0,0.0,0.0,0.0,0.0,0.0,0.0,0.0,0.0,0.0,0.0,0.0,0.0,0.0,0.0,0.0,0.0,0.0,0.0,0.0,0.0,0.0,0.0,0.0,0.0,0.0,0.0,0.0,0.0,0.0,0.0,0.0,0.0,0.0,0.0,0.0,0.0,0.0,0.0,0.0,0.0,3.4281,3.6086,3.7052,3.7326,3.6678,3.5959,3.4983,3.3889,0.0,0.0,0.0,0.0,0.0,0.0,0.0,0.0,0.0,0.0,0.0,0.0,0.0,0.0,0.0,0.0,0.0,0.0,0.0,0.0,0.0,0.0,0.0,0.0,0.0,0.0,0.0,0.0,0.0,0.0,0.0,0.0,0.0,0.0,0.0,0.0,0.0,0.0,0.0,0.0,0.0,0.0,0.0,0.0,0.0,0.0,0.0,0.0,0.0,0.0,0.0,0.0,0.0,0.0,0.0,0.0,0.0,0.0,0.0,0.0,0.0,0.0,0.0,0.0,0.0,0.0,0.0,0.0,0.0,0.0,0.0,0.0,0.0,0.0,0.0,0.0,0.0,0.0,0.0,0.0,0.0,0.0,0.0,0.0,0.0,0.0,0.0,0.0,0.0,0.0,0.0,0.0,0.0,0.0,0.0,0.0,0.0,0.0,0.0,0.0,0.0,0.0,0.0,3.3578,3.4873,3.6237,3.7139,3.734,3.6715,3.5959,3.5023,3.3895,3.1913,0.0,0.0,0.0,0.0,0.0,0.0,0.0,0.0,0.0,0.0,0.0,0.0,0.0,0.0,0.0,0.0,0.0,0.0,0.0,0.0,0.0,0.0,0.0,0.0,0.0,0.0,0.0,0.0,0.0,0.0,0.0,0.0,0.0,0.0,0.0,0.0,0.0,0.0,0.0,0.0,0.0,0.0,0.0,0.0,0.0,0.0,0.0,0.0,0.0,0.0,0.0,0.0,0.0,0.0,0.0,0.0,0.0,0.0,0.0,0.0,0.0,0.0,0.0,0.0,0.0,0.0,0.0,0.0,0.0,0.0,0.0,0.0,0.0,0.0,0.0,0.0,0.0,0.0,0.0,0.0,0.0,0.0,0.0,0.0,0.0,0.0,0.0,0.0,0.0,0.0,0.0,0.0,0.0,0.0,0.0,0.0,0.0,0.0,0.0,0.0,0.0,0.0,3.4164,3.5004,3.6169,3.688,3.7034,3.6605,3.5713,3.4804,3.3847,3.2176,0.0,0.0,0.0,0.0,0.0,0.0,0.0,0.0,0.0,0.0,0.0,0.0,0.0,0.0,0.0,0.0,0.0,0.0,0.0,0.0,0.0,0.0,0.0,0.0,0.0,0.0,0.0,0.0,0.0,0.0,0.0,0.0,0.0,0.0,0.0,0.0,0.0,0.0,0.0,0.0,0.0,0.0,0.0,0.0,0.0,0.0,0.0,0.0,0.0,0.0,0.0,0.0,0.0,0.0,0.0,0.0,0.0,0.0,0.0,0.0,0.0,0.0,0.0,0.0,0.0,0.0,0.0,0.0,0.0,0.0,0.0,0.0,0.0,0.0,0.0,0.0,0.0,0.0,0.0,0.0,0.0,0.0,0.0,0.0,0.0,0.0,0.0,0.0,0.0,0.0,0.0,0.0,0.0,0.0,0.0,0.0,0.0,0.0,0.0,0.0,0.0,0.0,3.4222,3.4877,3.6507,3.6693,3.6831,3.6937,3.5571,3.4678,3.4457,3.2692,0.0,0.0,0.0,0.0,0.0,0.0,0.0,0.0,0.0,0.0,0.0,0.0,0.0,0.0,0.0,0.0,0.0,0.0,0.0,0.0,0.0,0.0,0.0,0.0,0.0,0.0,0.0,0.0,0.0,0.0,0.0,0.0,0.0,0.0,0.0,0.0,0.0,0.0,0.0,0.0,0.0,0.0,0.0,0.0,0.0,0.0,0.0,0.0,0.0,0.0,0.0,0.0,0.0,0.0,0.0,0.0,0.0,0.0,0.0,0.0,0.0,0.0,0.0,0.0,0.0,0.0,0.0,0.0,0.0,0.0,0.0,0.0,0.0,0.0,0.0,0.0,0.0,0.0,0.0,0.0,0.0,0.0,0.0,0.0,0.0,0.0,0.0,0.0,0.0,0.0,0.0,0.0,0.0,0.0,0.0,0.0,0.0,0.0,0.0,0.0,0.0,0.0,3.3728,3.4364,3.5932,3.6211,3.6289,3.6367,3.5049,3.4164,3.3864,0.0,0.0,0.0,0.0,0.0,0.0,0.0,0.0,0.0,0.0,0.0,0.0,0.0,0.0,0.0,0.0,0.0,0.0,0.0,0.0,0.0,0.0,0.0,0.0,0.0,0.0,0.0,0.0,0.0,0.0,0.0,0.0,0.0,0.0,0.0,0.0,0.0,0.0,0.0,0.0,0.0,0.0,0.0,0.0,0.0,0.0,0.0,0.0,0.0,0.0,0.0,0.0,0.0,0.0,0.0,0.0,0.0,0.0,0.0,0.0,0.0,0.0,0.0,0.0,0.0,0.0,0.0,0.0,0.0,0.0,0.0,0.0,0.0,0.0,0.0,0.0,0.0,0.0,0.0,0.0,0.0,0.0,0.0,0.0,0.0,0.0,0.0,0.0,0.0,0.0,0.0,0.0,0.0,0.0,0.0,0.0,0.0,0.0,0.0,0.0,0.0,0.0,3.2691,3.3114,3.3728,3.5215,3.5494,3.5653,3.5767,3.4482,3.3607,3.3362,0.0,0.0,0.0,0.0,0.0,0.0,0.0,0.0,0.0,0.0,0.0,0.0,0.0,0.0,0.0,0.0,0.0,0.0,0.0,0.0,0.0,0.0,0.0,0.0,0.0,0.0,0.0,0.0,0.0,0.0,0.0,0.0,0.0,0.0,0.0,0.0,0.0,0.0,0.0,0.0,0.0,0.0,0.0,0.0,0.0,0.0,0.0,0.0,0.0,0.0,0.0,0.0,0.0,0.0,0.0,0.0,0.0,0.0,0.0,0.0,0.0,0.0,0.0,0.0,0.0,0.0,0.0,0.0,0.0,0.0,0.0,0.0,0.0,0.0,0.0,0.0,0.0,0.0,0.0,0.0,0.0,0.0,0.0,0.0,0.0,0.0,0.0,0.0,0.0,0.0,0.0,0.0,0.0,0.0,0.0,0.0,0.0,0.0,0.0,0.0,0.0,0.0,3.1939,3.2327,3.3013,3.4449,3.4758,3.4986,3.5169,3.3839,3.296,0.0,0.0,0.0,0.0,0.0,0.0,0.0,0.0,0.0,0.0,0.0,0.0,0.0,0.0,0.0,0.0,0.0,0.0,0.0,0.0,0.0,0.0,0.0,0.0,0.0,0.0,0.0,0.0,0.0,0.0,0.0,0.0,0.0,0.0,0.0,0.0,0.0,0.0,0.0,0.0,0.0,0.0,0.0,0.0,0.0,0.0,0.0,0.0,0.0,0.0,0.0,0.0,0.0,0.0,0.0,0.0,0.0,0.0,0.0,0.0,0.0,0.0,0.0,0.0,0.0,0.0,0.0,0.0,0.0,0.0,0.0,0.0,0.0,0.0,0.0,0.0,0.0,0.0,0.0,0.0,0.0,0.0,0.0,0.0,0.0,0.0,0.0,0.0,0.0,0.0,0.0,0.0,0.0,0.0,0.0,0.0,0.0,0.0,0.0,0.0,0.0,0.0,0.0,3.0373,3.1068,3.1791,3.2933,3.3485,3.3879,3.4206,3.2933,3.2004,3.1911,0.0,0.0,0.0,0.0,0.0,0.0,0.0,0.0,0.0,0.0,0.0,0.0,0.0,0.0,0.0,0.0,0.0,0.0,0.0,0.0,0.0,0.0,0.0,0.0,0.0,0.0,0.0,0.0,0.0,0.0,0.0,0.0,0.0,0.0,0.0,0.0,0.0,0.0,0.0,0.0,0.0,0.0,0.0,0.0,0.0,0.0,0.0,0.0,0.0,0.0,0.0,0.0,0.0,0.0,0.0,0.0,0.0,0.0,0.0,0.0,0.0,0.0,0.0,0.0,0.0,0.0,0.0,0.0,0.0,0.0,0.0,0.0,0.0,0.0,0.0,0.0,0.0,0.0,0.0,0.0,0.0,0.0,0.0,0.0,0.0,0.0,0.0,0.0,0.0,0.0,0.0,0.0,0.0,0.0,0.0,0.0,0.0,0.0,0.0,0.0,0.0,0.0,2.8985,2.9808,3.0554,3.1501,3.2176,3.2676,3.3017,3.2,3.1265,3.0934,0.0,0.0,0.0,0.0,0.0,0.0,0.0,0.0,0.0,0.0,0.0,0.0,0.0,0.0,0.0,0.0,0.0,0.0,0.0,0.0,0.0,0.0,0.0,0.0,0.0,0.0,0.0,0.0,0.0,0.0,0.0,0.0,0.0,0.0,0.0,0.0,0.0,0.0,0.0,0.0,0.0,0.0,0.0,0.0,0.0,0.0,0.0,0.0,0.0,0.0,0.0,0.0,0.0,0.0,0.0,0.0,0.0,0.0,0.0,0.0,0.0,0.0,0.0,0.0,0.0,0.0,0.0,0.0,0.0,0.0,0.0,0.0,0.0,0.0,0.0,0.0,0.0,0.0,0.0,0.0,0.0,0.0,0.0,0.0,0.0,0.0,0.0,0.0,0.0,0.0,0.0,0.0,0.0,0.0,0.0,0.0,0.0,0.0,0.0,0.0,0.0,0.0,2.7623,2.8524,2.9249,3.0,3.0837,3.1355,3.1563,3.1029,3.0468,3.0003,0.0,0.0,0.0,0.0,0.0,0.0,0.0,0.0,0.0,0.0,0.0,0.0,0.0,0.0,0.0,0.0,0.0,0.0,0.0,0.0,0.0,0.0,0.0,0.0,0.0,0.0,0.0,0.0,0.0,0.0,0.0,0.0,0.0,0.0,0.0,0.0,0.0,0.0,0.0,0.0,0.0,0.0,0.0,0.0,0.0,0.0,0.0,0.0,0.0,0.0,0.0,0.0,0.0,0.0,0.0,0.0,0.0,0.0,0.0,0.0,2.9102,2.8165,0.0,0.0,0.0,0.0,0.0,0.0,0.0,0.0,0.0,0.0,0.0,0.0,0.0,0.0,0.0,0.0,0.0,0.0,0.0,0.0,0.0,0.0,0.0,0.0,0.0,0.0,0.0,0.0,0.0,0.0,0.0,0.0,0.0,0.0,0.0,0.0,0.0,0.0,0.0,0.0,2.5475,2.6699,2.7508,2.7829,2.895,2.9679,2.9897,2.9479,2.9111,2.8836,2.7673,0.0,0.0,0.0,0.0,0.0,0.0,0.0,0.0,0.0,0.0,0.0,0.0,0.0,0.0,0.0,0.0,0.0,0.0,0.0,0.0,0.0,0.0,0.0,0.0,0.0,0.0,0.0,0.0,0.0,0.0,0.0,0.0,0.0,0.0,0.0,0.0,0.0,0.0,0.0,0.0,0.0,0.0,0.0,0.0,0.0,0.0,0.0,0.0,0.0,0.0,0.0,0.0,0.0,0.0,0.0,0.0,0.0,0.0,0.0,0.0,2.8199,0.0,0.0,0.0,0.0,0.0,0.0,0.0,0.0,0.0,0.0,0.0,0.0,0.0,0.0,0.0,0.0,0.0,0.0,0.0,0.0,0.0,0.0,0.0,0.0,0.0,0.0,0.0,0.0,0.0,0.0,0.0,0.0,0.0,0.0,0.0,0.0,0.0,0.0,0.0,0.0,2.3716,2.474,2.5538,2.6089,2.6964,2.7671,2.8084,2.7925,2.7663,2.7335,2.6571,0.0,0.0,0.0,0.0,0.0,0.0,0.0,0.0,0.0,0.0,0.0,0.0,0.0,0.0,0.0,0.0,0.0,0.0,0.0,0.0,0.0,0.0,0.0,0.0,0.0,0.0,0.0,0.0,0.0,0.0,0.0,0.0,0.0,0.0,0.0,0.0,0.0,0.0,0.0,0.0,0.0,0.0,0.0,0.0,0.0,0.0,0.0,0.0,0.0,0.0,0.0,0.0,0.0,2.8857,2.8787,2.9076,2.8708,2.8386,2.8126,2.8177,2.7981,2.752,2.5826,0.0,0.0,0.0,0.0,0.0,0.0,0.0,0.0,0.0,0.0,0.0,0.0,0.0,0.0,0.0,0.0,0.0,0.0,0.0,0.0,0.0,0.0,0.0,0.0,1.9827,1.9423,1.9863,0.0,0.0,0.0,0.0,0.0,0.0,0.0,0.0,0.0,0.0,0.0,2.1883,2.2683,2.3471,2.4267,2.489,2.543,2.613,2.6213,2.6046,2.5647,2.5374,2.4751,0.0,0.0,0.0,0.0,0.0,0.0,0.0,0.0,0.0,0.0,0.0,0.0,0.0,0.0,0.0,0.0,0.0,0.0,0.0,0.0,0.0,0.0,0.0,0.0,0.0,0.0,0.0,0.0,0.0,0.0,0.0,0.0,2.9465,3.005,0.0,0.0,0.0,0.0,0.0,0.0,0.0,0.0,0.0,0.0,0.0,0.0,0.0,2.8002,2.7992,2.7858,2.7669,2.7488,2.7091,2.7392,2.8361,2.7905,2.7952,2.833,2.7492,0.0,2.671,2.5658,0.0,0.0,0.0,0.0,0.0,0.0,0.0,0.0,0.0,0.0,0.0,0.0,0.0,0.0,0.0,0.0,0.0,0.0,0.0,0.0,0.0,0.0,1.9046,1.9155,1.8583,1.7956,0.0,1.8496,1.9108,1.8512,1.8184,0.0,0.0,0.0,0.0,0.0,0.0,0.0,1.9525,2.0559,2.1381,2.1788,2.2332,2.3027,2.3567,2.373,2.3882,2.4088,2.3476,2.2898,2.2587,2.1733,0.0,0.0,0.0,0.0,0.0,0.0,0.0,0.0,0.0,0.0,0.0,0.0,0.0,0.0,0.0,0.0,0.0,0.0,0.0,0.0,0.0,0.0,0.0,0.0,0.0,0.0,0.0,0.0,0.0,2.9311,2.9852,3.0123,3.0045,2.9876,0.0,0.0,0.0,0.0,0.0,0.0,0.0,0.0,0.0,2.7866,2.7448,2.7245,2.715,2.6944,2.6806,2.6753,2.6667,2.6842,2.7097,2.6669,2.6541,2.6566,2.5732,2.5119,2.4819,2.4422,2.3734,2.2896,0.0,0.0,0.0,0.0,1.9873,1.9264,1.885,1.8404,1.787,1.7373,0.0,0.0,0.0,0.0,0.0,0.0,0.0,0.0,0.0,0.0,1.7451,1.7432,1.6914,1.6355,1.5999,1.6143,1.6413,0.0,1.6349,1.6082,1.5602,0.0,0.0,0.0,0.0,1.6823,1.7249,1.8001,1.871,1.9371,1.9799,2.0344,2.098,2.1248,2.1526,2.2032,2.1616,2.1365,2.1416,2.0692,2.0128,0.0,0.0,0.0,0.0,0.0,0.0,0.0,0.0,0.0,0.0,0.0,0.0,0.0,0.0,0.0,0.0,0.0,0.0,0.0,0.0,0.0,0.0,0.0,0.0,0.0,0.0,0.0,0.0,2.9757,3.0236,3.038,3.0186,2.9997,0.0,0.0,0.0,0.0,0.0,0.0,2.8369,2.8599,2.836,2.7495,2.6802,2.6355,2.6154,2.6073,2.5851,2.5735,2.5805,2.5764,2.5615,2.5147,2.4921,2.4761,2.4013,2.3391,2.2857,2.3084,2.2732,2.1899,2.14,2.0662,1.9912,1.9565,1.9075,1.8467,1.7753,1.7146,1.6588,1.5966,1.5369,1.4851,1.5014,0.0,0.0,0.0,0.0,1.5974,1.6155,1.6064,1.5873,1.5622,1.519,1.4725,1.4276,1.3822,1.3625,0.0,1.4596,1.4216,1.3933,0.0,0.0,1.3829,1.4245,1.4727,1.5113,1.5591,1.6296,1.7087,1.7392,1.7856,1.8606,1.88,1.9199,1.9849,1.9779,1.9718,2.0006,1.947,1.902,1.8863,0.0,0.0,0.0,0.0,0.0,0.0,0.0,0.0,0.0,0.0,0.0,0.0,0.0,0.0,0.0,0.0,0.0,0.0,0.0,0.0,0.0,0.0,0.0,0.0,0.0,0.0,0.0,0.0,0.0,3.139,3.1111,0.0,0.0,0.0,0.0,3.0044,3.0011,2.9439,2.8299,2.7495,2.6921,2.6393,2.5946,2.5498,2.5099,2.5106,2.4693,2.3958,2.3708,2.3739,2.3935,2.335,2.3259,2.3322,2.2824,2.2028,2.1295,2.2013,2.1981,2.1265,2.0238,1.966,1.9139,1.8628,1.8088,1.7448,1.6762,1.6056,1.522,1.437,1.3728,1.3228,1.3228,1.3408,0.0,0.0,1.3785,1.4276,1.3802,1.3902,1.4106,1.3818,1.3278,1.2765,1.2778,1.1955,1.172,0.0,1.2883,1.2422,1.2119,0.0,1.1619,1.1619,1.2371,1.2902,1.2913,1.3618,1.4375,1.4903,1.5004,1.54,1.6494,1.6593,1.6898,1.7831,1.7831,1.7838,1.786,1.7845,1.7739,1.7541,1.7732,0.0,0.0,0.0,0.0,0.0,0.0,0.0,0.0,0.0,0.0,0.0,0.0,0.0,0.0,0.0,0.0,0.0,0.0,0.0,0.0,0.0,0.0,0.0,0.0,0.0,0.0,0.0,0.0,3.0739,3.0879,0.0,3.0641,3.0622,3.0339,2.9673,2.9452,2.8833,2.7466,2.7209,2.6579,2.5498,2.499,2.4416,2.3756,2.3523,2.3176,2.2619,2.246,2.2249,2.2195,2.1827,2.1702,2.1737,2.1239,2.0749,2.0423,2.0174,1.9844,1.9453,1.9102,1.8526,1.7662,1.7691,1.7081,1.6163,1.5646,1.4733,1.3662,1.2308,1.1617,1.1241,1.1447,1.1559,1.1784,1.203,1.2329,1.266,1.2515,1.2651,1.2639,1.2344,1.1988,1.1505,1.1122,1.0572,1.0307,1.0404,1.0489,1.0627,1.0314,1.0166,1.0043,1.0043,1.0399,1.075,1.0964,1.1438,1.1892,1.2407,1.2812,1.3319,1.3818,1.4332,1.4922,1.5608,1.5729,1.5912,1.6516,1.6144,1.6043,1.6349,1.6485,1.6547,0.0,0.0,0.0,0.0,0.0,0.0,0.0,0.0,0.0,0.0,0.0,0.0,0.0,0.0,0.0,0.0,0.0,0.0,0.0,0.0,0.0,0.0,0.0,0.0,0.0,2.9647,3.0177,3.0053,3.0292,3.0337,3.0177,3.017,2.9848,2.8937,2.8766,2.8078,2.6551,2.6289,2.5581,2.4277,2.3782,2.3165,2.2214,2.2114,2.1727,2.117,2.0969,2.0719,2.0535,2.0249,2.0096,2.0215,1.9569,1.9339,1.9126,1.8457,1.7983,1.7585,1.8011,1.7674,1.6736,1.6611,1.5916,1.4816,1.3727,1.2621,1.1518,1.0516,0.9887,0.9684,0.9904,1.0155,1.0413,1.0643,1.0895,1.1059,1.1081,1.1142,1.1175,1.0843,1.057,1.0379,0.9913,0.949,0.9055,0.8582,0.8856,0.914,0.8923,0.8842,0.8774,0.8774,0.9099,0.9428,0.954,0.9815,1.0206,1.0736,1.1098,1.148,1.1897,1.2636,1.3262,1.3917,1.4147,1.4578,1.5378,1.5115,1.5131,1.5666,1.564,1.5729,1.5941,0.0,0.0,0.0,0.0,0.0,0.0,0.0,0.0,0.0,0.0,0.0,0.0,0.0,0.0,0.0,0.0,0.0,0.0,0.0,0.0,0.0,0.0,0.0,2.8362,2.9125,2.9564,2.9571,2.9473,2.9425,2.9512,2.9618,2.9247,2.8179,2.7951,2.7251,2.573,2.4826,2.3875,2.2699,2.232,2.1641,2.0568,2.071,2.038,1.968,1.925,1.9089,1.9078,1.8576,1.8537,1.8698,1.8144,1.7712,1.7384,1.7148,1.647,1.5795,1.7036,1.7024,1.6334,1.5468,1.4566,1.3422,1.136,0.9972,0.9155,0.8803,0.88,0.8797,0.8794,0.9026,0.9262,0.9268,0.9504,0.962,0.9398,0.9518,0.9634,0.9405,0.916,0.9139,0.9139,0.8769,0.8253,0.8,0.8161,0.8221,0.7985,0.7866,0.7863,0.7863,0.8332,0.0,0.88,0.8905,0.9267,0.9942,0.9921,1.0158,1.1038,1.1367,1.1881,1.2622,1.3199,1.374,1.4179,1.453,1.488,1.5225,1.5315,1.537,1.5425,0.0,0.0,0.0,0.0,0.0,0.0,0.0,0.0,0.0,0.0,0.0,0.0,0.0,0.0,0.0,0.0,0.0,0.0,0.0,0.0,0.0,2.607,2.654,2.7493,2.8298,2.8678,2.8309,2.8898,2.9183,2.8612,2.857,2.8179,2.7426,2.6395,2.529,2.4131,2.3241,2.232,2.1178,2.0628,2.01,1.9603,1.908,1.8715,1.8415,1.7882,1.7708,1.7692,1.7464,1.7466,1.7433,1.7056,1.6791,1.6681,1.6215,1.5509,1.5014,1.6126,1.5823,1.4819,1.4687,1.3574,1.2102,1.0383,0.9395,0.8762,0.8055,0.7601,0.752,0.7793,0.794,0.8119,0.8682,0.8904,0.9004,0.9108,0.9205,0.9277,0.9277,0.9056,0.8833,0.8833,0.8542,0.8129,0.8002,0.788,0.7627,0.7419,0.7455,0.7633,0.7633,0.7752,0.0,0.8215,0.8411,0.8733,0.9201,0.9509,0.9938,1.0167,1.0623,1.1094,1.16,1.1942,1.2425,1.2936,1.3284,1.3853,1.4648,1.4863,1.5099,0.0,0.0,0.0,0.0,0.0,0.0,0.0,0.0,0.0,0.0,0.0,0.0,0.0,0.0,0.0,0.0,0.0,0.0,0.0,0.0,0.0,0.0,2.5469,2.5692,2.6163,2.6974,2.7498,2.7384,2.7777,2.7936,2.7553,2.729,2.678,2.5958,2.4895,2.3661,2.2423,2.1641,2.0752,1.9555,1.9022,1.8499,1.7969,1.7555,1.7246,1.7153,1.6692,1.6551,1.6557,1.6427,1.6333,1.6204,1.5875,1.5585,1.5467,1.4878,1.4331,0.0,0.0,0.0,0.0,0.0,1.1686,1.0259,0.8988,0.8098,0.7579,0.7009,0.6699,0.6641,0.7202,0.7508,0.7712,0.8267,0.8464,0.8542,0.8617,0.869,0.8742,0.8742,0.8614,0.8489,0.8489,0.8306,0.8127,0.7999,0.7822,0.0,0.7436,0.7414,0.7549,0.7665,0.7787,0.8025,0.8382,0.8446,0.8645,0.9003,0.9298,0.9494,0.961,1.0069,0.0,0.0,0.0,1.1837,1.2615,1.3087,0.0,0.0,0.0,1.464,1.4659,0.0,0.0,0.0,1.6404,1.6781,0.0,0.0,0.0,0.0,0.0,0.0,0.0,0.0,0.0,0.0,0.0,0.0,0.0,0.0,0.0,0.0,2.4708,2.4684,2.4668,2.5315,2.6028,2.6569,2.6246,2.6071,2.6257,2.5733,2.5052,2.4187,2.342,2.231,2.0791,0.0,0.0,0.0,0.0,1.6942,1.6193,1.6193,1.5998,1.5833,1.5769,1.5578,1.5479,1.5506,1.5274,1.4873,1.451,1.4152,1.3913,1.3222,1.2882,1.2704,1.3665,1.3419,1.2354,1.0615,0.9407,0.8397,0.7369,0.0,0.0,0.607,0.6068,0.6194,0.6954,0.7466,0.7727,0.8108,0.8244,0.8255,0.8255,0.8263,0.8274,0.8274,0.8274,0.8274,0.8274,0.8263,0.8127,0.7865,0.7986,0.8106,0.7845,0.7679,0.767,0.7913,0.8287,0.8658,0.89,0.8914,0.8951,0.9171,0.0,0.0,0.9432,0.9679,0.9863,1.0126,1.0982,1.1898,1.266,1.3273,1.3555,1.3372,1.3952,1.4209,1.4019,1.4559,1.4774,1.4769,1.5915,1.6486,0.0,0.0,0.0,0.0,0.0,0.0,0.0,0.0,0.0,0.0,0.0,0.0,0.0,0.0,0.0,2.3765,2.3938,2.4133,2.3932,2.3597,2.3742,2.4751,2.4836,2.4723,2.4769,2.391,2.3246,2.2876,2.1531,2.0364,1.9302,1.8248,1.7246,1.6311,1.6092,1.5672,1.525,1.5244,1.5246,1.513,0.0,0.0,1.4472,1.4478,1.4128,1.3564,1.32,1.2715,1.2126,1.191,1.1287,1.0517,1.153,1.1307,1.0405,0.9534,0.8566,0.7587,0.6929,0.6265,0.5986,0.5923,0.5902,0.6019,0.6976,0.7207,0.0,0.7978,0.8433,0.877,0.877,0.8841,0.8913,0.8913,0.8783,0.8519,0.8519,0.8448,0.8383,0.825,0.8173,0.8233,0.8106,0.8323,0.8543,0.8669,0.8922,0.9175,0.9175,0.94,0.9593,0.9484,0.9691,0.9747,0.9747,0.9849,1.0053,1.0454,1.12,1.2041,1.2703,1.2953,1.3181,1.3633,1.4128,1.4356,1.4691,1.4971,1.5233,1.5227,1.5718,1.5758,0.0,0.0,0.0,0.0,0.0,0.0,0.0,0.0,0.0,0.0,0.0,2.3789,0.0,0.0,2.3656,2.2984,2.3109,2.3134,2.2571,2.2303,2.2416,2.3298,2.3299,2.32,2.2862,2.2333,2.1787,2.118,1.9985,1.8736,1.764,1.6711,1.5767,1.4821,1.4713,1.4498,1.4175,1.4293,1.4187,1.3977,1.42,1.3963,1.3264,1.3351,1.2964,1.1997,1.1877,1.1316,1.0555,1.029,0.9579,0.8926,0.9181,0.9089,0.8624,0.8101,0.7474,0.6579,0.5914,0.5512,0.5371,0.5603,0.5592,0.5848,0.6988,0.7367,0.7498,0.8149,0.8585,0.8764,0.8764,0.8809,0.8851,0.8851,0.872,0.8587,0.8587,0.8543,0.8503,0.8503,0.8454,0.841,0.841,0.8671,0.9018,0.9017,0.9379,0.9634,0.9764,0.9891,0.9992,0.9923,1.0039,1.0134,1.0059,1.012,1.029,1.0664,1.1247,1.1799,1.2304,1.2561,1.2935,1.3308,1.3806,1.4182,1.4312,1.4794,1.4896,1.487,1.5125,1.5199,0.0,0.0,0.0,0.0,0.0,0.0,0.0,0.0,2.3727,2.3286,2.3579,2.367,2.2912,2.3134,2.3268,2.2438,2.2473,2.2312,2.1341,2.1281,2.1472,2.1681,2.1742,2.1596,2.119,2.0898,2.0277,1.9527,1.8551,1.745,1.6086,1.5446,1.4702,1.3532,1.3645,1.3552,1.3267,1.3437,1.3345,1.3091,1.3437,1.3039,1.2145,1.229,1.1631,1.0425,1.0214,0.9834,0.9136,0.8576,0.8024,0.7532,0.7348,0.7114,0.698,0.6849,0.6313,0.5644,0.4973,0.4707,0.4841,0.5245,0.5381,0.5653,0.7011,0.7421,0.7694,0.8383,0.8658,0.8792,0.8792,0.8792,0.8792,0.8792,0.8658,0.8652,0.8494,0.8488,0.8483,0.8459,0.8323,0.8454,0.8454,0.8717,0.9048,0.9362,0.9713,0.9973,1.0365,1.0368,1.0354,1.0324,1.0321,1.0321,1.0321,1.0321,1.0462,1.0874,1.1261,1.1517,1.19,1.2537,1.2792,1.2923,1.3422,1.3794,1.3794,1.4263,1.4447,1.4336,1.4544,1.4548,2.214,2.2853,2.3722,2.4071,2.4013,2.3867,0.0,0.0,2.3721,2.3051,2.3257,2.3322,2.264,2.29,2.3009,2.2207,2.2345,2.2125,2.1104,2.0808,2.0369,1.945,1.9757,2.0095,2.0416,1.9529,1.8782,1.8227,1.7338,1.6305,1.4922,1.4493,1.3954,1.2989,1.3207,1.3297,1.3266,1.3174,1.3159,1.331,1.2772,1.2171,1.1366,1.1144,1.0301,0.8967,0.8231,0.7907,0.7977,0.7348,0.6889,0.6573,0.6178,0.5644,0.5242,0.5778,0.551,0.4973,0.4839,0.4574,0.4441,0.5112,0.5381,0.5662,0.6819,0.7387,0.7815,0.8331,0.891,0.9463,0.9463,0.9463,0.9463,0.9463,0.9187,0.8743,0.8366,0.8209,0.8178,0.7677,0.766,0.7791,0.8058,0.8456,0.8845,0.9621,0.988,1.0277,1.067,1.067,1.0619,1.0483,1.047,1.047,1.047,1.047,1.0658,1.119,1.1593,1.1856,1.225,1.2648,1.291,1.3308,1.3439,1.3561,1.3944,1.4148,1.4259,1.4281,1.4074,1.4151,2.2887,2.3134,2.3456,2.4002,2.3991,2.3834,2.4016,2.3971,2.3752,2.3415,2.319,2.2941,2.2327,2.2278,2.2098,0.0,2.1389,2.1109,2.0354,1.9937,1.9468,1.8877,1.8622,1.8615,1.8868,1.8423,1.7755,1.7041,1.6092,1.503,1.418,1.3635,1.3202,1.2659,1.2893,1.3005,1.2981,1.2994,1.2855,1.2443,1.2196,1.1447,1.0425,1.0061,0.9255,0.7981,0.735,0.6972,0.6843,0.6502,0.6148,0.5783,0.5377,0.5108,0.4841,0.5108,0.4975,0.4574,0.4574,0.4441,0.4441,0.4842,0.5275,0.5588,0.6578,0.7175,0.764,0.8246,0.8676,0.8954,0.909,0.909,0.909,0.8954,0.8676,0.8524,0.8057,0.7996,0.7801,0.7622,0.7567,0.766,0.8058,0.8192,0.859,0.9256,0.9658,1.006,1.0323,1.019,1.0038,0.9974,1.0231,1.0363,1.0363,1.0494,1.0653,1.085,1.1251,1.1648,1.2045,1.2309,1.2753,1.3253,1.339,1.3574,1.3953,1.417,1.4266,1.4238,1.4043,1.4136,2.3504,2.3535,2.3567,2.4105,2.4034,2.391,2.4047,2.39,2.3636,2.3192,2.2885,2.2565,2.2109,2.181,2.151,2.1039,2.0851,2.0458,1.9774,1.9373,1.9008,1.8606,1.8053,1.7728,1.7721,1.7397,1.6842,1.6105,1.5137,1.4283,1.3645,1.3153,1.2855,1.2531,1.2739,1.288,1.2937,1.2887,1.2469,1.1925,1.1575,1.0789,0.9579,0.9007,0.8113,0.7231,0.6825,0.6402,0.6225,0.5889,0.5513,0.5245,0.4841,0.4707,0.4707,0.4707,0.4574,0.4308,0.4308,0.4308,0.4309,0.4728,0.504,0.5502,0.6233,0.6848,0.7325,0.8057,0.8208,0.8351,0.863,0.8627,0.863,0.8351,0.8351,0.82,0.7746,0.7678,0.7617,0.7452,0.7367,0.7435,0.7968,0.7942,0.8189,0.8851,0.9256,0.9525,1.006,0.9794,0.9661,0.9661,1.006,1.0193,1.0193,1.0455,1.0721,1.0721,1.1024,1.1448,1.1718,1.2159,1.2637,1.3034,1.3304,1.3645,1.3784,1.3976,1.4069,1.4056,1.4102,1.4057,0.0,0.0,2.4181,2.4452,2.4425,2.419,2.3458,2.3416,2.3229,2.2158,2.2244,2.2391,2.1794,2.1692,2.1489,2.0987,2.0893,2.0483,1.945,1.9257,1.8945,1.8108,1.7956,1.7813,0.0,1.6365,1.5779,1.5565,1.4702,1.3954,1.3315,1.3292,1.3078,1.2758,1.2951,1.3159,1.3372,1.2791,1.2294,1.223,1.0906,0.994,0.922,0.7741,0.6976,0.6702,0.6404,0.6099,0.591,0.5513,0.5245,0.4841,0.4441,0.4308,0.4308,0.4308,0.4308,0.4308,0.4308,0.4308,0.4316,0.4783,0.494,0.5104,0.6091,0.6565,0.701,0.7531,0.7849,0.8143,0.8143,0.8143,0.8143,0.8143,0.8143,0.797,0.7444,0.7422,0.725,0.6879,0.6647,0.6857,0.7533,0.7591,0.7791,0.8454,0.8587,0.8856,0.9661,0.9661,0.9661,0.9661,1.006,1.0193,1.0193,1.0455,1.0721,1.0721,1.1263,1.1486,1.1486,1.2308,1.2803,1.2811,1.3223,1.3364,1.3372,1.3551,1.364,1.3648,1.3815,1.3896,0.0,0.0,2.4975,2.529,2.5016,2.4535,2.4439,2.384,2.335,2.2953,2.2441,2.192,2.1725,2.1428,2.1019,2.0719,2.0506,2.0162,1.9663,1.9269,1.8921,1.8591,1.8051,0.0,0.0,0.0,0.0,1.5748,1.486,1.4303,1.4085,1.3826,1.3645,1.365,1.3624,1.3655,1.3727,1.3036,1.2419,1.1877,1.0186,0.8851,0.8,0.7373,0.6726,0.6316,0.6278,0.6101,0.5914,0.5513,0.5111,0.4707,0.4441,0.4308,0.4308,0.4308,0.4308,0.4308,0.4308,0.4334,0.4371,0.4528,0.4868,0.5229,0.5418,0.6039,0.6665,0.7125,0.7423,0.7858,0.8008,0.8152,0.8008,0.7858,0.7713,0.7704,0.724,0.7042,0.6987,0.6817,0.6741,0.6955,0.7643,0.7752,0.8006,0.8692,0.8825,0.8987,0.8989,0.9198,0.9385,0.9117,0.9736,1.0197,1.0197,1.074,1.1012,1.1012,1.12,1.1365,1.1639,1.196,1.2317,1.299,1.3133,1.3328,1.3721,1.3782,1.3815,1.3815,1.3872,1.39,0.0,2.5795,2.5733,2.6053,2.5555,2.5073,2.4973,2.4242,2.3538,2.3138,2.2535,2.1928,2.1623,2.1326,2.0917,2.0403,2.0189,1.9993,1.9597,1.9213,1.8895,1.8878,1.8348,1.7853,0.0,0.0,0.0,1.5795,1.4988,1.454,1.454,1.4282,1.4104,1.4104,1.4083,1.3957,1.3957,1.3136,1.2238,1.1273,0.97,0.8488,0.7513,0.7166,0.6762,0.6319,0.6313,0.6131,0.5912,0.5647,0.5379,0.4975,0.4574,0.444,0.4441,0.4307,0.4322,0.4339,0.4339,0.4365,0.4405,0.4447,0.4653,0.5008,0.5176,0.5504,0.6121,0.67,0.6988,0.7278,0.757,0.7718,0.7715,0.7423,0.7423,0.7278,0.6988,0.6943,0.69,0.69,0.6831,0.7051,0.775,0.7999,0.8392,0.8812,0.8952,0.8985,0.8717,0.8922,0.9108,0.8834,0.9593,1.0058,1.0058,1.075,1.1162,1.1162,1.1212,1.1386,1.1521,1.1716,1.2215,1.2749,1.289,1.3224,1.3757,1.3757,1.3757,1.39,1.39,1.3937,2.6433,2.6547,2.6671,2.6599,2.6164,2.5606,2.503,2.4529,2.3827,2.2828,2.2526,2.2224,0.0,0.0,2.1019,2.0285,2.0078,1.9896,1.942,1.9134,1.893,0.0,0.0,0.0,0.0,0.0,0.0,1.5965,0.0,1.4577,1.4577,1.4441,1.4326,1.4326,1.4301,1.4291,1.4172,1.3204,1.1877,1.0304,0.9339,0.8607,0.788,0.7489,0.7082,0.671,0.664,0.6317,0.5912,0.5912,0.5646,0.5381,0.4975,0.4841,0.4841,0.4444,0.4349,0.4399,0.4405,0.4407,0.4427,0.4678,0.4718,0.4732,0.5084,0.5248,0.5394,0.6123,0.6413,0.6557,0.6845,0.699,0.699,0.699,0.699,0.699,0.699,0.699,0.699,0.699,0.6919,0.7144,0.786,0.8482,0.897,0.897,0.897,0.8965,0.8954,0.8957,0.8962,0.8959,0.966,1.008,1.008,1.077,1.1185,1.1185,1.1321,1.1402,1.1402,1.197,1.2194,1.2194,1.2617,1.2896,1.3325,1.3325,1.3472,1.39,1.3912,1.401,2.7922,2.776,2.7575,2.7181,2.6693,2.6197,2.5606,2.4815,2.4035,2.3737,2.3029,2.2426,0.0,0.0,0.0,2.0712,2.0395,0.0,2.0033,1.9794,0.0,1.9521,0.0,1.9008,1.8654,1.7904,0.0,0.0,1.6238,1.5658,1.5658,1.5478,1.5274,1.5274,1.4971,1.4764,1.453,1.284,1.1394,1.0304,0.9339,0.8607,0.788,0.762,0.734,0.7091,0.6901,0.6851,0.6717,0.618,0.5912,0.578,0.5379,0.5245,0.5252,0.5172,0.5205,0.5235,0.5339,0.5235,0.5101,0.5274,0.5463,0.5512,0.5677,0.583,0.6121,0.6412,0.6557,0.6845,0.6988,0.699,0.699,0.699,0.699,0.699,0.699,0.699,0.699,0.699,0.7406,0.7824,0.8112,0.8663,0.9215,0.9215,0.9215,0.915,0.8973,0.9033,0.9228,0.951,1.0016,1.0497,1.0789,1.1219,1.1504,1.1504,1.1541,1.1562,1.1562,1.1743,1.1907,1.2194,1.2338,1.2474,1.2896,1.3182,1.3325,1.3472,1.3898,1.4136,2.8868,2.8643,2.8326,2.8028,2.7441,2.6688,2.6197,2.5401,2.4669,2.4003,2.3377,2.2731,2.2163,2.1778,2.1393,0.0,0.0,0.0,2.0569,2.0237,2.0036,0.0,2.0046,0.0,1.9113,1.8655,1.8181,1.7948,1.6897,1.6312,1.6312,1.607,1.5952,1.5839,1.5477,1.4883,1.4047,1.2599,1.1514,1.0547,0.97,0.8973,0.8491,0.8125,0.7852,0.7604,0.7299,0.7254,0.7121,0.6583,0.6449,0.6313,0.578,0.5669,0.5705,0.5614,0.5536,0.5602,0.5827,0.5881,0.5767,0.5764,0.5791,0.5827,0.5827,0.5974,0.6121,0.6412,0.6557,0.6845,0.699,0.699,0.699,0.699,0.699,0.699,0.699,0.699,0.6988,0.7278,0.7715,0.8152,0.8295,0.8871,0.9304,0.9304,0.9304,0.9256,0.9122,0.9166,0.9352,0.9778,1.0269,1.0603,1.09,1.1332,1.1619,1.1619,1.1619,1.1619,1.1619,1.1619,1.1763,1.1907,1.1907,1.2191,1.2474,1.29,1.3224,1.3446,1.3982,1.4261,2.9685,2.9353,2.8943,2.885,2.8102,2.7251,2.6688,2.6051,2.5218,2.3998,0.0,2.3066,2.1857,2.1776,2.1526,2.0684,0.0,2.0988,2.1156,2.0745,2.0567,2.1072,2.0716,2.0162,1.9584,1.9352,1.912,1.8538,1.7479,1.6767,1.6655,1.6537,1.6425,1.6087,1.572,1.4878,1.3324,1.2599,1.1752,1.091,1.0183,0.97,0.9345,0.8626,0.8361,0.8375,0.783,0.7658,0.7658,0.7254,0.7118,0.6985,0.6313,0.6234,0.6313,0.5915,0.5874,0.5999,0.6442,0.6639,0.6557,0.6117,0.5972,0.5972,0.5972,0.5972,0.5972,0.6412,0.6413,0.6557,0.6845,0.699,0.699,0.699,0.699,0.699,0.699,0.699,0.7133,0.7566,0.7858,0.8297,0.8584,0.9016,0.9304,0.9304,0.9304,0.9304,0.9304,0.9304,0.9446,0.9879,1.0311,1.0603,1.1044,1.1332,1.1619,1.1619,1.1619,1.1619,1.1619,1.1619,1.1619,1.1619,1.1619,1.1774,1.2079,1.2647,1.3017,1.3625,1.4091,1.4416,3.0819,3.0339,2.976,2.9024,2.8373,2.7715,2.7251,2.6109,0.0,0.0,2.3852,2.2939,2.2677,2.2039,2.1514,2.1632,2.1139,2.0929,2.1336,2.1347,2.1238,0.0,2.1042,2.0852,2.0493,2.004,0.0,0.0,1.8765,1.8175,1.7367,1.6773,1.6425,1.6087,1.5477,1.4764,1.4052,1.284,1.1997,1.1635,1.0425,0.9822,0.971,0.9252,0.9124,0.9139,0.8615,0.0,0.832,0.7658,0.739,0.739,0.7257,0.7316,0.7413,0.7359,0.7465,0.7578,0.7805,0.7847,0.7715,0.699,0.6845,0.6845,0.6845,0.6845,0.6845,0.6845,0.6845,0.6845,0.699,0.699,0.699,0.699,0.699,0.699,0.699,0.699,0.7133,0.7566,0.7858,0.8297,0.8584,0.9016,0.9304,0.9304,0.9304,0.9304,0.9304,0.9304,0.959,1.0311,1.0455,1.0746,1.1476,1.1619,1.1619,1.1619,1.1619,1.1619,1.1619,1.1619,1.1619,1.1619,1.1619,1.1677,1.1938,1.267,1.3047,1.3363,1.4247,1.4647,3.1484,3.0847,3.0306,2.9669,2.8932,2.8215,2.7503,0.0,0.0,0.0,2.3871,2.3119,2.2447,2.2012,0.0,2.1553,2.143,2.1478,2.1726,2.1835,2.1968,2.1773,2.1902,2.1774,2.1189,2.096,2.05,2.004,1.9802,1.9113,1.8064,1.7361,1.7009,1.6785,1.5833,1.4997,1.4401,1.3444,1.2599,1.1756,1.1152,1.0668,1.0311,1.0049,0.982,0.9774,0.9462,0.9194,0.9125,0.859,0.8189,0.8056,0.7925,0.7755,0.7764,0.7814,0.7936,0.8083,0.8133,0.8152,0.8008,0.7715,0.757,0.757,0.757,0.757,0.757,0.757,0.757,0.757,0.757,0.7425,0.7278,0.7278,0.7278,0.7278,0.7278,0.7425,0.7715,0.8148,0.8295,0.8584,0.8871,0.916,0.9304,0.9304,0.9304,0.9304,0.9304,0.9449,0.9879,1.0455,1.0603,1.1038,1.1619,1.1619,1.1619,1.1619,1.1619,1.1619,1.1619,1.1619,1.1619,1.1619,1.1691,1.1911,1.2126,1.2798,1.3367,1.3683,1.4366,1.4757,3.2013,3.1383,3.0836,3.0397,2.959,2.8587,2.7645,2.6862,0.0,2.4257,2.3762,2.3113,2.1901,0.0,2.1917,0.0,2.1587,2.1901,2.2072,2.2283,2.2396,2.2429,2.253,0.0,2.1881,2.1836,0.0,2.1067,2.0723,1.9917,1.8532,1.8064,1.7719,1.7485,1.6419,1.5591,1.4873,1.4162,1.3324,1.2238,1.1997,1.1635,1.1035,1.0837,1.0632,1.0541,1.03,1.0054,0.9927,0.9522,0.912,0.8853,0.859,0.8329,0.8251,0.8251,0.8391,0.8584,0.8584,0.8584,0.8584,0.8584,0.844,0.8152,0.8152,0.8152,0.8152,0.8152,0.8152,0.8152,0.8152,0.786,0.7718,0.7738,0.7742,0.7749,0.7769,0.8071,0.8365,0.8654,0.878,0.891,0.9343,0.9321,0.9449,0.9449,0.9449,0.9593,0.9593,0.9882,1.0314,1.0603,1.0894,1.1188,1.1619,1.1619,1.1619,1.1619,1.1619,1.1619,1.1619,1.1619,1.1633,1.1664,1.1921,1.2157,1.2522,1.3092,1.3691,1.4158,1.4613,1.4838,3.2797,3.2264,3.1637,3.0746,2.9782,2.8892,2.8138,0.0,2.5347,2.4609,2.3503,2.2415,2.1894,0.0,0.0,0.0,0.0,2.1784,2.2221,2.2398,2.2494,2.2657,0.0,0.0,2.275,2.2607,2.2343,2.1995,2.141,2.0486,1.8997,1.8765,1.8415,1.7485,1.712,1.6414,1.5477,1.4634,1.3918,1.3569,1.2599,1.2118,1.2001,1.1575,1.1506,1.1684,1.107,1.0971,0.0,1.0323,1.0057,1.006,0.9661,0.9688,0.992,0.992,1.0085,1.0311,1.0311,1.0311,1.0311,1.0311,0.9304,0.8152,0.8152,0.8152,0.8152,0.8152,0.8152,0.8152,0.8152,0.8008,0.8029,0.8264,0.8286,0.8314,0.8409,0.8431,0.8581,0.9027,0.8951,0.9032,0.947,0.9666,0.9879,0.9879,1.0167,1.0455,1.0455,1.075,1.09,1.0897,1.1044,1.1188,1.1619,1.1619,1.1619,1.1619,1.1619,1.1619,1.1619,1.1619,1.1681,1.1809,1.2265,1.2561,1.2838,1.3612,1.4166,1.4341,1.4794,1.4952,3.3556,3.2945,3.2426,3.1637,3.0449,2.9289,2.8453,0.0,2.5434,2.4546,2.3504,2.2641,2.1885,2.1669,0.0,0.0,0.0,0.0,2.2595,2.2858,2.2984,2.3169,2.3263,2.3336,0.0,0.0,2.3007,2.3006,2.2554,2.1866,2.0845,2.0155,1.9345,1.8655,1.7935,1.7232,1.6414,1.5467,1.4759,1.4277,1.3684,1.3204,1.2844,1.2561,1.2517,1.2426,1.2238,1.2044,0.0,1.1516,1.1251,1.0853,1.0588,1.0496,1.0332,1.0332,1.0508,1.0455,1.0455,1.0455,1.0455,1.0455,1.0023,0.959,0.959,0.9304,0.916,0.916,0.9016,0.8871,0.8871,0.8634,0.8548,0.829,0.8496,0.8855,0.89,0.9063,0.9366,0.9813,0.9777,0.9868,1.0234,1.0322,1.0405,1.0323,1.0455,1.0455,1.0455,1.075,1.1044,1.1044,1.1188,1.1476,1.1619,1.1619,1.1619,1.1619,1.1619,1.1619,1.1619,1.1701,1.1918,1.2269,1.26,1.306,1.3642,1.4053,1.4448,1.4818,1.4968,1.4964,3.4345,3.3797,3.3164,3.2315,3.0999,2.971,0.0,0.0,2.57,2.4626,2.3682,2.2765,2.199,2.1663,2.1651,0.0,0.0,2.202,2.2834,2.3066,2.3242,2.3441,0.0,2.3719,2.3755,2.3661,2.3728,2.388,2.3576,2.3239,2.2667,2.1638,2.0615,1.9584,1.8758,1.7935,1.7226,1.6414,1.5591,1.4873,1.4644,1.4167,1.3564,1.3564,1.3391,1.3211,1.3148,1.2978,0.0,1.2676,1.2305,1.1644,1.1512,1.1305,1.1162,1.1162,1.1208,1.1172,1.1172,1.1172,1.1172,1.1172,1.1172,1.1172,1.1172,1.0596,1.0023,1.0023,0.9879,0.959,0.959,0.954,0.9347,0.9081,0.9329,0.9723,0.9758,0.9921,1.0227,1.053,1.0501,1.0595,1.0798,1.086,1.0919,1.0819,1.0772,1.089,1.089,1.1041,1.1188,1.1188,1.1476,1.1763,1.1619,1.1619,1.1619,1.1619,1.1763,1.1784,1.1825,1.207,1.2314,1.2853,1.3071,1.3517,1.4178,1.4456,1.4665,1.4964,1.4964,1.4964,3.5157,3.4743,3.4004,3.2521,3.1326,3.0132,0.0,0.0,2.5814,2.4937,2.3759,2.259,2.1901,2.1489,2.1377,2.1724,2.1815,2.2119,2.2853,2.2973,2.3021,0.0,2.3763,2.395,2.395,2.4324,2.4602,2.4753,2.4582,0.0,2.388,2.3344,2.2101,2.0385,1.9584,1.8881,1.7929,1.7343,1.6532,1.5596,1.5235,1.4878,1.4535,1.4291,1.4164,1.4005,1.3839,1.3667,0.0,1.3409,1.3091,1.2704,1.2441,1.225,1.2265,1.2265,1.2473,1.2753,1.2753,1.2753,1.2753,1.2753,1.2753,1.2753,1.2753,1.1746,1.0455,1.0455,1.0455,1.0455,1.0455,1.0556,1.0694,1.0831,1.0969,1.1106,1.1228,1.1259,1.1259,1.1259,1.1155,1.107,1.1066,1.1139,1.1247,1.1244,1.1418,1.1619,1.1619,1.1619,1.1619,1.1619,1.1907,1.2051,1.1619,1.1619,1.1619,1.1619,1.1907,1.2262,1.2411,1.2857,1.3155,1.348,1.3945,1.4185,1.4365,1.4814,1.4964,1.4964,1.4964,1.4964,3.4835,3.4332,3.3714,3.2733,3.1546,3.0381,2.9467,0.0,0.0,2.5317,2.4094,2.2886,2.2132,2.1768,2.1726,2.2239,2.1982,2.2215,2.3335,2.3509,0.0,2.3982,2.4452,2.4637,0.0,0.0,2.5263,2.528,2.5318,2.5128,2.4778,2.4214,2.3095,2.1288,2.0601,1.9802,1.8881,1.8052,1.7349,1.6891,1.6301,1.5828,1.5245,1.5245,1.5006,1.4744,1.4834,1.4799,1.4633,1.4451,1.4277,1.3879,1.3486,1.3373,1.3193,1.3046,1.2963,1.289,1.2858,1.2753,1.2753,1.2753,1.2753,1.2753,1.2753,1.2033,1.1172,1.0596,1.0455,1.0455,1.0455,1.0627,1.0813,1.0856,1.1039,1.1213,1.1253,1.1262,1.1417,1.1727,1.1692,1.1785,1.2298,1.235,1.24,1.26,1.2691,1.2769,1.2507,1.2492,1.2453,1.2485,1.247,1.2474,1.2051,1.2187,1.247,1.247,1.2576,1.2809,1.2857,1.3219,1.3537,1.3945,1.4221,1.446,1.4814,1.4968,1.5122,1.5429,1.5739,1.5893,0.0,3.454,3.3927,3.3008,3.1902,0.0,0.0,0.0,0.0,0.0,0.0,2.3298,2.2553,2.2176,2.2108,2.2615,2.2349,2.2424,2.3467,2.3861,0.0,2.4487,2.4801,0.0,0.0,2.531,2.5564,2.5729,2.5891,2.5775,2.5439,2.4913,2.3983,2.2636,2.1616,2.0601,1.97,1.8881,1.8175,1.7479,1.7126,1.6537,1.5952,1.5952,1.5677,1.5235,1.5546,1.5508,0.0,1.5331,1.5062,1.4796,1.4403,1.413,1.3927,1.3844,1.3754,1.366,1.3697,1.3615,1.3615,1.3615,1.3472,1.3472,1.3329,1.261,1.189,1.1462,1.1315,1.1319,1.1178,1.1394,1.1463,1.1314,1.1524,1.1727,1.1727,1.1727,1.1882,1.2347,1.2347,1.2471,1.3144,1.3228,1.3155,1.336,1.3293,1.3219,1.3114,1.3099,1.3058,1.2954,1.3084,1.3084,1.2801,1.2887,1.2846,1.2846,1.3148,1.3416,1.3481,1.3833,1.4127,1.4498,1.4609,1.4818,1.4964,1.5117,1.5433,1.5893,1.605,1.6208,0.0,0.0,0.0,0.0,0.0,0.0,0.0,0.0,0.0,0.0,0.0,0.0,2.315,2.2585,2.2447,2.3018,2.2788,2.2782,2.3471,2.4067,0.0,0.0,2.4932,0.0,2.5462,2.5528,2.5708,2.6012,2.6209,2.6222,2.5894,2.5495,2.4913,2.4352,2.2589,2.1259,2.0385,1.97,1.8771,1.7602,1.7602,1.7244,1.6537,1.6537,1.6188,0.0,1.623,1.6058,1.5457,1.5915,1.5839,1.5574,1.5192,1.4922,1.4718,1.4638,1.4698,1.4758,1.496,1.5039,1.5048,1.5048,1.4763,1.4474,1.4047,1.3468,1.2896,1.2753,1.2753,1.2757,1.2334,1.2415,1.2494,1.221,1.2429,1.2642,1.2652,1.2656,1.2656,1.312,1.312,1.3278,1.374,1.3614,1.3509,1.3657,1.3537,1.3439,1.3427,1.3424,1.342,1.3408,1.3694,1.3987,1.3987,1.3401,1.3167,1.3167,1.3613,1.4078,1.4092,1.4569,1.4801,1.4964,1.4968,1.5122,1.5122,1.5429,1.5897,1.6208,1.6208,1.6361,0.0,0.0,0.0,0.0,0.0,0.0,0.0,0.0,0.0,0.0,0.0,0.0,0.0,2.3382,2.3369,2.3402,2.3463,2.3637,2.3953,2.4426,0.0,2.5702,2.5625,2.5576,2.5673,2.5766,2.5896,2.5891,2.6087,2.6022,2.5823,2.5477,2.488,2.4136,2.3326,2.2378,2.1281,2.0493,1.9693,1.8887,1.8194,1.7726,1.7244,1.702,1.6661,1.6329,1.6836,1.6802,1.6458,1.6679,1.6618,1.6239,1.5844,1.5744,1.5687,1.5229,1.5171,1.5243,1.4893,1.4921,1.5048,1.5048,1.4906,1.4906,1.4763,1.4043,1.3182,1.2896,1.2753,1.2753,1.2613,1.2764,1.2949,1.2926,1.3104,1.3279,1.3403,1.3432,1.3432,1.3586,1.3586,1.374,1.4211,1.4176,1.4298,1.4597,1.4561,1.449,1.4362,1.4346,1.4291,1.4151,1.4284,1.4284,1.4284,1.4096,1.4072,1.4072,1.4392,1.4513,1.4557,1.4834,1.4923,1.4964,1.5275,1.5586,1.5897,1.6352,1.6501,1.6658,1.6963,1.7121,0.0,0.0,3.4059,3.3437,3.2917,3.2273,0.0,0.0,0.0,0.0,0.0,0.0,0.0,0.0,2.3963,2.3823,2.3895,2.4167,2.4696,2.4867,2.5315,2.6194,2.6207,2.6024,0.0,2.6123,2.6153,2.5956,2.6265,2.6203,2.5907,2.5666,2.5136,2.4508,2.364,2.2723,2.1624,2.0873,2.004,1.9236,1.8661,1.8194,1.7726,1.7497,1.7138,1.6808,1.7323,1.7297,1.7083,1.7324,1.7265,1.6888,1.6623,1.6359,1.6135,1.5825,1.5774,1.5992,1.5796,1.5723,1.5749,1.5612,1.547,1.5328,1.5328,1.4759,1.4043,1.3615,1.3615,1.3472,1.3182,1.3169,1.3321,1.3118,1.3319,1.3517,1.3606,1.3688,1.374,1.4053,1.4053,1.4207,1.4669,1.4669,1.4818,1.4968,1.4964,1.4931,1.4838,1.4978,1.5093,1.4989,1.5131,1.5286,1.5286,1.5286,1.5098,1.4857,1.5182,1.5442,1.5442,1.5535,1.5586,1.5586,1.5739,1.605,1.6505,1.6653,1.6959,1.7116,1.7273,1.7426,3.3249,3.3769,3.4148,3.3716,3.3368,3.2846,3.2069,0.0,0.0,0.0,0.0,0.0,0.0,2.4694,0.0,2.4339,2.4328,2.4575,2.5358,2.5321,2.5573,2.6401,2.6456,0.0,2.64,2.64,2.6304,2.61,2.6447,2.6359,2.5762,2.559,2.5273,2.4643,2.3747,2.265,2.1547,2.1031,2.0336,1.9468,1.9113,1.8655,1.8083,1.7972,1.7614,1.7168,0.0,0.0,1.7466,1.7833,1.7916,1.7529,1.7265,1.6882,1.6655,1.646,1.6424,1.6677,1.6945,1.6872,1.6734,1.6461,1.6178,1.5891,1.5744,1.5465,1.519,1.4759,1.4621,1.4474,1.3757,1.3582,1.3704,1.329,1.3382,1.3612,1.3638,1.3774,1.4049,1.4519,1.4673,1.4822,1.5122,1.5122,1.5122,1.5122,1.5122,1.5122,1.5122,1.5433,1.5739,1.5739,1.605,1.6208,1.6208,1.6203,1.6129,1.5505,1.5955,1.6208,1.6208,1.6208,1.6208,1.6357,1.6357,1.651,1.6959,1.6959,1.7116,1.7426,1.7426,1.7426,3.1753,3.2508,3.3465,3.3754,3.3675,3.3312,3.2489,0.0,0.0,0.0,0.0,0.0,0.0,2.5942,2.5678,0.0,0.0,2.489,0.0,0.0,2.5645,2.6164,0.0,2.6197,2.6197,2.5917,2.583,2.5732,2.5791,2.5625,2.5125,2.4984,2.4625,2.3625,2.334,2.2595,2.1396,2.1148,2.0692,2.0155,1.9584,1.8887,1.8305,1.8083,1.7849,1.7397,0.0,1.8042,1.7702,1.8227,1.8308,1.791,1.7529,1.7405,1.7276,1.6671,1.669,1.712,1.7256,1.7278,1.7168,1.7168,1.7026,1.7021,1.6593,1.6452,1.631,1.5607,1.5186,1.4906,1.4763,1.45,1.4411,1.4417,1.4318,1.4364,1.4521,1.4999,1.5279,1.5433,1.5744,1.5897,1.605,1.605,1.605,1.605,1.605,1.605,1.605,1.605,1.6055,1.6055,1.6208,1.6208,1.6208,1.6505,1.664,1.6608,1.6339,1.6208,1.6208,1.6208,1.6357,1.6653,1.6653,1.6963,1.7273,1.7273,1.7273,1.7426,1.7426,1.7426,3.1017,3.1468,3.2074,3.2772,3.3281,3.3452,3.2704,0.0,0.0,0.0,0.0,0.0,0.0,0.0,2.6039,2.5337,0.0,2.4943,2.5161,2.5347,2.5706,0.0,0.0,2.6294,2.6294,2.6207,2.611,2.5917,2.5917,2.5723,2.5137,2.4932,2.4538,2.3637,2.301,2.2278,2.1449,2.1194,2.0715,2.0025,1.9733,1.9236,1.8648,1.8305,1.8077,1.7756,0.0,1.8171,1.8077,1.8607,1.8693,1.8302,1.8179,1.7922,1.7669,1.7418,1.7294,1.7506,1.7431,1.7487,1.7585,1.7308,1.7308,1.7308,1.7021,1.7021,1.688,1.6598,1.5891,1.5328,1.5048,1.4906,1.4785,1.4867,1.4967,1.5054,1.5142,1.5539,1.5897,1.5897,1.605,1.6208,1.6208,1.6208,1.6208,1.6208,1.6208,1.6208,1.6208,1.6357,1.6505,1.6505,1.6662,1.6815,1.6815,1.7264,1.7416,1.7116,1.6968,1.6815,1.6815,1.6815,1.6968,1.7116,1.7116,1.7269,1.7426,1.7426,1.7426,1.7426,1.7426,1.7426,3.0305,3.0481,3.0755,3.1414,0.0,3.3129,3.2747,0.0,0.0,0.0,0.0,0.0,0.0,2.6819,0.0,2.5389,2.5115,2.4986,2.4928,2.5286,2.5574,2.593,2.6259,2.64,2.64,2.6304,2.6207,2.6004,2.5907,2.5713,2.5235,2.4932,2.4332,2.3637,2.2828,2.2062,2.1322,2.1209,2.0714,1.9808,1.9894,1.9577,1.8874,1.8532,1.8311,1.7997,1.8113,1.8233,1.833,1.8794,1.8896,1.8699,1.8571,1.8308,1.7939,1.8063,1.7917,1.7755,1.7723,1.7812,1.8007,1.759,1.759,1.759,1.7449,1.7444,1.7449,1.7308,1.6598,1.5891,1.5612,1.547,1.547,1.547,1.5632,1.5919,1.5919,1.6228,1.6662,1.6662,1.6662,1.6662,1.6662,1.651,1.651,1.651,1.651,1.651,1.651,1.6811,1.7111,1.7111,1.7421,1.7731,1.7731,1.803,1.803,1.7731,1.7731,1.7731,1.7731,1.7731,1.7731,1.7731,1.7731,1.7578,1.7574,1.7574,1.7426,1.7426,1.7426,1.7426,2.9267,2.9633,3.009,3.0107,3.1207,0.0,3.2365,3.2155,0.0,3.1084,0.0,0.0,0.0,2.7371,2.634,2.5611,2.5285,2.4967,2.4333,0.0,2.5462,2.532,2.5784,2.61,2.61,2.5917,2.5732,2.5732,2.5528,2.5235,2.4932,2.443,2.3935,2.3447,2.2535,2.1733,2.0956,2.1093,2.0714,1.9808,2.0123,1.9809,1.8874,1.8532,1.8311,1.7985,1.7906,1.8052,1.8318,1.8595,1.8855,1.9078,1.8699,1.8308,1.8068,1.833,1.8327,1.8171,1.8408,1.8511,1.8293,1.8293,1.8293,1.8293,1.8007,1.7861,1.7726,1.7449,1.7308,1.7168,1.7168,1.688,1.6593,1.6593,1.6625,1.6783,1.6783,1.7269,1.7873,1.7873,1.7873,1.7873,1.7873,1.7574,1.7273,1.7273,1.7273,1.7273,1.7273,1.7721,1.7873,1.7873,1.8334,1.8491,1.8491,1.8491,1.8491,1.8496,1.8491,1.8491,1.8491,1.8491,1.8491,1.8491,1.8491,1.8339,1.8025,1.8025,1.7726,1.7426,1.7426,1.7426,2.8529,2.8787,2.8994,2.9321,0.0,0.0,0.0,3.1839,3.1669,3.0986,3.019,0.0,0.0,0.0,2.6385,2.5622,2.5369,2.4946,2.4282,2.4561,2.4857,2.4762,2.5055,2.5237,2.5392,2.5226,2.5235,2.5235,2.5137,2.4932,2.4637,2.4332,2.3836,2.3447,2.2535,2.1725,2.0925,2.0868,2.0293,1.9521,2.0032,1.9931,1.9243,1.8881,1.8648,1.8557,1.8364,1.8397,1.8545,1.8696,1.8837,1.9078,1.895,1.8693,1.8448,1.8553,1.8588,1.8547,1.8643,1.8935,1.9128,1.9128,1.9128,1.9128,1.8982,1.8982,1.8982,1.8703,1.8703,1.8563,1.7585,1.7168,1.7021,1.7021,1.736,1.7531,1.7531,1.8026,1.8339,1.8339,1.8339,1.8339,1.8339,1.8187,1.8187,1.8187,1.8187,1.8187,1.8187,1.8339,1.8339,1.8339,1.8491,1.8643,1.8941,1.8946,1.9093,1.9396,1.8946,1.8648,1.8648,1.8648,1.8648,1.8648,1.8648,1.8491,1.8339,1.8339,1.8334,1.8187,1.8187,1.8035,2.7944,2.8039,2.8132,0.0,0.0,0.0,3.0472,3.1168,3.1434,3.0849,2.9973,0.0,2.7753,0.0,0.0,0.0,2.5285,2.4861,2.4196,2.4233,2.4257,2.4088,2.4361,2.4631,2.4714,2.4856,2.4932,2.4932,2.4833,2.4637,2.443,2.4035,2.3637,2.3147,2.2333,2.1623,2.0822,2.0639,2.0223,1.9463,1.9878,1.9835,1.9366,1.9004,1.8874,1.8887,1.8507,1.8557,1.89,1.8846,1.901,1.92,1.92,1.9078,1.8699,1.8699,1.8841,1.8823,1.8904,1.9209,1.9438,1.9518,1.9541,1.9541,1.9541,1.9541,1.9541,1.9541,1.9541,1.9401,1.8288,1.8007,1.8007,1.8007,1.8312,1.8617,1.8691,1.9012,1.9311,1.939,1.9098,1.8941,1.8941,1.8795,1.8648,1.8648,1.8648,1.8648,1.8648,1.8643,1.8795,1.8946,1.8946,1.9093,1.9547,1.9542,1.9849,2.0302,1.9703,1.9249,1.8946,1.8946,1.8946,1.8946,1.8946,1.8946,1.8795,1.8795,1.8795,1.8648,1.8648,1.8491,2.7366,2.7456,0.0,0.0,0.0,0.0,2.9248,3.015,3.0911,3.0698,2.9534,2.8259,2.7603,2.7044,0.0,2.5622,2.52,2.4605,2.3927,2.3782,2.3689,2.3419,2.3898,2.4326,2.4326,2.4695,2.4932,2.4932,2.4637,2.4332,2.4125,2.3646,2.3138,2.2526,2.203,2.1318,2.0522,2.0527,2.033,1.9814,1.9773,1.9635,1.9366,1.9004,1.8874,1.8881,1.8532,1.8739,1.9248,1.9254,1.9461,1.9577,1.9577,1.945,1.9078,1.9078,1.8983,1.8982,1.924,1.9229,1.9215,1.96,1.968,1.968,1.968,1.968,1.968,1.968,1.968,1.968,1.968,1.968,1.968,1.9541,1.9741,1.9998,2.0243,2.0495,2.0751,2.1014,2.0452,1.9838,1.9838,1.9093,1.8643,1.8643,1.8643,1.8643,1.8643,1.8946,1.9396,1.9849,1.9849,1.9995,2.0441,2.0447,2.0753,2.1066,2.1066,2.0759,2.0,1.9849,1.9849,1.9849,1.9849,1.9693,1.9244,1.9244,1.8941,1.8648,1.8648,1.8648,2.6502,0.0,0.0,2.7472,0.0,0.0,0.0,3.0216,0.0,0.0,2.8895,2.8087,2.7429,2.6775,0.0,2.5622,2.5031,2.4368,2.3677,2.3427,2.3181,2.2928,2.3271,2.353,2.3519,2.4003,2.435,2.4143,2.4044,2.3945,2.3845,2.3447,2.2946,2.2526,2.203,2.1318,2.0522,2.0289,1.9986,1.9485,1.9449,1.9534,1.97,1.9359,1.9243,1.9243,1.8881,1.8978,1.9361,1.9523,1.9776,1.9973,1.9973,1.9845,1.9851,1.9851,1.9892,2.003,2.0302,2.0575,2.0712,2.0983,2.1207,2.1207,2.1207,2.1207,2.1207,2.1207,2.1207,2.1207,2.1207,2.1207,2.0931,1.982,1.9741,1.9952,2.0021,2.0369,2.0694,2.0774,2.0785,2.0759,2.0759,2.0458,2.0313,2.0313,2.0313,2.0313,2.0313,2.0458,2.0609,2.0759,2.0759,2.0759,2.091,2.091,2.091,2.1066,2.1066,2.0915,2.0765,2.0759,2.0759,2.0759,2.0452,2.0296,2.0145,1.9844,1.9698,1.9547,1.9547,1.948,2.5785,0.0,0.0,2.7143,2.7839,2.8518,2.9302,0.0,0.0,0.0,2.8407,2.7834,2.7103,2.6445,0.0,2.52,2.4711,2.411,2.3406,2.3057,2.2704,2.2522,2.264,2.2774,2.288,2.3383,2.3682,2.3637,2.3646,2.3546,2.3456,2.3147,2.2745,2.2224,2.1827,2.1216,2.0308,2.0189,1.9949,1.9556,1.9533,1.9619,1.9988,1.9543,1.9366,1.9372,1.9245,1.9463,1.9653,1.9996,2.0229,2.0361,2.0361,2.0234,2.0106,2.0106,2.0214,2.0412,2.0799,2.1041,2.1245,2.1639,2.1766,2.1766,2.1766,2.1766,2.1766,2.1766,2.1766,2.1766,2.1766,2.1766,2.1484,2.0515,2.0361,2.0368,2.0332,2.0595,2.0869,2.1079,2.1105,2.125,2.1349,2.1216,2.1066,2.1066,2.1066,2.1066,2.1066,2.1066,2.1066,2.1066,2.1066,2.1216,2.1366,2.1366,2.1366,2.1516,2.1516,2.1516,2.1516,2.1216,2.1066,2.1066,2.091,2.0753,2.0753,2.0452,2.0302,2.0145,2.0145,1.9973,2.5114,0.0,0.0,2.6658,2.7371,0.0,2.9028,2.9443,2.939,2.859,0.0,2.7487,2.661,2.6124,2.5559,2.4625,2.4282,2.3851,2.3144,2.2706,2.2264,2.2097,2.2007,2.2131,2.2443,2.2645,2.2939,2.332,2.3347,2.3247,2.3046,2.2946,2.2544,2.1725,2.1725,2.1216,2.0086,2.0078,1.9934,1.9718,1.9722,1.9936,2.0258,1.9679,1.9482,1.9495,1.9646,1.9927,2.0214,2.0514,2.0684,2.0696,2.0722,2.0482,2.0234,2.0234,2.0234,2.031,2.0842,2.104,2.1149,2.1686,2.1885,2.1904,2.1904,2.1904,2.1904,2.1904,2.1904,2.1904,2.1904,2.1904,2.1766,2.1352,2.1214,2.1282,2.1114,2.1181,2.1357,2.1734,2.1561,2.1514,2.1769,2.1516,2.1216,2.1216,2.1216,2.1216,2.1216,2.1216,2.1216,2.1216,2.1216,2.1366,2.1666,2.1816,2.1966,2.2265,2.2259,2.2259,2.2259,2.1666,2.1216,2.1216,2.1216,2.1216,2.1216,2.1066,2.091,2.0597,2.0597,2.0445,0.0,2.4649,0.0,0.0,2.6976,2.7835,2.8342,2.8486,2.8407,2.8063,2.7661,2.7103,2.6218,2.5633,2.5115,2.4625,2.3841,2.3232,2.2882,2.2451,2.2008,2.1571,2.1835,2.2039,2.1951,2.2443,2.2841,2.312,2.3046,2.3046,2.3046,2.2846,2.2342,2.1725,2.1725,2.1216,2.0086,2.0078,1.9917,1.9389,1.9391,1.9606,1.9936,2.0032,1.9931,1.9707,1.9549,1.9626,1.9913,2.0207,2.0624,2.1037,2.1267,2.1481,2.1607,2.1607,2.1607,2.1662,2.2153,2.2305,2.2565,2.2667,2.2801,2.2996,2.2722,2.2729,2.2729,2.2729,2.2729,2.2729,2.2729,2.2729,2.2585,2.2173,2.1897,2.1647,2.1288,2.1328,2.158,2.1637,2.1728,2.181,2.2067,2.2115,2.2115,2.2115,2.2115,2.2115,2.2115,2.2115,2.2115,2.2115,2.2115,2.2109,2.2115,2.2109,2.2259,2.2259,2.2259,2.2259,2.2259,2.2115,2.2115,2.2115,2.1666,2.1516,2.1516,2.1216,2.1066,2.091,2.091,2.0995,0.0,0.0,0.0,2.5401,0.0,2.7364,2.7569,2.7669,2.7672,2.7429,2.7103,2.661,2.5884,2.5103,2.4441,2.3954,2.3272,2.2669,2.2409,2.2152,2.1919,2.1571,2.1563,2.1559,2.167,2.197,2.2266,2.2451,2.275,2.2846,2.2846,2.2644,2.2342,2.1725,2.1725,2.1216,2.03,2.0189,1.9879,1.948,1.9655,2.0026,2.0496,2.0359,2.0155,2.0046,1.9931,1.9993,2.0287,2.0588,2.1011,2.1437,2.1742,2.1985,2.2111,2.2111,2.2111,2.2153,2.2468,2.2776,2.3077,2.3126,2.343,2.3679,2.355,2.3413,2.3413,2.3413,2.3413,2.3413,2.3413,2.327,2.3133,2.2859,2.2448,2.1897,2.1628,2.1597,2.1785,2.179,2.2069,2.2348,2.2614,2.2769,2.2856,2.2856,2.2856,2.2856,2.2856,2.2856,2.2856,2.2856,2.2856,2.2856,2.2856,2.2856,2.2856,2.2856,2.2856,2.2856,2.2856,2.2856,2.2707,2.2265,2.2109,2.196,2.196,2.1816,2.1516,2.1366,2.1366,2.1417,0.0,0.0,2.3909,2.4872,2.5708,0.0,2.6683,2.6794,2.677,2.6549,2.6427,2.6174,2.5419,2.4503,2.3638,2.3086,2.2571,2.2167,2.1816,2.1858,2.1836,2.1642,2.1275,2.1183,2.156,2.1518,2.1698,2.2055,2.2372,2.2644,2.2644,2.2544,2.2241,2.1725,2.1623,2.1224,2.0522,2.03,2.0013,1.9874,2.0219,2.0715,2.1237,2.0823,2.05,2.0385,2.027,2.0417,2.0676,2.104,2.1341,2.16,2.2096,2.2237,2.2237,2.2237,2.2237,2.2272,2.2532,2.2856,2.3201,2.3461,2.3799,2.4095,2.3959,2.3959,2.3959,2.3959,2.3959,2.3959,2.3959,2.3816,2.3543,2.3543,2.2989,2.2448,2.2035,2.1904,2.1987,2.2122,2.2459,2.2777,2.3057,2.3292,2.3445,2.3445,2.3445,2.3445,2.3445,2.3445,2.3445,2.3445,2.3445,2.3445,2.3445,2.3445,2.3445,2.3445,2.3445,2.3445,2.3445,2.3445,2.3147,2.2558,2.2408,2.2414,2.2259,2.2259,2.2115,2.1816,2.1816,2.165,0.0,0.0,2.3022,0.0,2.4498,2.4864,0.0,0.0,2.5273,0.0,2.5469,2.567,2.4585,2.394,2.3276,2.2436,2.1777,2.1484,2.1779,2.1432,2.124,2.1436,2.1392,2.149,2.1742,2.1761,2.1995,2.2524,2.2619,2.2644,2.2644,2.2333,2.2021,2.1725,2.142,2.1121,2.0522,2.0411,2.0454,2.0536,2.1106,2.1478,2.1569,2.1745,2.1417,2.0601,2.0385,2.0298,2.0375,2.0956,2.1336,2.179,2.2253,2.2738,2.2981,2.2981,2.2981,2.2988,2.3032,2.3446,2.3956,2.3601,2.3883,2.4367,2.4095,2.3959,2.3959,2.3959,2.3959,2.3959,2.3959,2.3959,2.3959,2.3959,2.3543,2.3133,2.2448,2.2173,2.2257,2.2262,2.2612,2.3063,2.3343,2.3419,2.3445,2.3445,2.3445,2.3445,2.3445,2.3445,2.3445,2.3445,2.3445,2.3445,2.3445,2.3445,2.3445,2.3445,2.3445,2.3445,2.3445,2.3445,2.3296,2.3296,2.3005,2.2707,2.2259,2.2259,2.2259,2.2265,2.2265,2.2097,2.0428,2.108,2.1765,0.0,2.3132,2.3687,2.4392,2.4559,2.4601,2.4522,2.4551,2.437,2.373,2.3083,2.2453,2.1939,2.1423,2.1167,2.1587,2.1409,2.136,2.1784,2.1571,2.1518,2.1897,2.1854,2.2022,2.249,2.2533,2.2644,2.2644,2.2232,2.203,2.1725,2.142,2.1121,2.0719,2.0617,2.0674,2.088,2.1376,2.1704,2.1895,2.2047,2.1881,2.1531,2.1303,2.1413,2.1619,2.2075,2.249,2.2825,2.3301,2.3487,2.3611,2.3611,2.3611,2.3611,2.3611,2.3925,2.4359,2.4409,2.4656,2.5078,2.5128,2.5052,2.4916,2.4916,2.4781,2.4645,2.4645,2.4503,2.4231,2.4231,2.3959,2.3679,2.327,2.2996,2.2724,2.3051,2.3346,2.3523,2.3966,2.4038,2.4038,2.4038,2.4038,2.4038,2.4038,2.4038,2.4038,2.4038,2.4038,2.4038,2.4038,2.4038,2.4038,2.4038,2.4038,2.4038,2.4038,2.4038,2.4038,2.3742,2.3296,2.3154,2.2856,2.2856,2.285,2.2707,2.2707,2.2469,0.0,0.0,2.0592,2.128,2.188,2.2487,0.0,0.0,2.3619,0.0,2.3456,2.3071,2.2811,2.2329,2.1759,2.1382,2.0985,2.0938,2.1467,2.1381,2.1509,2.212,2.183,2.1816,2.2025,2.204,2.2153,2.2353,2.2538,2.2644,2.2644,2.2232,2.1928,2.1725,2.1318,2.1121,2.0925,2.0892,2.1074,2.1449,2.1796,2.2089,2.2335,2.2335,2.2335,2.2343,2.2208,2.2391,2.265,2.3055,2.3367,2.3635,2.3978,2.4108,2.4108,2.4108,2.4108,2.4108,2.4108,2.4329,2.4672,2.5016,2.5352,2.5695,2.6039,2.5869,2.5734,2.5734,2.5599,2.5329,2.5329,2.5052,2.4774,2.4774,2.4503,2.4095,2.3959,2.355,2.3316,2.3796,2.391,2.4098,2.4536,2.4636,2.4636,2.4636,2.4636,2.4636,2.4636,2.4636,2.4636,2.4636,2.4636,2.4636,2.4636,2.4636,2.4636,2.4636,2.4636,2.4636,2.4636,2.4636,2.4488,2.4193,2.389,2.3593,2.3445,2.3445,2.3296,2.3005,2.3005,2.2856,0.0,1.9243,0.0,2.0369,2.0718,2.1068,0.0,0.0,2.1934,2.2155,2.2174,2.2022,2.165,2.1764,2.1649,2.083,2.0449,2.0591,2.1428,2.1294,2.1523,2.2249,2.2353,2.2335,2.2282,2.261,2.2736,2.2345,2.2728,2.2846,2.2644,2.203,2.1725,2.1725,2.1224,2.0917,2.0925,2.1576,2.2092,2.2466,2.2815,2.2885,2.2901,2.2901,2.2901,2.2925,2.2682,2.2604,2.2673,2.3306,2.3581,2.3635,2.3978,2.4108,2.4108,2.4108,2.4108,2.4108,2.4108,2.4329,2.4672,2.5016,2.5352,2.5695,2.6039,2.6138,2.6003,2.6003,2.6003,2.6003,2.6003,2.5734,2.5599,2.5599,2.5052,2.4367,2.4095,2.3959,2.401,2.4214,2.4337,2.4378,2.4536,2.4636,2.4636,2.4636,2.4636,2.4636,2.4636,2.4636,2.4636,2.4636,2.4636,2.4636,2.4636,2.4636,2.4636,2.4636,2.4636,2.4636,2.4636,2.4636,2.4636,2.4636,2.4488,2.4193,2.3445,2.3445,2.3445,2.3445,2.3445,2.3147,0.0,0.0,0.0,1.8764,1.9303,1.9849,2.0719,2.0834,2.0886,2.1491,2.1586,2.1455,2.1527,2.1568,2.1464,2.1071,2.0896,2.1104,2.1609,2.1771,2.208,2.2571,2.263,2.278,2.3009,2.2982,2.2926,2.3026,2.3026,2.2946,2.2846,2.2232,2.1928,2.1725,2.1522,2.142,2.142,2.2128,2.2551,2.2689,2.3292,2.3576,2.3576,2.3576,2.3698,2.3934,2.4061,2.3872,2.3552,2.4021,2.435,2.4561,2.4687,2.4734,2.4734,2.4734,2.4734,2.4734,2.4734,2.4812,2.4984,2.5329,2.5673,2.6017,2.6362,2.6495,2.6532,2.6532,2.6272,2.6138,2.6138,2.6003,2.5869,2.5869,2.5592,2.5187,2.5052,2.466,2.4372,2.4665,2.4901,2.5029,2.529,2.5226,2.4938,2.4938,2.4784,2.4636,2.4636,2.4636,2.4636,2.4636,2.4636,2.4636,2.4636,2.4636,2.4636,2.4636,2.4636,2.4636,2.4636,2.4636,2.4636,2.4636,2.4636,2.4488,2.4186,2.4186,2.4038,2.3742,2.3742,2.3593,1.5874,0.0,0.0,0.0,1.8066,1.8646,1.9727,2.0012,2.0134,2.0866,2.0959,2.0947,2.1261,2.1353,2.1329,2.1185,2.1205,2.1356,2.1709,2.2079,2.2446,2.2884,2.3054,2.3174,2.3268,2.336,2.3335,2.3327,2.335,0.0,2.3046,2.2535,2.2021,2.1725,2.1725,2.1783,2.1915,2.2501,2.2864,2.2996,2.3734,2.4033,2.4033,2.4136,2.4328,2.4694,2.4945,2.4943,2.4617,2.4972,2.5254,2.5472,2.5472,2.5472,2.5472,2.5472,2.5472,2.5472,2.5472,2.5472,2.5528,2.5891,2.6246,2.66,2.6955,2.7178,2.72,2.72,2.7067,2.68,2.6666,2.6532,2.6272,2.6138,2.5869,2.5734,2.5734,2.5301,2.4783,2.5102,2.527,2.558,2.5744,2.5513,2.5373,2.5373,2.5219,2.5072,2.5072,2.4931,2.4784,2.4784,2.4636,2.4636,2.4636,2.4636,2.4636,2.4636,2.4636,2.4636,2.4636,2.4636,2.4636,2.4636,2.4636,2.4636,2.4636,2.4636,2.4488,2.4186,2.4186,2.4038,0.0,0.0,0.0,0.0,0.0,0.0,1.8696,1.9173,1.9583,2.0053,2.0278,2.0545,2.101,2.1093,2.11,2.1191,2.1195,2.1356,2.1778,2.2231,2.2684,2.3126,2.3569,2.3667,2.3144,2.3916,2.3961,2.3045,2.3684,2.3836,2.3046,2.2736,2.2224,2.1725,2.1725,2.1899,2.227,2.2617,2.2972,2.3343,2.4055,2.4479,2.4487,2.4684,2.4889,2.4939,2.5301,2.557,2.5724,2.5935,2.6075,2.6075,2.6075,2.6075,2.6092,2.6092,2.6092,2.6092,2.6092,2.6083,2.6133,2.6488,2.6868,2.7247,2.7586,2.7957,2.8263,2.8263,2.8263,2.8263,2.7841,2.7185,2.6666,2.6272,2.6138,2.6138,2.6138,2.5861,2.5499,2.5383,2.5705,2.5883,2.589,2.58,2.5793,2.5793,2.58,2.58,2.58,2.5513,2.5233,2.5233,2.4931,2.4636,2.4636,2.4636,2.4636,2.4636,2.4636,2.4636,2.4636,2.4636,2.4636,2.4636,2.4636,2.4636,2.4636,2.4636,2.4636,2.4636,2.4636,2.4341,1.3913,0.0,0.0,0.0,0.0,0.0,1.7398,1.7849,1.8257,1.9243,1.9545,1.9667,2.0175,2.0246,2.0335,2.0737,2.1222,2.1696,2.1742,2.2518,2.3073,2.3197,2.3727,2.4024,2.3937,2.4187,2.4322,0.0,2.4063,2.4035,2.3836,2.2929,2.2426,2.2342,2.2333,2.2485,2.2808,2.3281,2.3765,2.4138,2.4654,2.5095,2.5357,2.5467,2.5828,2.6355,2.646,2.6772,2.7271,2.6399,2.6075,2.6075,2.6075,2.624,2.6471,2.6471,2.6471,2.6471,2.6471,2.6298,2.6092,2.6191,2.6661,2.7206,2.7297,2.7767,2.8263,2.8263,2.8263,2.8263,2.813,2.799,2.7724,2.7318,2.7059,2.68,2.6532,2.658,2.6598,2.6283,2.6749,2.7011,2.6677,2.6392,2.6246,2.6246,2.5946,2.58,2.58,2.5653,2.5653,2.5653,2.5506,2.5506,2.5506,2.5506,2.5506,2.5506,2.5506,2.5506,2.5506,2.5506,2.5506,2.5506,2.5506,2.5506,2.5506,2.4924,2.4636,2.4636,2.4636,2.4488,1.2766,1.2952,0.0,0.0,0.0,0.0,1.6281,1.6701,1.721,1.824,1.8524,1.8783,1.9475,1.9585,1.9736,2.0262,2.0866,2.1374,2.1634,2.236,2.2977,2.3163,2.3742,2.4088,2.4186,2.4466,2.4598,2.4414,2.4449,2.4332,2.4035,2.3238,2.2937,2.2946,2.2937,2.2946,2.3147,2.3737,2.4239,2.4727,2.5342,2.5847,2.6227,2.6336,2.658,2.696,2.7122,2.7437,2.767,2.7099,2.6805,2.6692,2.6722,2.68,2.701,2.7169,2.7227,2.7202,2.7043,2.6842,2.6789,2.692,2.7317,2.7832,2.8247,2.8707,2.9185,2.8914,2.8659,2.8535,2.8535,2.8403,2.8263,2.799,2.7857,2.76,2.7467,2.7613,2.7548,2.6998,2.7394,2.7703,2.7565,2.7122,2.683,2.683,2.6538,2.6246,2.6246,2.6093,2.6093,2.6093,2.5946,2.58,2.58,2.58,2.58,2.58,2.58,2.58,2.58,2.58,2.58,2.58,2.58,2.58,2.58,2.5366,2.5072,2.479,2.479,2.4784,1.1765,1.2,0.0,0.0,1.3702,0.0,1.514,1.5753,1.6322,1.7113,1.7416,1.7794,1.8714,1.8904,1.9074,1.9564,2.0099,2.0656,2.1283,2.2025,2.2666,2.3132,2.3598,2.3969,2.4241,2.4824,2.4975,2.4506,2.4746,2.4637,2.3845,2.3646,2.3447,2.3447,2.3447,2.3447,2.3546,2.4097,2.4606,2.5163,2.5922,2.6542,2.7098,2.7314,2.7322,2.7178,2.7685,2.7755,2.7596,2.7979,2.7891,2.7556,2.7581,2.7629,2.7723,2.8109,2.8254,2.8212,2.7852,2.7706,2.7796,2.8052,2.8428,2.8928,2.966,3.005,3.0369,2.9952,2.9447,2.8939,2.8939,2.8667,2.8395,2.8395,2.8395,2.8403,2.8271,2.8562,2.8518,2.754,2.7814,2.813,2.8137,2.7848,2.7703,2.7703,2.742,2.7136,2.7129,2.6692,2.6538,2.6538,2.6093,2.5946,2.5946,2.5946,2.5946,2.5946,2.5946,2.5946,2.5946,2.5946,2.5946,2.5946,2.5946,2.5946,2.5946,2.58,2.566,2.5233,2.5233,2.5079,1.0931,1.1156,0.0,0.0,1.2461,0.0,1.4227,1.4693,1.5178,1.6092,1.6305,1.6427,1.6728,1.7119,1.7572,1.8115,1.8693,1.9479,2.0646,2.1598,2.2429,2.2889,2.3515,2.4053,2.4413,2.5013,2.526,2.4975,2.5129,2.4833,2.4035,2.4035,2.3836,2.3637,2.3836,2.4035,2.4233,2.4622,2.5133,2.5975,2.6154,2.6588,2.7323,2.7431,2.754,2.7835,2.8258,2.8557,2.8514,2.8692,2.8498,2.7935,2.7957,2.8182,2.852,2.8647,2.8665,2.8657,2.858,2.8585,2.8442,2.8567,2.9081,2.9669,2.974,3.005,3.0378,3.0369,3.0239,3.0118,3.0118,2.9839,2.943,2.9176,2.893,2.8675,2.8403,2.8824,2.919,2.8915,2.8648,2.8418,2.8137,2.7992,2.7992,2.7992,2.7992,2.7848,2.7558,2.7405,2.7267,2.6983,2.6838,2.6838,2.6838,2.6838,2.6838,2.6838,2.6838,2.6838,2.6838,2.6838,2.6838,2.6838,2.6838,2.6838,2.6692,2.6093,2.58,2.5653,2.5653,2.5653,1.0087,0.0,0.0,1.1311,1.1733,0.0,0.0,1.3554,1.4091,1.5034,1.5242,1.5432,1.5908,1.6252,1.66,1.7149,1.7773,1.8564,1.9374,2.0587,2.17,2.2451,2.3012,2.3629,2.4167,2.4764,2.5199,2.5265,2.5437,2.5226,2.4735,2.4529,2.4523,2.4637,2.4737,2.5039,2.5547,2.5839,2.6367,2.7108,2.7314,2.7656,2.8281,2.8281,2.8281,2.8397,2.8723,2.8811,2.9013,2.9091,2.9037,2.8773,2.8463,2.8491,2.8759,2.8878,2.9008,2.9016,2.9094,2.9023,2.9095,2.9356,2.9742,3.0066,3.051,3.0588,3.0629,3.0629,3.0499,3.0378,3.0378,3.023,3.01,2.9839,2.9578,2.9307,2.9045,2.9362,2.9618,2.9618,2.9501,2.9425,2.8995,2.8859,2.857,2.8418,2.8282,2.7992,2.7848,2.7848,2.7703,2.7565,2.7565,2.7565,2.7565,2.7565,2.742,2.7274,2.7274,2.7274,2.6991,2.6991,2.6991,2.6991,2.6991,2.6991,2.6991,2.6546,2.6246,2.6093,2.6093,2.5946,0.0,0.0,0.0,0.0,0.0,1.143,0.0,0.0,0.0,1.3842,1.4152,1.4506,1.5215,1.5515,1.5863,1.6216,1.7016,1.7764,0.0,1.9426,0.0,2.1852,2.2461,2.3033,2.3826,2.4426,2.5047,2.5565,2.5668,2.5615,2.5421,2.5226,2.5319,2.5848,2.5867,2.617,2.6798,2.7094,2.7607,2.8261,2.8571,2.8917,2.9237,2.9237,2.9122,2.893,2.9055,2.906,2.9151,2.9365,2.9552,2.9487,2.894,2.8862,2.8876,2.9243,2.937,2.9535,2.9491,2.9515,2.9634,3.0283,3.041,3.0592,3.1286,3.1249,3.1,3.1,3.075,3.0629,3.0629,3.0499,3.0499,3.0499,3.0222,2.9952,2.9952,3.004,3.0045,3.0045,3.0358,3.0433,3.0006,2.9728,2.9433,2.9138,2.8707,2.8426,2.8282,2.8282,2.8137,2.8137,2.8137,2.8137,2.8137,2.8137,2.7992,2.7695,2.7695,2.7558,2.7282,2.7136,2.7136,2.6991,2.6991,2.6991,2.6991,2.6991,2.6845,2.6538,2.6538,2.6392,0.0,0.0,0.0,0.0,1.0362,0.0,0.0,0.0,1.2065,1.2591,0.0,1.3291,1.3692,0.0,0.0,0.0,1.6067,1.6986,1.7745,1.8556,1.9673,2.1171,2.1893,2.2685,2.3795,2.4426,2.5147,2.6052,2.5883,2.5884,2.5974,2.6004,2.6201,2.6646,2.6656,2.6973,2.7733,2.8026,2.833,2.8767,2.9065,2.9415,2.9889,2.9669,2.9554,2.9469,2.9605,2.961,2.9478,2.9935,3.0026,2.9842,2.9527,2.9442,2.9609,2.9751,3.0024,3.0239,3.0325,3.0428,3.0678,3.0816,3.1056,3.1322,3.1359,3.1377,3.1377,3.1377,3.1377,3.1249,3.1249,3.1129,3.0879,3.0879,3.062,3.0369,3.0369,3.0591,3.0871,3.0871,3.1202,3.1285,3.0442,3.0299,3.0299,3.0157,2.9863,2.9577,2.9146,2.8851,2.8555,2.8137,2.8137,2.8137,2.8137,2.8137,2.8137,2.7992,2.7992,2.7992,2.7992,2.7703,2.7412,2.6991,2.6991,2.6991,2.6991,2.6991,2.6991,2.6991,2.6991,2.6845,0.0,0.0,0.0,0.0,0.0,0.0,1.0346,0.0,1.1326,0.0,0.0,0.0,0.0,0.0,0.0,0.0,1.5249,1.6215,1.6967,1.8065,1.9239,2.0682,0.0,0.0,2.3929,2.4702,2.534,2.6009,2.6268,2.6465,2.6556,2.6717,2.7089,2.7811,2.7832,2.8379,2.9302,2.9507,2.9703,3.0004,3.0108,3.0316,3.0412,3.0308,3.0297,3.0308,2.998,2.9987,3.0097,3.0338,3.0221,3.0074,3.0243,3.0204,2.9947,2.9744,3.0084,3.0369,3.0629,3.075,3.087,3.1129,3.1387,3.1653,3.1653,3.1772,3.2029,3.2029,3.1901,3.1653,3.1653,3.1387,3.1129,3.1129,3.087,3.0683,3.0924,3.115,3.1331,3.1551,3.1904,3.214,3.1859,3.1152,3.0726,3.0442,3.0299,3.0148,3.0014,2.972,2.9577,2.9433,2.9433,2.9433,2.9138,2.9138,2.8995,2.8418,2.8282,2.8137,2.8137,2.7985,2.7848,2.771,2.742,2.742,2.742,2.7129,2.6991,2.6991,2.6991,2.6991,0.7241,0.0,0.0,0.0,0.0,0.0,0.0,0.0,0.0,0.0,0.0,0.0,0.0,0.0,0.0,0.0,0.0,1.5626,0.0,1.751,1.8811,2.0099,0.0,0.0,0.0,2.4585,2.5211,2.5679,2.6404,2.6894,2.702,2.7275,2.7796,2.8598,2.8744,2.9293,3.0398,3.0639,3.0909,3.1127,3.123,3.124,3.123,3.1137,3.1034,3.1034,3.0412,3.0453,3.0688,3.0727,3.062,3.0606,3.0799,3.0782,3.0547,3.0176,3.032,3.0888,3.1009,3.1129,3.1267,3.1515,3.1772,3.2047,3.2047,3.2175,3.2422,3.2422,3.2166,3.2047,3.2047,3.191,3.1635,3.1635,3.1469,3.1383,3.1684,3.1747,3.1897,3.2173,3.2427,3.271,3.271,3.185,3.1135,3.086,3.0718,3.0584,3.0584,3.0442,3.0442,3.0442,3.0442,3.0299,3.0006,3.0006,2.9712,2.913,2.8707,2.8418,2.8274,2.8274,2.8274,2.8137,2.7848,2.7703,2.7703,2.742,2.7274,2.7282,2.7136,2.6991,0.0,0.0,0.0,0.7867,0.0,0.0,0.0,0.0,0.9753,0.0,0.0,0.0,0.0,0.0,0.0,0.0,0.0,0.0,0.0,1.6983,1.8105,1.9133,2.0916,0.0,0.0,2.4009,2.4743,2.5189,2.6104,2.6838,2.7306,2.7753,2.8221,2.871,2.9168,2.9746,3.0529,3.1186,3.1721,3.1924,3.2342,3.2443,3.2443,3.1834,3.1516,3.1516,3.1034,3.0874,3.0998,3.1153,3.1377,3.1472,3.1021,3.1377,3.1895,3.1049,3.1211,3.1791,3.1515,3.1644,3.1919,3.1919,3.2166,3.2422,3.2422,3.2422,3.2422,3.2422,3.2422,3.2422,3.2422,3.2422,3.2422,3.2422,3.2467,3.2506,3.2516,3.2472,3.262,3.2629,3.2704,3.271,3.271,3.2403,3.2105,3.2105,3.1418,3.1002,3.1002,3.0584,3.0442,3.0442,3.0442,3.0442,3.0442,3.0442,3.0291,2.9863,2.9855,2.9425,2.8699,2.8699,2.8555,2.8137,2.8137,2.8137,2.8137,2.8137,2.7992,2.7992,2.7274,2.7274,0.0,0.0,0.6826,0.7026,0.0,0.0,0.0,0.0,0.0,0.0,0.0,0.0,0.0,0.0,0.0,0.0,0.0,0.0,0.0,0.0,1.8301,1.943,2.0916,2.2052,0.0,0.0,2.467,2.5124,2.6055,2.6801,2.7266,2.7742,2.8473,2.9467,2.9663,3.0066,3.0734,3.1318,3.1762,3.1861,3.2286,3.2544,3.2443,3.224,3.224,3.2139,3.1527,3.1305,3.1406,3.1773,3.1642,3.1419,3.1942,3.2023,3.1997,3.1312,3.1577,3.2166,3.2157,3.2166,3.2166,3.2166,3.2422,3.2667,3.2667,3.2921,3.3048,3.3048,3.2921,3.2667,3.2667,3.2549,3.2422,3.2422,3.2615,3.2992,3.3256,3.3479,3.3811,3.3826,3.3854,3.3678,3.3539,3.3121,3.2832,3.2553,3.2272,3.1991,3.1692,3.1551,3.1418,3.1285,3.1143,3.1143,3.086,3.0576,3.0299,3.0291,3.0291,3.0006,2.9568,2.9425,2.9282,2.8866,2.8563,2.8555,2.8555,2.8282,2.8137,2.8137,2.7848,2.7848,0.4804,0.5395,0.0,0.6153,0.6609,0.0,0.7319,0.0,0.8152,0.0,0.0,0.0,0.0,0.0,0.0,0.0,0.0,0.0,0.0,1.6793,1.7968,1.9069,2.0388,2.1564,2.2179,2.3405,2.4342,2.4891,2.583,2.6573,2.7119,2.7765,2.8514,2.9431,2.9797,3.0214,3.0802,3.1393,3.1739,3.175,3.2347,3.2585,3.2485,3.2577,3.2656,3.2667,3.2139,3.1823,3.1786,3.206,3.2061,3.185,3.227,3.2496,3.2394,3.174,3.1942,3.2422,3.2422,3.2422,3.254,3.254,3.2794,3.3048,3.3048,3.3165,3.3418,3.3418,3.3292,3.3048,3.3048,3.2921,3.2794,3.2794,3.3115,3.3612,3.3879,3.4241,3.458,3.459,3.4646,3.4508,3.4223,3.3955,3.3548,3.299,3.285,3.2561,3.2403,3.2263,3.2263,3.1991,3.1841,3.1559,3.1285,3.1002,3.0726,3.0584,3.0576,3.0433,3.0148,3.0148,3.0006,2.9728,2.9282,2.913,2.913,2.8707,2.857,2.857,2.857,2.857]},{"header":{"parameterUnit":"m.s-1","parameterCategory":1,"la1":30.6,"la2":29.2853,"lo1":-89.7004,"lo2":-87.6739,"dy":0.0162,"dx":0.0183,"nx":112,"ny":82,"refTime":"2023-03-09T18:00:00:Z","depth":0,"parameterNumber":3,"parameterNumberName":"V-component_of_WINDS"},"data":[0.0,0.0,0.0,0.0,0.0,0.0,0.0,0.0,0.0,0.0,0.0,0.0,0.0,0.0,0.0,0.0,0.0,0.0,0.0,0.0,0.0,0.0,0.0,0.0,0.0,0.0,0.0,0.0,0.0,0.0,0.0,0.0,0.0,0.0,0.0,0.0,0.0,0.0,0.0,0.0,0.0,0.0,0.0,0.0,0.0,0.0,0.0,0.0,0.0,0.0,0.0,0.0,0.0,0.0,0.0,0.0,0.0,0.0,0.0,0.0,0.0,0.0,0.0,0.0,0.0,0.0,0.0,0.0,0.0,0.0,0.0,0.0,0.0,0.0,0.0,0.0,0.0,0.0,0.0,0.0,0.0,0.0,0.0,0.0,0.0,0.0,0.0,0.0,0.0,0.0,-2.4814,-2.505,-2.5071,-2.4791,-2.4073,-2.4271,-2.4213,-2.3729,0.0,0.0,0.0,0.0,0.0,0.0,0.0,0.0,0.0,0.0,0.0,0.0,0.0,0.0,0.0,0.0,0.0,0.0,0.0,0.0,0.0,0.0,0.0,0.0,0.0,0.0,0.0,0.0,0.0,0.0,0.0,0.0,0.0,0.0,0.0,0.0,0.0,0.0,0.0,0.0,0.0,0.0,0.0,0.0,0.0,0.0,0.0,0.0,0.0,0.0,0.0,0.0,0.0,0.0,0.0,0.0,0.0,0.0,0.0,0.0,0.0,0.0,0.0,0.0,0.0,0.0,0.0,0.0,0.0,0.0,0.0,0.0,0.0,0.0,0.0,0.0,0.0,0.0,0.0,0.0,0.0,0.0,0.0,0.0,0.0,0.0,0.0,0.0,0.0,0.0,0.0,0.0,0.0,0.0,0.0,0.0,0.0,0.0,0.0,0.0,0.0,0.0,0.0,0.0,-2.5483,-2.5859,-2.6186,-2.6136,-2.5563,-2.5296,-2.5184,-2.4962,0.0,0.0,0.0,0.0,0.0,0.0,0.0,0.0,0.0,0.0,0.0,0.0,0.0,0.0,0.0,0.0,0.0,0.0,0.0,0.0,0.0,0.0,0.0,0.0,0.0,0.0,0.0,0.0,0.0,0.0,0.0,0.0,0.0,0.0,0.0,0.0,0.0,0.0,0.0,0.0,0.0,0.0,0.0,0.0,0.0,0.0,0.0,0.0,0.0,0.0,0.0,0.0,0.0,0.0,0.0,0.0,0.0,0.0,0.0,0.0,0.0,0.0,0.0,0.0,0.0,0.0,0.0,0.0,0.0,0.0,0.0,0.0,0.0,0.0,0.0,0.0,0.0,0.0,0.0,0.0,0.0,0.0,0.0,0.0,0.0,0.0,0.0,0.0,0.0,0.0,0.0,0.0,0.0,0.0,0.0,0.0,0.0,0.0,0.0,0.0,0.0,0.0,0.0,-2.5765,-2.6159,-2.6449,-2.6736,-2.6758,-2.6188,-2.5768,-2.5562,-2.5542,-2.4821,0.0,0.0,0.0,0.0,0.0,0.0,0.0,0.0,0.0,0.0,0.0,0.0,0.0,0.0,0.0,0.0,0.0,0.0,0.0,0.0,0.0,0.0,0.0,0.0,0.0,0.0,0.0,0.0,0.0,0.0,0.0,0.0,0.0,0.0,0.0,0.0,0.0,0.0,0.0,0.0,0.0,0.0,0.0,0.0,0.0,0.0,0.0,0.0,0.0,0.0,0.0,0.0,0.0,0.0,0.0,0.0,0.0,0.0,0.0,0.0,0.0,0.0,0.0,0.0,0.0,0.0,0.0,0.0,0.0,0.0,0.0,0.0,0.0,0.0,0.0,0.0,0.0,0.0,0.0,0.0,0.0,0.0,0.0,0.0,0.0,0.0,0.0,0.0,0.0,0.0,0.0,0.0,0.0,0.0,0.0,0.0,0.0,0.0,0.0,0.0,0.0,0.0,-2.6572,-2.6859,-2.7132,-2.729,-2.7279,-2.684,-2.6306,-2.599,-2.6089,-2.5594,0.0,0.0,0.0,0.0,0.0,0.0,0.0,0.0,0.0,0.0,0.0,0.0,0.0,0.0,0.0,0.0,0.0,0.0,0.0,0.0,0.0,0.0,0.0,0.0,0.0,0.0,0.0,0.0,0.0,0.0,0.0,0.0,0.0,0.0,0.0,0.0,0.0,0.0,0.0,0.0,0.0,0.0,0.0,0.0,0.0,0.0,0.0,0.0,0.0,0.0,0.0,0.0,0.0,0.0,0.0,0.0,0.0,0.0,0.0,0.0,0.0,0.0,0.0,0.0,0.0,0.0,0.0,0.0,0.0,0.0,0.0,0.0,0.0,0.0,0.0,0.0,0.0,0.0,0.0,0.0,0.0,0.0,0.0,0.0,0.0,0.0,0.0,0.0,0.0,0.0,0.0,0.0,0.0,0.0,0.0,0.0,0.0,0.0,0.0,0.0,0.0,0.0,-2.71,-2.7372,-2.8012,-2.8155,-2.8007,-2.7834,-2.7049,-2.6609,-2.68,-2.6355,0.0,0.0,0.0,0.0,0.0,0.0,0.0,0.0,0.0,0.0,0.0,0.0,0.0,0.0,0.0,0.0,0.0,0.0,0.0,0.0,0.0,0.0,0.0,0.0,0.0,0.0,0.0,0.0,0.0,0.0,0.0,0.0,0.0,0.0,0.0,0.0,0.0,0.0,0.0,0.0,0.0,0.0,0.0,0.0,0.0,0.0,0.0,0.0,0.0,0.0,0.0,0.0,0.0,0.0,0.0,0.0,0.0,0.0,0.0,0.0,0.0,0.0,0.0,0.0,0.0,0.0,0.0,0.0,0.0,0.0,0.0,0.0,0.0,0.0,0.0,0.0,0.0,0.0,0.0,0.0,0.0,0.0,0.0,0.0,0.0,0.0,0.0,0.0,0.0,0.0,0.0,0.0,0.0,0.0,0.0,0.0,0.0,0.0,0.0,0.0,0.0,0.0,-2.7804,-2.8076,-2.8839,-2.8803,-2.8736,-2.8669,-2.7754,-2.7297,-2.7668,0.0,0.0,0.0,0.0,0.0,0.0,0.0,0.0,0.0,0.0,0.0,0.0,0.0,0.0,0.0,0.0,0.0,0.0,0.0,0.0,0.0,0.0,0.0,0.0,0.0,0.0,0.0,0.0,0.0,0.0,0.0,0.0,0.0,0.0,0.0,0.0,0.0,0.0,0.0,0.0,0.0,0.0,0.0,0.0,0.0,0.0,0.0,0.0,0.0,0.0,0.0,0.0,0.0,0.0,0.0,0.0,0.0,0.0,0.0,0.0,0.0,0.0,0.0,0.0,0.0,0.0,0.0,0.0,0.0,0.0,0.0,0.0,0.0,0.0,0.0,0.0,0.0,0.0,0.0,0.0,0.0,0.0,0.0,0.0,0.0,0.0,0.0,0.0,0.0,0.0,0.0,0.0,0.0,0.0,0.0,0.0,0.0,0.0,0.0,0.0,0.0,0.0,-2.8543,-2.8533,-2.8807,-2.968,-2.9651,-2.9521,-2.9353,-2.8425,-2.795,-2.8243,0.0,0.0,0.0,0.0,0.0,0.0,0.0,0.0,0.0,0.0,0.0,0.0,0.0,0.0,0.0,0.0,0.0,0.0,0.0,0.0,0.0,0.0,0.0,0.0,0.0,0.0,0.0,0.0,0.0,0.0,0.0,0.0,0.0,0.0,0.0,0.0,0.0,0.0,0.0,0.0,0.0,0.0,0.0,0.0,0.0,0.0,0.0,0.0,0.0,0.0,0.0,0.0,0.0,0.0,0.0,0.0,0.0,0.0,0.0,0.0,0.0,0.0,0.0,0.0,0.0,0.0,0.0,0.0,0.0,0.0,0.0,0.0,0.0,0.0,0.0,0.0,0.0,0.0,0.0,0.0,0.0,0.0,0.0,0.0,0.0,0.0,0.0,0.0,0.0,0.0,0.0,0.0,0.0,0.0,0.0,0.0,0.0,0.0,0.0,0.0,0.0,0.0,-2.9267,-2.9363,-2.9595,-3.0478,-3.0482,-3.0279,-3.0037,-2.9157,-2.8651,0.0,0.0,0.0,0.0,0.0,0.0,0.0,0.0,0.0,0.0,0.0,0.0,0.0,0.0,0.0,0.0,0.0,0.0,0.0,0.0,0.0,0.0,0.0,0.0,0.0,0.0,0.0,0.0,0.0,0.0,0.0,0.0,0.0,0.0,0.0,0.0,0.0,0.0,0.0,0.0,0.0,0.0,0.0,0.0,0.0,0.0,0.0,0.0,0.0,0.0,0.0,0.0,0.0,0.0,0.0,0.0,0.0,0.0,0.0,0.0,0.0,0.0,0.0,0.0,0.0,0.0,0.0,0.0,0.0,0.0,0.0,0.0,0.0,0.0,0.0,0.0,0.0,0.0,0.0,0.0,0.0,0.0,0.0,0.0,0.0,0.0,0.0,0.0,0.0,0.0,0.0,0.0,0.0,0.0,0.0,0.0,0.0,0.0,0.0,0.0,0.0,0.0,0.0,-2.9588,-3.0133,-3.0566,-3.098,-3.1362,-3.1455,-3.1071,-3.0177,-2.9714,-2.9757,0.0,0.0,0.0,0.0,0.0,0.0,0.0,0.0,0.0,0.0,0.0,0.0,0.0,0.0,0.0,0.0,0.0,0.0,0.0,0.0,0.0,0.0,0.0,0.0,0.0,0.0,0.0,0.0,0.0,0.0,0.0,0.0,0.0,0.0,0.0,0.0,0.0,0.0,0.0,0.0,0.0,0.0,0.0,0.0,0.0,0.0,0.0,0.0,0.0,0.0,0.0,0.0,0.0,0.0,0.0,0.0,0.0,0.0,0.0,0.0,0.0,0.0,0.0,0.0,0.0,0.0,0.0,0.0,0.0,0.0,0.0,0.0,0.0,0.0,0.0,0.0,0.0,0.0,0.0,0.0,0.0,0.0,0.0,0.0,0.0,0.0,0.0,0.0,0.0,0.0,0.0,0.0,0.0,0.0,0.0,0.0,0.0,0.0,0.0,0.0,0.0,0.0,-3.0411,-3.1138,-3.164,-3.1916,-3.2458,-3.2676,-3.2304,-3.1583,-3.0993,-3.0799,0.0,0.0,0.0,0.0,0.0,0.0,0.0,0.0,0.0,0.0,0.0,0.0,0.0,0.0,0.0,0.0,0.0,0.0,0.0,0.0,0.0,0.0,0.0,0.0,0.0,0.0,0.0,0.0,0.0,0.0,0.0,0.0,0.0,0.0,0.0,0.0,0.0,0.0,0.0,0.0,0.0,0.0,0.0,0.0,0.0,0.0,0.0,0.0,0.0,0.0,0.0,0.0,0.0,0.0,0.0,0.0,0.0,0.0,0.0,0.0,0.0,0.0,0.0,0.0,0.0,0.0,0.0,0.0,0.0,0.0,0.0,0.0,0.0,0.0,0.0,0.0,0.0,0.0,0.0,0.0,0.0,0.0,0.0,0.0,0.0,0.0,0.0,0.0,0.0,0.0,0.0,0.0,0.0,0.0,0.0,0.0,0.0,0.0,0.0,0.0,0.0,0.0,-3.1498,-3.224,-3.2771,-3.3173,-3.3653,-3.3919,-3.3699,-3.3129,-3.253,-3.1895,0.0,0.0,0.0,0.0,0.0,0.0,0.0,0.0,0.0,0.0,0.0,0.0,0.0,0.0,0.0,0.0,0.0,0.0,0.0,0.0,0.0,0.0,0.0,0.0,0.0,0.0,0.0,0.0,0.0,0.0,0.0,0.0,0.0,0.0,0.0,0.0,0.0,0.0,0.0,0.0,0.0,0.0,0.0,0.0,0.0,0.0,0.0,0.0,0.0,0.0,0.0,0.0,0.0,0.0,0.0,0.0,0.0,0.0,0.0,0.0,-2.6667,-2.5695,0.0,0.0,0.0,0.0,0.0,0.0,0.0,0.0,0.0,0.0,0.0,0.0,0.0,0.0,0.0,0.0,0.0,0.0,0.0,0.0,0.0,0.0,0.0,0.0,0.0,0.0,0.0,0.0,0.0,0.0,0.0,0.0,0.0,0.0,0.0,0.0,0.0,0.0,0.0,0.0,-3.217,-3.3267,-3.397,-3.391,-3.4808,-3.537,-3.516,-3.4515,-3.4085,-3.4062,-3.3126,0.0,0.0,0.0,0.0,0.0,0.0,0.0,0.0,0.0,0.0,0.0,0.0,0.0,0.0,0.0,0.0,0.0,0.0,0.0,0.0,0.0,0.0,0.0,0.0,0.0,0.0,0.0,0.0,0.0,0.0,0.0,0.0,0.0,0.0,0.0,0.0,0.0,0.0,0.0,0.0,0.0,0.0,0.0,0.0,0.0,0.0,0.0,0.0,0.0,0.0,0.0,0.0,0.0,0.0,0.0,0.0,0.0,0.0,0.0,0.0,-2.7954,0.0,0.0,0.0,0.0,0.0,0.0,0.0,0.0,0.0,0.0,0.0,0.0,0.0,0.0,0.0,0.0,0.0,0.0,0.0,0.0,0.0,0.0,0.0,0.0,0.0,0.0,0.0,0.0,0.0,0.0,0.0,0.0,0.0,0.0,0.0,0.0,0.0,0.0,0.0,0.0,-3.387,-3.4845,-3.5475,-3.5581,-3.644,-3.6888,-3.66,-3.6229,-3.5888,-3.5623,-3.5101,0.0,0.0,0.0,0.0,0.0,0.0,0.0,0.0,0.0,0.0,0.0,0.0,0.0,0.0,0.0,0.0,0.0,0.0,0.0,0.0,0.0,0.0,0.0,0.0,0.0,0.0,0.0,0.0,0.0,0.0,0.0,0.0,0.0,0.0,0.0,0.0,0.0,0.0,0.0,0.0,0.0,0.0,0.0,0.0,0.0,0.0,0.0,0.0,0.0,0.0,0.0,0.0,0.0,-3.3787,-3.4155,-3.4345,-3.3761,-3.3829,-3.4272,-3.2129,-3.1076,-3.0833,-3.0238,0.0,0.0,0.0,0.0,0.0,0.0,0.0,0.0,0.0,0.0,0.0,0.0,0.0,0.0,0.0,0.0,0.0,0.0,0.0,0.0,0.0,0.0,0.0,0.0,-3.6328,-3.6147,-3.4404,0.0,0.0,0.0,0.0,0.0,0.0,0.0,0.0,0.0,0.0,0.0,-3.5885,-3.6655,-3.7199,-3.7547,-3.8145,-3.8421,-3.8019,-3.7962,-3.7721,-3.7142,-3.7093,-3.7043,0.0,0.0,0.0,0.0,0.0,0.0,0.0,0.0,0.0,0.0,0.0,0.0,0.0,0.0,0.0,0.0,0.0,0.0,0.0,0.0,0.0,0.0,0.0,0.0,0.0,0.0,0.0,0.0,0.0,0.0,0.0,0.0,-2.2204,-2.2236,0.0,0.0,0.0,0.0,0.0,0.0,0.0,0.0,0.0,0.0,0.0,0.0,0.0,-3.4121,-3.5034,-3.4866,-3.4941,-3.5183,-3.4675,-3.506,-3.6137,-3.6367,-3.7263,-3.8637,-3.8014,0.0,-3.3882,-3.3439,0.0,0.0,0.0,0.0,0.0,0.0,0.0,0.0,0.0,0.0,0.0,0.0,0.0,0.0,0.0,0.0,0.0,0.0,0.0,0.0,0.0,0.0,-3.738,-3.8419,-3.8959,-3.9402,0.0,-3.9217,-3.8115,-3.7539,-3.6873,0.0,0.0,0.0,0.0,0.0,0.0,0.0,-3.7309,-3.8463,-3.9174,-3.9105,-3.9674,-3.9884,-3.9613,-3.9493,-3.9356,-3.9116,-3.8688,-3.8489,-3.8537,-3.8218,0.0,0.0,0.0,0.0,0.0,0.0,0.0,0.0,0.0,0.0,0.0,0.0,0.0,0.0,0.0,0.0,0.0,0.0,0.0,0.0,0.0,0.0,0.0,0.0,0.0,0.0,0.0,0.0,0.0,-2.2695,-2.3114,-2.3114,-2.2538,-2.2208,0.0,0.0,0.0,0.0,0.0,0.0,0.0,0.0,0.0,-3.4106,-3.4818,-3.5667,-3.6692,-3.6747,-3.7065,-3.7679,-3.7908,-3.8334,-3.906,-3.9353,-3.991,-4.0713,-4.0783,-4.0199,-3.8957,-3.7073,-3.6029,-3.5596,0.0,0.0,0.0,0.0,-3.6792,-3.7203,-3.7807,-3.8156,-3.8323,-3.8122,0.0,0.0,0.0,0.0,0.0,0.0,0.0,0.0,0.0,0.0,-4.0374,-4.1825,-4.2395,-4.2886,-4.3956,-4.3758,-4.2759,0.0,-3.9716,-3.9065,-3.886,0.0,0.0,0.0,0.0,-3.9156,-3.9908,-4.0431,-4.0819,-4.1071,-4.1278,-4.1253,-4.0954,-4.0816,-4.0913,-4.1219,-4.1086,-4.1261,-4.1806,-4.1276,-4.0815,0.0,0.0,0.0,0.0,0.0,0.0,0.0,0.0,0.0,0.0,0.0,0.0,0.0,0.0,0.0,0.0,0.0,0.0,0.0,0.0,0.0,0.0,0.0,0.0,0.0,0.0,0.0,0.0,-2.3989,-2.4484,-2.4492,-2.3796,-2.3436,0.0,0.0,0.0,0.0,0.0,0.0,-3.3511,-3.4083,-3.4711,-3.5351,-3.6221,-3.7291,-3.8594,-3.8837,-3.9429,-4.0203,-4.0899,-4.1432,-4.1799,-4.2059,-4.2307,-4.2672,-4.3098,-4.3305,-4.3214,-4.0595,-3.9175,-3.8707,-3.9007,-3.9271,-3.9504,-3.9894,-4.0217,-4.0522,-4.1074,-4.1394,-4.1579,-4.1592,-4.1107,-4.0529,-4.0427,0.0,0.0,0.0,0.0,-4.0813,-4.2084,-4.2682,-4.3316,-4.4733,-4.5397,-4.6001,-4.7062,-4.7421,-4.6746,0.0,-4.2691,-4.2181,-4.2254,0.0,0.0,-4.1939,-4.1964,-4.217,-4.2677,-4.2837,-4.3012,-4.3377,-4.3319,-4.3108,-4.279,-4.2726,-4.287,-4.3304,-4.3401,-4.3772,-4.4413,-4.3989,-4.3483,-4.2869,0.0,0.0,0.0,0.0,0.0,0.0,0.0,0.0,0.0,0.0,0.0,0.0,0.0,0.0,0.0,0.0,0.0,0.0,0.0,0.0,0.0,0.0,0.0,0.0,0.0,0.0,0.0,0.0,0.0,-2.6339,-2.6337,0.0,0.0,0.0,0.0,-3.1937,-3.2608,-3.3568,-3.4636,-3.5351,-3.5888,-3.6327,-3.7576,-3.889,-4.0166,-4.1171,-4.192,-4.2345,-4.2552,-4.3048,-4.3854,-4.4147,-4.468,-4.5526,-4.5778,-4.5668,-4.5152,-4.3672,-4.268,-4.219,-4.267,-4.2402,-4.1997,-4.3099,-4.3668,-4.4011,-4.5132,-4.5657,-4.5819,-4.5233,-4.4554,-4.3951,-4.3951,-4.3855,0.0,0.0,-4.4393,-4.4935,-4.5144,-4.5828,-4.6501,-4.6649,-4.7475,-4.8484,-4.9409,-4.9796,-4.929,0.0,-4.6064,-4.5563,-4.5625,0.0,-4.4525,-4.4525,-4.499,-4.5369,-4.5406,-4.5975,-4.6296,-4.6211,-4.6178,-4.6027,-4.5626,-4.559,-4.5498,-4.5267,-4.5267,-4.5285,-4.534,-4.5303,-4.5324,-4.5401,-4.5306,0.0,0.0,0.0,0.0,0.0,0.0,0.0,0.0,0.0,0.0,0.0,0.0,0.0,0.0,0.0,0.0,0.0,0.0,0.0,0.0,0.0,0.0,0.0,0.0,0.0,0.0,0.0,0.0,-2.7799,-2.8544,0.0,-3.0374,-3.171,-3.2677,-3.31,-3.4332,-3.5133,-3.5473,-3.6939,-3.8136,-3.889,-4.0188,-4.1244,-4.1988,-4.31,-4.3819,-4.4153,-4.4803,-4.5365,-4.5761,-4.6542,-4.7074,-4.7423,-4.8268,-4.8587,-4.8407,-4.8109,-4.6467,-4.421,-4.5,-4.5283,-4.5417,-4.6389,-4.6929,-4.7274,-4.7797,-4.8189,-4.8442,-4.8461,-4.7928,-4.7276,-4.7226,-4.6797,-4.6398,-4.694,-4.7246,-4.7664,-4.8832,-4.9362,-4.9768,-5.0445,-5.0912,-5.1364,-5.1768,-5.1963,-5.1817,-5.114,-4.9347,-4.7938,-4.8006,-4.7319,-4.6746,-4.6746,-4.6908,-4.7029,-4.702,-4.7188,-4.7257,-4.7124,-4.6996,-4.6834,-4.6649,-4.6514,-4.6615,-4.6987,-4.7009,-4.7215,-4.7628,-4.7219,-4.6923,-4.6817,-4.6231,-4.5773,0.0,0.0,0.0,0.0,0.0,0.0,0.0,0.0,0.0,0.0,0.0,0.0,0.0,0.0,0.0,0.0,0.0,0.0,0.0,0.0,0.0,0.0,0.0,0.0,0.0,-2.7889,-2.8637,-2.9663,-3.0557,-3.1415,-3.208,-3.278,-3.3441,-3.4181,-3.5841,-3.6924,-3.7223,-3.8974,-4.0348,-4.1213,-4.2466,-4.3338,-4.3833,-4.4844,-4.5552,-4.5921,-4.655,-4.7088,-4.751,-4.8289,-4.8818,-4.9107,-4.9998,-5.038,-5.0483,-5.071,-4.9407,-4.7348,-4.7855,-4.8231,-4.8605,-4.9288,-4.9722,-5.002,-5.035,-5.0618,-5.0901,-5.1117,-5.0864,-5.0406,-5.0363,-4.9915,-4.9522,-5.0073,-5.0178,-5.0403,-5.1577,-5.1863,-5.2016,-5.2705,-5.3139,-5.3395,-5.3484,-5.3818,-5.4111,-5.4188,-5.2223,-5.0547,-5.0606,-5.0144,-4.976,-4.976,-4.9701,-4.966,-4.9658,-4.9346,-4.9067,-4.8934,-4.8552,-4.8283,-4.8162,-4.7993,-4.8229,-4.8938,-4.8933,-4.9214,-4.9911,-4.944,-4.9108,-4.894,-4.7779,-4.7009,-4.6627,0.0,0.0,0.0,0.0,0.0,0.0,0.0,0.0,0.0,0.0,0.0,0.0,0.0,0.0,0.0,0.0,0.0,0.0,0.0,0.0,0.0,0.0,0.0,-2.7509,-2.8125,-2.9435,-3.1711,-3.2306,-3.2824,-3.3504,-3.4679,-3.5322,-3.511,-3.7093,-3.8738,-3.9811,-4.1318,-4.2414,-4.3143,-4.4283,-4.5117,-4.5659,-4.6516,-4.7151,-4.7511,-4.7645,-4.8151,-4.9058,-4.9354,-4.9911,-5.0684,-5.0885,-5.1078,-5.1212,-5.125,-5.1452,-5.1663,-5.1287,-5.125,-5.1413,-5.1802,-5.2083,-5.237,-5.2875,-5.3155,-5.3282,-5.3321,-5.3302,-5.3282,-5.3263,-5.3224,-5.3204,-5.3242,-5.322,-5.32,-5.3299,-5.3297,-5.3276,-5.3337,-5.4014,-5.4612,-5.4612,-5.5364,-5.6056,-5.6033,-5.4608,-5.3414,-5.343,-5.3428,-5.3409,-5.3409,-5.3357,0.0,-5.3302,-5.2512,-5.1894,-5.1749,-5.1037,-5.0492,-5.0307,-5.0234,-5.0456,-5.1101,-5.1036,-5.1277,-5.2008,-5.1952,-5.1893,-5.1813,-5.0094,-4.8747,-4.7828,0.0,0.0,0.0,0.0,0.0,0.0,0.0,0.0,0.0,0.0,0.0,0.0,0.0,0.0,0.0,0.0,0.0,0.0,0.0,0.0,0.0,-2.8827,-2.9218,-2.8595,-2.969,-3.0888,-3.1857,-3.2952,-3.3868,-3.4555,-3.5597,-3.6723,-3.7749,-3.8949,-4.0277,-4.1796,-4.3253,-4.4283,-4.4905,-4.606,-4.6783,-4.7035,-4.7524,-4.7816,-4.7974,-4.8799,-4.932,-4.9616,-5.1081,-5.1823,-5.2102,-5.2884,-5.3255,-5.331,-5.3454,-5.3643,-5.3682,-5.2746,-5.2573,-5.2986,-5.4339,-5.5473,-5.6332,-5.6713,-5.6905,-5.6927,-5.642,-5.5852,-5.5252,-5.4583,-5.393,-5.3528,-5.4053,-5.467,-5.5287,-5.5923,-5.6521,-5.6964,-5.6964,-5.7178,-5.739,-5.739,-5.7158,-5.6942,-5.694,-5.607,-5.5139,-5.4517,-5.3901,-5.3462,-5.3462,-5.3464,0.0,-5.3375,-5.3107,-5.2897,-5.2857,-5.2585,-5.2346,-5.2302,-5.2211,-5.2193,-5.2323,-5.2246,-5.2254,-5.2371,-5.2304,-5.2156,-5.1939,-5.141,-5.0975,0.0,0.0,0.0,0.0,0.0,0.0,0.0,0.0,0.0,0.0,0.0,0.0,0.0,0.0,0.0,0.0,0.0,0.0,0.0,0.0,0.0,0.0,-3.0488,-3.1166,-3.118,-3.1723,-3.2482,-3.3517,-3.4455,-3.5278,-3.6071,-3.7219,-3.8424,-3.9593,-4.1026,-4.2467,-4.3771,-4.5117,-4.6069,-4.6632,-4.7379,-4.7879,-4.8059,-4.8233,-4.8365,-4.8439,-4.9528,-5.0193,-5.0582,-5.21,-5.3009,-5.3417,-5.4024,-5.4352,-5.4386,-5.4571,-5.4919,0.0,0.0,0.0,0.0,0.0,-5.7436,-5.8184,-5.8394,-5.8544,-5.8554,-5.8134,-5.7679,-5.7174,-5.6614,-5.6082,-5.5758,-5.6152,-5.6636,-5.7158,-5.766,-5.8143,-5.8491,-5.8491,-5.851,-5.8548,-5.8548,-5.8179,-5.783,-5.7828,-5.7478,0.0,-5.6485,-5.5385,-5.4578,-5.4542,-5.4544,-5.451,-5.4456,-5.4091,-5.3822,-5.3803,-5.3415,-5.3163,-5.3142,-5.3037,0.0,0.0,0.0,-5.3391,-5.3574,-5.3481,0.0,0.0,0.0,-5.2347,-5.1976,0.0,0.0,0.0,-4.9027,-4.9436,0.0,0.0,0.0,0.0,0.0,0.0,0.0,0.0,0.0,0.0,0.0,0.0,0.0,0.0,0.0,0.0,-3.2346,-3.3511,-3.4584,-3.4211,-3.4384,-3.5907,-3.6457,-3.7061,-3.8026,-3.925,-4.0287,-4.1062,-4.3134,-4.4747,-4.5622,0.0,0.0,0.0,0.0,-4.8514,-4.8748,-4.8748,-4.8874,-4.9092,-5.0014,-5.0953,-5.184,-5.2769,-5.371,-5.4552,-5.4629,-5.4723,-5.4784,-5.5076,-5.5798,-5.6719,-5.6375,-5.6434,-5.6897,-5.7981,-5.8566,-5.8818,-5.8955,0.0,0.0,-5.8985,-5.8966,-5.8933,-5.875,-5.8687,-5.8693,-5.8621,-5.8662,-5.8739,-5.8739,-5.8797,-5.8874,-5.8874,-5.8874,-5.8874,-5.8874,-5.8797,-5.8757,-5.8753,-5.8678,-5.8602,-5.8598,-5.7359,-5.6355,-5.6302,-5.6288,-5.6252,-5.6194,-5.5499,-5.4959,-5.4804,0.0,0.0,-5.3491,-5.3526,-5.387,-5.4636,-5.459,-5.4797,-5.5388,-5.5284,-5.4874,-5.4135,-5.3948,-5.3497,-5.2779,-5.3402,-5.3728,-5.3709,-5.2463,-5.2287,0.0,0.0,0.0,0.0,0.0,0.0,0.0,0.0,0.0,0.0,0.0,0.0,0.0,0.0,0.0,-3.3165,-3.4667,-3.6117,-3.7206,-3.7581,-3.7628,-3.7394,-3.8063,-3.8995,-4.0026,-4.0794,-4.1937,-4.3712,-4.4888,-4.6007,-4.7181,-4.7849,-4.8365,-4.875,-4.8802,-4.8959,-4.9113,-4.9094,-4.9482,-5.0272,0.0,0.0,-5.3082,-5.4031,-5.4628,-5.4912,-5.4981,-5.5075,-5.5267,-5.6033,-5.7397,-5.8892,-5.7966,-5.8169,-5.9011,-5.9356,-5.9997,-6.0699,-6.0817,-6.0889,-6.078,-6.0139,-5.9925,-5.9776,-5.8944,-5.87,0.0,-5.862,-5.9069,-5.9573,-5.9573,-6.0056,-6.0539,-6.0539,-6.0577,-6.0615,-6.0615,-6.0112,-5.9648,-5.9647,-5.9086,-5.8584,-5.8602,-5.8295,-5.8027,-5.8008,-5.797,-5.793,-5.793,-5.7716,-5.7328,-5.6673,-5.64,-5.5994,-5.528,-5.5857,-5.6297,-5.6403,-5.6956,-5.7263,-5.73,-5.7244,-5.7092,-5.6785,-5.6664,-5.6526,-5.6298,-5.6366,-5.6356,-5.6338,-5.5269,-5.4953,0.0,0.0,0.0,0.0,0.0,0.0,0.0,0.0,0.0,0.0,0.0,-3.2593,0.0,0.0,-3.5072,-3.5563,-3.6803,-3.7936,-3.8704,-3.9825,-4.0231,-3.916,-3.9952,-4.0798,-4.1458,-4.2673,-4.3938,-4.5163,-4.6237,-4.7261,-4.8139,-4.8532,-4.8887,-4.9244,-4.9276,-4.934,-4.9434,-4.9847,-5.0303,-5.0828,-5.2083,-5.3036,-5.3698,-5.4562,-5.5057,-5.5255,-5.5281,-5.5618,-5.6264,-5.7623,-5.8815,-5.9727,-5.9649,-5.992,-6.0403,-6.0515,-6.0871,-6.1308,-6.1415,-6.1452,-6.1386,-6.0973,-6.0857,-6.0735,-6.0162,-5.9998,-5.9982,-5.9878,-6.0132,-6.0442,-6.0442,-6.0751,-6.1041,-6.1041,-6.108,-6.1099,-6.1099,-6.0789,-6.0499,-6.0499,-6.0151,-5.9841,-5.9841,-5.9804,-5.9456,-5.8587,-5.8392,-5.8351,-5.8349,-5.8327,-5.8152,-5.7747,-5.7668,-5.7473,-5.7049,-5.7396,-5.7623,-5.7536,-5.7862,-5.7992,-5.7886,-5.7851,-5.7749,-5.7644,-5.7506,-5.7415,-5.7403,-5.7724,-5.8121,-5.8551,-5.8486,-5.8245,0.0,0.0,0.0,0.0,0.0,0.0,0.0,0.0,-3.4362,-3.4686,-3.5289,-3.5932,-3.6489,-3.7202,-3.7785,-3.8284,-3.9122,-3.9842,-4.0348,-4.1766,-4.237,-4.1427,-4.199,-4.2614,-4.2969,-4.4562,-4.5811,-4.6284,-4.7397,-4.8271,-4.8783,-4.899,-4.9239,-4.9634,-4.9623,-4.9709,-4.9948,-5.0589,-5.1139,-5.1547,-5.291,-5.3794,-5.4223,-5.4871,-5.5314,-5.5573,-5.5791,-5.6494,-5.7679,-5.9147,-5.9934,-6.0254,-6.0945,-6.1248,-6.1264,-6.1298,-6.1356,-6.1421,-6.1479,-6.1519,-6.1509,-6.1495,-6.1503,-6.1518,-6.1535,-6.1546,-6.1552,-6.16,-6.1601,-6.1582,-6.1582,-6.1582,-6.1582,-6.1582,-6.1601,-6.1563,-6.1407,-6.1369,-6.133,-6.1156,-6.1155,-6.1117,-6.1117,-6.106,-6.0538,-5.9107,-5.8832,-5.8809,-5.8781,-5.88,-5.8723,-5.855,-5.8531,-5.8531,-5.8531,-5.8531,-5.8585,-5.8669,-5.8615,-5.8566,-5.8489,-5.8356,-5.8301,-5.8292,-5.8139,-5.8011,-5.8011,-5.8843,-5.9602,-6.0292,-6.1166,-6.1185,-3.4921,-3.4856,-3.5169,-3.5687,-3.5938,-3.6059,0.0,0.0,-3.7595,-3.7987,-3.8706,-3.9396,-3.9814,-4.0475,-4.1086,-4.1547,-4.2247,-4.2957,-4.3511,-4.387,-4.4183,-4.4467,-4.4375,-4.4609,-4.5321,-4.6007,-4.678,-4.7795,-4.829,-4.8731,-4.9193,-4.9321,-4.9476,-4.9778,-4.9721,-5.0061,-5.0837,-5.0941,-5.1812,-5.3385,-5.3717,-5.4337,-5.5249,-5.5394,-5.5577,-5.5827,-5.677,-5.8097,-5.9585,-5.9843,-6.0468,-6.125,-6.135,-6.1421,-6.1456,-6.1408,-6.1433,-6.1479,-6.1489,-6.1549,-6.1578,-6.1526,-6.1503,-6.1615,-6.2264,-6.2416,-6.2521,-6.3282,-6.34,-6.332,-6.332,-6.332,-6.332,-6.332,-6.3361,-6.3207,-6.2489,-6.2352,-6.212,-6.1416,-6.1281,-6.1245,-6.121,-6.1137,-6.1003,-6.0747,-6.0665,-6.0599,-6.0512,-6.0512,-6.0223,-5.9454,-5.9377,-5.9377,-5.9377,-5.9377,-5.9681,-6.0378,-6.0342,-6.0291,-6.0212,-6.0149,-6.0094,-6.0027,-5.9998,-5.993,-5.9802,-6.0677,-6.1152,-6.1248,-6.2197,-6.254,-3.6274,-3.614,-3.6467,-3.7137,-3.784,-3.8515,-3.8999,-3.9895,-4.0728,-4.0968,-4.1409,-4.1816,-4.2213,-4.2569,-4.2905,0.0,-4.3612,-4.4008,-4.4405,-4.5043,-4.5587,-4.5856,-4.6382,-4.6658,-4.6409,-4.707,-4.7805,-4.8458,-4.8802,-4.916,-4.9452,-4.9585,-4.9702,-4.9843,-5.0308,-5.0743,-5.1112,-5.2115,-5.3034,-5.3895,-5.4451,-5.5033,-5.5573,-5.564,-5.6057,-5.6786,-5.7776,-5.8905,-6.0061,-6.0589,-6.1058,-6.1467,-6.1464,-6.1468,-6.1509,-6.1468,-6.1498,-6.1549,-6.1549,-6.1578,-6.1578,-6.1528,-6.1846,-6.2308,-6.2585,-6.2971,-6.3369,-6.3707,-6.3748,-6.371,-6.3671,-6.3671,-6.3671,-6.371,-6.3748,-6.367,-6.3337,-6.2853,-6.2405,-6.2073,-6.1627,-6.1281,-6.121,-6.1192,-6.1118,-6.1021,-6.0978,-6.0933,-6.0869,-6.0891,-6.0798,-6.0412,-6.033,-6.0307,-6.0307,-6.0285,-6.0416,-6.0757,-6.0704,-6.0629,-6.0552,-6.0499,-6.0646,-6.1039,-6.1029,-6.1228,-6.1664,-6.1995,-6.2414,-6.2921,-6.3345,-6.3764,-3.7432,-3.7481,-3.7899,-3.8576,-3.9606,-4.0591,-4.1235,-4.2243,-4.3083,-4.339,-4.3729,-4.4049,-4.4345,-4.4471,-4.4595,-4.4862,-4.4971,-4.5152,-4.5477,-4.62,-4.6752,-4.6935,-4.7965,-4.8378,-4.7714,-4.8124,-4.8569,-4.8839,-4.9127,-4.9402,-4.9623,-4.9958,-5.0156,-5.0258,-5.1092,-5.1661,-5.1888,-5.3167,-5.4009,-5.4352,-5.5046,-5.5504,-5.5745,-5.6078,-5.6826,-5.785,-5.8765,-5.9657,-6.0501,-6.1162,-6.1472,-6.1495,-6.1509,-6.1519,-6.1519,-6.1519,-6.1549,-6.1607,-6.1607,-6.1607,-6.1627,-6.1792,-6.2296,-6.2885,-6.3287,-6.3813,-6.4291,-6.4459,-6.4519,-6.452,-6.4464,-6.4444,-6.4464,-6.452,-6.452,-6.4461,-6.4242,-6.3679,-6.3175,-6.2959,-6.2241,-6.1663,-6.1557,-6.1363,-6.1173,-6.1041,-6.1021,-6.0999,-6.0933,-6.0976,-6.0997,-6.0997,-6.0933,-6.0911,-6.0911,-6.0846,-6.08,-6.08,-6.0964,-6.1025,-6.0994,-6.1127,-6.1428,-6.1984,-6.1927,-6.2192,-6.2822,-6.304,-6.3459,-6.4062,-6.4272,-6.4741,0.0,0.0,-3.9654,-4.0495,-4.1466,-4.2325,-4.2757,-4.358,-4.4386,-4.4931,-4.5607,-4.6165,-4.6472,-4.6519,-4.6613,-4.6863,-4.6926,-4.7107,-4.7542,-4.7663,-4.7788,-4.8111,-4.9001,-4.9614,0.0,-4.9267,-4.8925,-4.8993,-4.9239,-4.9476,-4.9692,-5.0486,-5.1026,-5.1168,-5.1945,-5.2779,-5.3631,-5.3793,-5.4329,-5.5164,-5.5461,-5.5662,-5.5845,-5.6878,-5.7862,-5.8819,-5.9677,-6.0572,-6.1376,-6.1472,-6.1495,-6.1509,-6.1578,-6.1607,-6.1607,-6.1607,-6.1607,-6.1607,-6.1607,-6.1607,-6.1724,-6.2512,-6.2774,-6.3095,-6.4733,-6.5197,-6.5328,-6.6096,-6.6314,-6.6318,-6.6318,-6.6318,-6.6318,-6.6318,-6.6318,-6.6103,-6.5339,-6.5145,-6.4889,-6.4104,-6.3245,-6.2614,-6.2477,-6.1821,-6.1245,-6.1117,-6.1099,-6.108,-6.0997,-6.0997,-6.0997,-6.0997,-6.0933,-6.0911,-6.0911,-6.0846,-6.08,-6.08,-6.1516,-6.1972,-6.1972,-6.259,-6.2929,-6.2968,-6.2882,-6.2873,-6.2911,-6.3751,-6.4172,-6.421,-6.4993,-6.5375,0.0,0.0,-4.0358,-4.1882,-4.2682,-4.3365,-4.409,-4.4837,-4.5336,-4.5538,-4.601,-4.6477,-4.659,-4.6749,-4.6934,-4.7088,-4.716,-4.7499,-4.8363,-4.8605,-4.8972,-4.9724,-5.0276,0.0,0.0,0.0,0.0,-5.0717,-5.0984,-5.1143,-5.1224,-5.1598,-5.1827,-5.1846,-5.2681,-5.3278,-5.3562,-5.4297,-5.4882,-5.5281,-5.5638,-5.5885,-5.6033,-5.6966,-5.7911,-5.8861,-5.9729,-6.0592,-6.1415,-6.1472,-6.1507,-6.1519,-6.1578,-6.1607,-6.1607,-6.1607,-6.1607,-6.1607,-6.1607,-6.1977,-6.2503,-6.2786,-6.3623,-6.4632,-6.5205,-6.5719,-6.6189,-6.6396,-6.6442,-6.6392,-6.6413,-6.6396,-6.6413,-6.6392,-6.6409,-6.6331,-6.6108,-6.5619,-6.5114,-6.4857,-6.4139,-6.3507,-6.3388,-6.3139,-6.293,-6.2839,-6.1814,-6.1041,-6.106,-6.1543,-6.187,-6.193,-6.235,-6.2612,-6.2612,-6.2502,-6.2454,-6.2454,-6.2719,-6.2848,-6.2798,-6.2996,-6.3365,-6.3848,-6.3839,-6.4078,-6.4554,-6.484,-6.4993,-6.4993,-6.5261,-6.5394,0.0,-4.0489,-4.1382,-4.2515,-4.3384,-4.4092,-4.4821,-4.5353,-4.5701,-4.5905,-4.6204,-4.6495,-4.6637,-4.6795,-4.698,-4.7205,-4.7276,-4.7677,-4.881,-4.9089,-4.9547,-5.0492,-5.1103,-5.1484,0.0,0.0,0.0,-5.1663,-5.1842,-5.1989,-5.1989,-5.2385,-5.2635,-5.2635,-5.349,-5.3967,-5.3967,-5.4715,-5.5203,-5.5408,-5.5724,-5.5961,-5.612,-5.7327,-5.8222,-5.8881,-6.006,-6.0883,-6.1396,-6.146,-6.1484,-6.1498,-6.1549,-6.1559,-6.1578,-6.1588,-6.1802,-6.2055,-6.2055,-6.2426,-6.2991,-6.3595,-6.452,-6.5453,-6.5773,-6.6236,-6.6614,-6.6538,-6.6489,-6.6458,-6.6445,-6.6448,-6.6428,-6.6442,-6.6442,-6.6458,-6.6489,-6.6062,-6.5654,-6.5654,-6.4993,-6.4381,-6.428,-6.3994,-6.3747,-6.371,-6.2704,-6.1969,-6.2027,-6.2491,-6.282,-6.2859,-6.3241,-6.3505,-6.3505,-6.3392,-6.3301,-6.3301,-6.3589,-6.3757,-6.3713,-6.3995,-6.4339,-6.4832,-6.4804,-6.4996,-6.5425,-6.5425,-6.5425,-6.5394,-6.5394,-6.5566,-3.9747,-4.1074,-4.2477,-4.2568,-4.3545,-4.4575,-4.4923,-4.5177,-4.5529,-4.6038,-4.6186,-4.6332,0.0,0.0,-4.6934,-4.7214,-4.7302,-4.7738,-4.8986,-4.9203,-4.9638,0.0,0.0,0.0,0.0,0.0,0.0,-5.1815,0.0,-5.2121,-5.2121,-5.2969,-5.3465,-5.3465,-5.4321,-5.4767,-5.4799,-5.5,-5.5281,-5.5596,-5.5806,-5.5923,-5.607,-5.7857,-5.8735,-5.8896,-6.0633,-6.1394,-6.1396,-6.1396,-6.144,-6.1503,-6.1498,-6.1509,-6.1509,-6.1617,-6.2192,-6.2913,-6.2991,-6.303,-6.3302,-6.487,-6.5416,-6.5611,-6.6446,-6.6688,-6.6677,-6.6633,-6.6606,-6.6572,-6.6524,-6.6508,-6.6508,-6.6508,-6.6508,-6.6508,-6.6508,-6.6508,-6.6508,-6.6508,-6.5829,-6.5235,-6.5192,-6.4424,-6.3826,-6.3826,-6.3826,-6.3787,-6.371,-6.3729,-6.3768,-6.3748,-6.3685,-6.364,-6.364,-6.3507,-6.3435,-6.3435,-6.4205,-6.4666,-6.4666,-6.5378,-6.5793,-6.5793,-6.5674,-6.558,-6.5494,-6.5494,-6.5484,-6.5394,-6.5452,-6.591,-4.0627,-4.1351,-4.2059,-4.3079,-4.3773,-4.4253,-4.4575,-4.4998,-4.5441,-4.5598,-4.5938,-4.6235,0.0,0.0,0.0,-4.707,-4.7187,0.0,-4.9582,-4.993,0.0,-5.2212,0.0,-5.2941,-5.3046,-5.351,0.0,0.0,-5.3529,-5.3721,-5.3721,-5.3977,-5.4157,-5.4157,-5.4444,-5.4622,-5.4705,-5.5066,-5.5383,-5.5596,-5.5806,-5.5923,-5.607,-5.7879,-5.8723,-5.8812,-6.0565,-6.1318,-6.1332,-6.1369,-6.1396,-6.1428,-6.1484,-6.1495,-6.1573,-6.2246,-6.2636,-6.3005,-6.4251,-6.471,-6.4819,-6.5197,-6.575,-6.6334,-6.6555,-6.664,-6.6614,-6.6586,-6.6572,-6.6524,-6.6489,-6.6508,-6.6508,-6.6508,-6.6508,-6.6508,-6.6508,-6.6508,-6.6508,-6.6508,-6.6287,-6.6101,-6.6066,-6.5799,-6.5566,-6.5566,-6.5566,-6.5102,-6.3845,-6.4271,-6.4637,-6.4597,-6.5073,-6.5354,-6.5346,-6.5293,-6.5243,-6.5243,-6.5455,-6.557,-6.557,-6.5756,-6.5846,-6.5793,-6.5767,-6.5701,-6.558,-6.5523,-6.5494,-6.5484,-6.6093,-6.6502,-4.0848,-4.1482,-4.2194,-4.2953,-4.3492,-4.3981,-4.4253,-4.4669,-4.4966,-4.4906,-4.5146,-4.5344,-4.519,-4.5658,-4.6141,0.0,0.0,0.0,-4.9658,-5.009,-5.0864,0.0,-5.2912,0.0,-5.3235,-5.3418,-5.3561,-5.3639,-5.4,-5.42,-5.42,-5.4252,-5.4287,-5.434,-5.4424,-5.459,-5.481,-5.5121,-5.5358,-5.5551,-5.5724,-5.5866,-5.5981,-5.7811,-5.8656,-5.8748,-6.0538,-6.1291,-6.1306,-6.1347,-6.1361,-6.1356,-6.1428,-6.1693,-6.2082,-6.26,-6.3274,-6.4033,-6.4973,-6.5576,-6.592,-6.5881,-6.6192,-6.6601,-6.6601,-6.6607,-6.6614,-6.6586,-6.6572,-6.6524,-6.6508,-6.6508,-6.6508,-6.6508,-6.6508,-6.6508,-6.6508,-6.6508,-6.6489,-6.6458,-6.6428,-6.6396,-6.6358,-6.6264,-6.6205,-6.6205,-6.6205,-6.5857,-6.4909,-6.5218,-6.5507,-6.5426,-6.5765,-6.6009,-6.602,-6.5947,-6.5897,-6.5897,-6.5897,-6.5897,-6.5897,-6.5897,-6.5872,-6.5846,-6.5846,-6.5774,-6.5701,-6.5599,-6.5734,-6.6087,-6.6495,-6.7095,-4.0671,-4.1534,-4.2508,-4.2571,-4.3068,-4.3611,-4.3981,-4.4226,-4.4347,-4.4198,0.0,-4.4075,-4.3838,-4.4401,-4.5129,-4.565,0.0,-4.7418,-4.9241,-4.9776,-5.0588,-5.2154,-5.259,-5.2868,-5.3085,-5.317,-5.3254,-5.3459,-5.3794,-5.4,-5.4055,-5.4091,-5.4146,-5.4308,-5.4375,-5.4571,-5.4971,-5.5121,-5.5288,-5.548,-5.5618,-5.5724,-5.5844,-5.7718,-5.8566,-5.8663,-6.0491,-6.1261,-6.1261,-6.1291,-6.1287,-6.1302,-6.1356,-6.1913,-6.2691,-6.2867,-6.393,-6.5291,-6.5406,-6.5936,-6.6572,-6.6575,-6.6588,-6.6588,-6.6588,-6.6588,-6.6588,-6.6586,-6.6606,-6.6572,-6.6524,-6.6508,-6.6508,-6.6508,-6.6508,-6.6508,-6.6508,-6.6508,-6.6474,-6.6406,-6.6392,-6.6378,-6.6322,-6.6245,-6.6205,-6.6205,-6.6205,-6.6205,-6.6205,-6.6205,-6.6165,-6.6102,-6.6036,-6.6009,-6.5996,-6.5947,-6.5897,-6.5897,-6.5897,-6.5897,-6.5897,-6.5897,-6.5897,-6.5897,-6.5897,-6.593,-6.5974,-6.5827,-6.6193,-6.6968,-6.7011,-6.7821,-4.0899,-4.1377,-4.1916,-4.2429,-4.2867,-4.3295,-4.3611,-4.3669,0.0,0.0,-4.3477,-4.337,-4.3331,-4.3724,-4.4355,-4.51,-4.5592,-4.6461,-4.8204,-4.9095,-5.0034,0.0,-5.2082,-5.2599,-5.2698,-5.2893,0.0,0.0,-5.3359,-5.3542,-5.3851,-5.4018,-5.4146,-5.4308,-5.4424,-5.4622,-5.4829,-5.5066,-5.5255,-5.5333,-5.5573,-5.5703,-5.5782,-5.7601,-5.8432,-5.8529,-6.0345,0.0,-6.1136,-6.1261,-6.1294,-6.1294,-6.131,-6.1814,-6.2629,-6.3363,-6.4275,-6.5245,-6.5946,-6.6295,-6.6428,-6.6508,-6.6524,-6.6524,-6.6524,-6.6524,-6.6524,-6.6524,-6.6524,-6.6524,-6.6508,-6.6508,-6.6508,-6.6508,-6.6508,-6.6508,-6.6508,-6.6508,-6.6474,-6.6406,-6.6392,-6.6378,-6.6322,-6.6245,-6.6205,-6.6205,-6.6205,-6.6205,-6.6205,-6.6205,-6.6144,-6.6036,-6.6013,-6.5986,-6.5923,-6.5897,-6.5897,-6.5897,-6.5897,-6.5897,-6.5897,-6.5897,-6.5897,-6.5897,-6.5897,-6.6224,-6.6852,-6.6737,-6.7122,-6.7956,-6.8495,-6.891,-4.0662,-4.1122,-4.1522,-4.198,-4.2492,-4.2831,-4.2758,0.0,0.0,0.0,-4.2192,-4.2141,-4.1995,-4.251,0.0,-4.3705,-4.4677,-4.58,-4.7128,-4.8473,-4.9633,-5.0677,-5.1598,-5.2246,-5.2444,-5.2536,-5.2717,-5.2893,-5.2962,-5.3235,-5.36,-5.3832,-5.3944,-5.4055,-5.4321,-5.4538,-5.4698,-5.4941,-5.5121,-5.5307,-5.5432,-5.5527,-5.5634,-5.6992,-5.7904,-5.8406,-5.9743,-6.0615,-6.106,-6.1118,-6.1173,-6.1191,-6.1227,-6.2037,-6.3236,-6.3643,-6.4632,-6.5834,-6.6241,-6.6396,-6.6413,-6.6428,-6.6445,-6.6445,-6.6445,-6.6445,-6.6445,-6.6445,-6.6445,-6.6445,-6.6445,-6.6461,-6.6458,-6.6458,-6.6458,-6.6458,-6.6458,-6.6461,-6.6428,-6.6357,-6.6358,-6.6322,-6.6264,-6.6225,-6.6205,-6.6205,-6.6205,-6.6205,-6.6205,-6.6184,-6.6102,-6.6013,-6.6009,-6.5958,-6.5897,-6.5897,-6.5897,-6.5897,-6.5897,-6.5897,-6.5897,-6.5897,-6.5897,-6.5897,-6.6301,-6.6699,-6.7057,-6.7409,-6.7975,-6.8789,-6.9068,-6.9425,-4.0246,-4.0715,-4.1107,-4.1456,-4.1869,-4.2183,-4.1966,-4.1963,0.0,-4.0975,-4.0745,-4.0646,-4.0336,0.0,-4.1657,0.0,-4.3535,-4.4904,-4.6015,-4.7515,-4.8862,-4.9791,-5.0901,0.0,-5.1862,-5.2072,0.0,-5.2472,-5.2608,-5.2919,-5.344,-5.36,-5.3736,-5.3813,-5.4127,-5.4371,-5.4552,-5.4761,-5.4971,-5.5203,-5.5255,-5.5333,-5.5476,-5.641,-5.7363,-5.8293,-5.9169,-6.0082,-6.0955,-6.098,-6.1021,-6.1061,-6.1118,-6.2218,-6.3745,-6.3745,-6.483,-6.6322,-6.6322,-6.6322,-6.6322,-6.6322,-6.634,-6.6396,-6.6396,-6.6396,-6.6396,-6.6396,-6.6396,-6.6396,-6.6396,-6.6411,-6.6448,-6.6622,-6.6661,-6.6719,-6.6894,-6.6937,-6.692,-6.6864,-6.669,-6.6555,-6.6475,-6.6321,-6.6184,-6.6184,-6.6184,-6.6163,-6.6163,-6.6121,-6.6055,-6.6009,-6.5982,-6.5972,-6.5897,-6.5897,-6.5897,-6.5897,-6.5897,-6.5897,-6.5897,-6.5897,-6.5974,-6.6147,-6.6756,-6.723,-6.756,-6.8148,-6.8827,-6.959,-6.9496,-6.9807,-3.961,-4.0021,-4.0493,-4.1174,-4.1179,-4.1071,-4.152,0.0,-4.0172,-3.9574,-3.931,-3.902,-3.8306,0.0,0.0,0.0,0.0,-4.3219,-4.4813,-4.5923,-4.6896,-4.777,0.0,0.0,-5.0503,-5.1379,-5.2005,-5.2132,-5.2333,-5.268,-5.3277,-5.3359,-5.3481,-5.3813,-5.3889,-5.4108,-5.4424,-5.4616,-5.4803,-5.4931,-5.5121,-5.5229,-5.5275,-5.6263,-5.7194,-5.8075,-5.901,-5.9922,0.0,-6.0869,-6.0914,-6.0933,-6.0997,-6.2041,-6.3527,-6.3527,-6.4588,-6.6036,-6.6036,-6.6036,-6.6036,-6.6036,-6.6205,-6.6396,-6.6396,-6.6396,-6.6396,-6.6396,-6.6396,-6.6396,-6.6396,-6.6413,-6.6588,-6.7307,-6.7481,-6.7714,-6.8489,-6.8664,-6.8645,-6.8568,-6.7987,-6.7464,-6.7384,-6.6666,-6.6102,-6.6102,-6.6058,-6.6013,-6.6013,-6.6005,-6.602,-6.6001,-6.5996,-6.5972,-6.5897,-6.5897,-6.5897,-6.5897,-6.5897,-6.5897,-6.5897,-6.5897,-6.6244,-6.6974,-6.6992,-6.7771,-6.9269,-6.9221,-6.9628,-7.0489,-7.0356,-7.0342,-3.8943,-3.9436,-3.9864,-4.0493,-4.0591,-4.0499,-4.0448,0.0,-3.8979,-3.8529,-3.8168,-3.7869,-3.7905,-3.8299,0.0,0.0,0.0,0.0,-4.3638,-4.5105,-4.6353,-4.7241,-4.8498,-4.948,0.0,0.0,-5.1073,-5.1672,-5.1871,-5.2144,-5.2581,-5.285,-5.3151,-5.3418,-5.3602,-5.3833,-5.4108,-5.4386,-5.4603,-5.4711,-5.4882,-5.5,-5.5085,-5.5511,-5.6461,-5.784,-5.82,-5.9197,0.0,-6.0655,-6.0704,-6.0777,-6.0823,-6.189,-6.3441,-6.3441,-6.4521,-6.6013,-6.6013,-6.6013,-6.6013,-6.6013,-6.608,-6.6144,-6.6144,-6.6205,-6.6225,-6.6225,-6.6245,-6.6264,-6.6264,-6.6709,-6.7193,-6.752,-6.7967,-6.8414,-6.8762,-6.8839,-6.8819,-6.8736,-6.8485,-6.8058,-6.747,-6.7062,-6.6634,-6.6113,-6.6013,-6.6013,-6.6013,-6.6005,-6.5996,-6.5996,-6.5972,-6.5923,-6.5897,-6.5897,-6.5897,-6.5897,-6.5897,-6.5897,-6.5897,-6.6359,-6.6737,-6.7011,-6.7983,-6.8791,-6.9374,-6.985,-7.0228,-7.047,-7.0419,-7.04,-3.8144,-3.8708,-3.9175,-3.9551,-3.9677,-3.9607,0.0,0.0,-3.7745,-3.7383,-3.6995,-3.6788,-3.6961,-3.7334,-3.7882,0.0,0.0,-4.0982,-4.2496,-4.4075,-4.537,-4.6255,0.0,-4.8364,-4.8976,-4.9607,-5.031,-5.121,-5.1436,-5.1589,-5.1822,-5.2239,-5.2672,-5.3085,-5.3341,-5.3602,-5.3814,-5.4108,-5.4371,-5.4552,-5.4654,-5.478,-5.4912,-5.4912,-5.5778,-5.7225,-5.752,-5.8539,0.0,-6.0283,-6.048,-6.061,-6.0635,-6.1747,-6.3301,-6.3301,-6.4383,-6.5876,-6.5876,-6.5876,-6.5876,-6.5876,-6.5876,-6.5876,-6.5876,-6.5971,-6.608,-6.608,-6.6102,-6.6144,-6.6144,-6.6822,-6.7579,-6.7832,-6.8548,-6.9183,-6.9435,-6.9491,-6.9466,-6.9421,-6.9228,-6.8838,-6.8173,-6.761,-6.7046,-6.6429,-6.614,-6.5962,-6.5962,-6.5977,-6.5972,-6.5972,-6.5923,-6.5872,-6.5897,-6.5897,-6.5897,-6.5897,-6.5872,-6.5987,-6.6218,-6.6749,-6.7261,-6.7697,-6.8848,-6.9538,-6.9685,-7.0267,-7.0503,-7.04,-7.04,-7.04,-3.721,-3.7915,-3.8266,-3.8415,-3.8341,-3.8223,0.0,0.0,-3.6525,-3.6114,-3.5896,-3.563,-3.5048,-3.5941,-3.7026,-3.7818,-3.8755,-3.9904,-4.1441,-4.2532,-4.3525,0.0,-4.5892,-4.7004,-4.7004,-4.8522,-4.9888,-5.075,-5.0963,0.0,-5.121,-5.1521,-5.2066,-5.2761,-5.3085,-5.3318,-5.3584,-5.3776,-5.4072,-5.439,-5.4472,-5.4571,-5.4723,-5.4767,-5.5264,-5.6171,-5.7097,-5.8041,0.0,-5.9864,-6.0294,-6.0417,-6.0472,-6.1586,-6.3096,-6.3096,-6.417,-6.5608,-6.5608,-6.5608,-6.5608,-6.5608,-6.5608,-6.5608,-6.5608,-6.5776,-6.6013,-6.6013,-6.6013,-6.6013,-6.6013,-6.665,-6.7518,-6.8386,-6.9254,-7.0122,-7.0893,-7.1086,-7.1086,-7.1086,-7.0431,-6.989,-6.9871,-6.8396,-6.721,-6.7191,-6.6448,-6.5897,-6.5897,-6.5897,-6.5897,-6.5897,-6.5846,-6.582,-6.5897,-6.5897,-6.5897,-6.5897,-6.5846,-6.6158,-6.6965,-6.6921,-6.7678,-6.9346,-6.9314,-6.9724,-7.0604,-7.0451,-7.04,-7.04,-7.04,-7.04,-3.5294,-3.5864,-3.6313,-3.6835,-3.6936,-3.702,-3.7379,0.0,0.0,-3.5657,-3.5057,-3.4577,-3.474,-3.5177,-3.598,-3.7381,-3.8075,-3.9067,-4.1036,-4.2194,0.0,-4.394,-4.5507,-4.6581,0.0,0.0,-4.9316,-4.9614,-5.023,-5.0675,-5.0803,-5.1052,-5.1569,-5.2361,-5.2635,-5.2962,-5.3318,-5.3563,-5.3795,-5.3981,-5.4163,-5.4303,-5.451,-5.451,-5.5042,-5.6002,-5.6846,-5.7743,-5.8691,-5.9621,-6.0045,-6.0118,-6.0207,-6.0952,-6.207,-6.272,-6.3714,-6.4804,-6.5388,-6.5608,-6.5608,-6.5608,-6.5608,-6.5608,-6.5608,-6.5724,-6.5876,-6.5971,-6.6013,-6.6013,-6.6013,-6.7093,-6.827,-6.854,-6.9697,-7.0797,-7.1048,-7.1106,-7.1081,-7.103,-7.0818,-7.0427,-6.9744,-6.916,-6.8575,-6.7983,-6.7648,-6.7255,-6.6669,-6.6592,-6.6381,-6.5759,-6.5682,-6.5701,-6.582,-6.5755,-6.5682,-6.5682,-6.6238,-6.6671,-6.6921,-6.8004,-6.8838,-6.9314,-6.9896,-7.0286,-7.0451,-7.0419,-7.0386,-7.0319,-7.027,-7.0236,0.0,-3.454,-3.498,-3.5396,-3.5744,0.0,0.0,0.0,0.0,0.0,0.0,-3.3899,-3.4399,-3.4643,-3.5379,-3.7086,-3.7565,-3.8451,-4.0442,-4.1748,0.0,-4.4175,-4.5206,0.0,0.0,-4.7351,-4.8079,-4.839,-4.921,-4.9777,-4.9928,-5.0519,-5.114,-5.175,-5.2185,-5.2635,-5.3042,-5.3318,-5.3542,-5.3794,-5.3907,-5.4091,-5.4287,-5.4287,-5.4672,-5.5404,-5.6534,-5.7375,0.0,-5.928,-5.9853,-5.9899,-5.9994,-6.0601,-6.1549,-6.2448,-6.3348,-6.4267,-6.5138,-6.5454,-6.5454,-6.5454,-6.5484,-6.5484,-6.5513,-6.5635,-6.575,-6.5846,-6.5851,-6.587,-6.5914,-6.7185,-6.85,-6.8525,-6.9797,-7.103,-7.103,-7.103,-7.1005,-7.0925,-7.0925,-7.0725,-7.0067,-6.9673,-6.9289,-6.8733,-6.8388,-6.8004,-6.7468,-6.7391,-6.718,-6.6643,-6.6538,-6.6538,-6.6633,-6.6298,-6.6087,-6.6087,-6.6864,-6.7448,-6.7774,-6.8759,-6.9437,-6.9699,-7.0235,-7.047,-7.04,-7.0367,-7.0338,-7.0236,-7.022,-7.0204,0.0,0.0,0.0,0.0,0.0,0.0,0.0,0.0,0.0,0.0,0.0,0.0,-3.4,-3.4448,-3.5235,-3.6837,-3.7369,-3.8103,-3.9648,-4.1268,0.0,0.0,-4.4978,0.0,-4.5935,-4.6054,-4.6379,-4.717,-4.802,-4.8547,-4.87,-4.9768,-5.0519,-5.077,-5.1643,-5.2289,-5.2761,-5.3042,-5.3378,-5.3774,-5.3774,-5.387,-5.4091,-5.4091,-5.4217,0.0,-5.6138,-5.6939,-5.7186,-5.8883,-5.9631,-5.9681,-5.982,-6.0411,-6.1305,-6.2167,-6.3036,-6.3924,-6.4799,-6.5142,-6.518,-6.518,-6.5245,-6.529,-6.5383,-6.5465,-6.558,-6.5608,-6.5608,-6.5627,-6.5747,-6.6984,-6.8241,-6.8371,-6.9602,-7.0794,-7.0852,-7.0871,-7.0871,-7.0787,-7.0787,-7.0777,-7.0688,-7.0037,-6.95,-6.9451,-6.8838,-6.8339,-6.8282,-6.8263,-6.8244,-6.8186,-6.807,-6.799,-6.799,-6.7371,-6.696,-6.696,-6.7667,-6.843,-6.9264,-6.9285,-6.9636,-7.04,-7.0419,-7.0386,-7.0386,-7.0319,-7.0255,-7.0204,-7.0204,-7.0168,0.0,0.0,0.0,0.0,0.0,0.0,0.0,0.0,0.0,0.0,0.0,0.0,0.0,-3.4503,-3.5475,-3.6734,-3.7549,-3.8384,-3.9473,-4.1057,0.0,-4.4294,-4.4609,-4.4749,-4.4919,-4.5541,-4.6005,-4.6232,-4.7062,-4.7677,-4.7808,-4.8169,-4.8568,-4.8943,-5.0024,-5.116,-5.2343,-5.2698,-5.3023,-5.3336,-5.3598,-5.3754,-5.387,-5.3982,-5.4073,-5.4256,-5.5939,-5.6724,-5.6926,-5.8651,-5.9419,-5.9564,-5.965,-5.9798,-6.0116,-6.1079,-6.1999,-6.2886,-6.3872,-6.4628,-6.518,-6.518,-6.5213,-6.5213,-6.5245,-6.5364,-6.5523,-6.558,-6.5608,-6.5608,-6.5655,-6.6441,-6.74,-6.8081,-6.9021,-6.9942,-7.0594,-7.0748,-7.0748,-7.0718,-7.0718,-7.0688,-7.0635,-7.0463,-7.0279,-7.0178,-7.0005,-6.9661,-6.9049,-6.8973,-6.8705,-6.8036,-6.7928,-6.7928,-6.7928,-6.7768,-6.7653,-6.7653,-6.8444,-6.9018,-6.9228,-6.9788,-7.0209,-7.04,-7.0353,-7.0305,-7.0255,-7.013,-7.0076,-7.0058,-6.9985,-6.9967,0.0,0.0,-3.1347,-3.2009,-3.2489,-3.3129,0.0,0.0,0.0,0.0,0.0,0.0,0.0,0.0,-3.536,-3.6509,-3.7508,-3.8676,-4.03,-4.1385,-4.2551,-4.4028,-4.427,-4.44,0.0,-4.4794,-4.5071,-4.5185,-4.5953,-4.655,-4.6737,-4.7271,-4.7775,-4.81,-4.9011,-5.0151,-5.1567,-5.2318,-5.2893,-5.3212,-5.3437,-5.3598,-5.3754,-5.385,-5.3944,-5.413,-5.579,-5.6575,-5.6762,-5.8484,-5.9234,-5.9383,-5.9438,-5.9491,-5.9694,-6.0645,-6.1546,-6.2397,-6.3353,-6.4256,-6.4974,-6.5027,-6.5061,-6.5095,-6.5095,-6.5226,-6.5364,-6.5454,-6.5454,-6.5484,-6.5523,-6.6203,-6.6969,-6.7487,-6.8522,-6.9538,-6.9998,-7.042,-7.0688,-7.0647,-7.0647,-7.0616,-7.0522,-7.0522,-7.047,-7.0419,-7.04,-7.0247,-6.9807,-6.9718,-6.9513,-6.9036,-6.8965,-6.8951,-6.8951,-6.8951,-6.8812,-6.8425,-6.9194,-6.9656,-6.9656,-7.0076,-7.0305,-7.0305,-7.027,-7.022,-7.0095,-7.0039,-6.9966,-6.9948,-6.9929,-6.9891,-2.9417,-3.0272,-3.1018,-3.1716,-3.2082,-3.2561,-3.3353,0.0,0.0,0.0,0.0,0.0,0.0,-3.4302,0.0,-3.6425,-3.7462,-3.895,-4.1178,-4.1727,-4.2351,-4.3722,-4.403,0.0,-4.4155,-4.4155,-4.4212,-4.431,-4.4899,-4.5426,-4.5767,-4.6644,-4.7283,-4.7592,-4.8154,-4.9132,-5.0455,-5.1728,-5.2634,-5.3127,-5.3235,-5.3418,-5.3656,-5.3714,-5.3811,-5.4038,0.0,0.0,-5.6686,-5.8331,-5.9061,-5.9177,-5.9234,-5.9365,-5.9551,-6.0374,-6.1295,-6.2238,-6.3238,-6.4086,-6.4707,-6.4817,-6.4888,-6.4939,-6.4955,-6.5042,-6.5147,-6.5226,-6.5277,-6.529,-6.5425,-6.602,-6.6613,-6.6816,-6.8052,-6.9221,-6.9355,-7.0045,-7.0628,-7.0573,-7.0541,-7.049,-7.0386,-7.0386,-7.0386,-7.0386,-7.0386,-7.0386,-7.0386,-7.0338,-7.027,-7.027,-7.022,-7.0204,-7.0204,-7.0185,-6.9861,-6.9222,-6.9801,-7.0204,-7.0204,-7.0204,-7.0204,-7.0149,-7.0149,-7.0114,-6.9966,-6.9966,-6.9948,-6.9891,-6.9891,-6.9891,-2.8716,-2.9658,-3.0665,-3.1476,-3.1817,-3.2169,-3.2917,0.0,0.0,0.0,0.0,0.0,0.0,-3.5543,-3.6502,0.0,0.0,-3.9259,0.0,0.0,-4.2055,-4.2906,0.0,-4.4253,-4.4253,-4.444,-4.4514,-4.457,-4.4671,-4.4834,-4.5094,-4.5306,-4.5591,-4.6117,-4.707,-4.7908,-4.8626,-5.0433,-5.1864,-5.285,-5.3085,-5.3336,-5.3539,-5.3656,-5.3734,-5.3944,0.0,-5.6362,-5.6572,-5.825,-5.8961,-5.9042,-5.9177,-5.9234,-5.9272,-5.9607,-6.0696,-6.2259,-6.3842,-6.4483,-6.4634,-6.4634,-6.4671,-6.4652,-6.4743,-6.4779,-6.4815,-6.5008,-6.5128,-6.5213,-6.5245,-6.5404,-6.5684,-6.6402,-6.7362,-6.8311,-6.9056,-6.9813,-7.0372,-7.0338,-7.0289,-7.0255,-7.022,-7.022,-7.022,-7.022,-7.022,-7.022,-7.022,-7.022,-7.0239,-7.0239,-7.0204,-7.0204,-7.0204,-7.0095,-6.9982,-6.9849,-7.0073,-7.0204,-7.0204,-7.0204,-7.0149,-7.0039,-7.0039,-6.9985,-6.9929,-6.9929,-6.9929,-6.9891,-6.9891,-6.9891,-2.8797,-2.9345,-3.0041,-3.1236,-3.1721,-3.2023,-3.2704,0.0,0.0,0.0,0.0,0.0,0.0,0.0,-3.6844,-3.7919,0.0,-3.9341,-4.0266,-4.1161,-4.1949,0.0,0.0,-4.4196,-4.4196,-4.427,-4.4327,-4.444,-4.444,-4.4553,-4.4886,-4.4978,-4.5194,-4.5649,-4.6405,-4.7236,-4.8175,-4.9629,-5.095,-5.2167,-5.2779,-5.3212,-5.34,-5.3539,-5.3637,-5.3847,0.0,-5.6341,-5.6474,-5.8129,-5.884,-5.8942,-5.9001,-5.908,-5.9176,-5.9759,-6.0811,-6.2071,-6.3389,-6.4143,-6.4501,-6.4596,-6.4596,-6.4596,-6.4652,-6.4652,-6.4689,-6.4762,-6.4939,-6.5095,-6.518,-6.5213,-6.534,-6.5702,-6.6821,-6.7902,-6.8302,-6.9375,-7.0255,-7.0255,-7.022,-7.0204,-7.0204,-7.0204,-7.0204,-7.0204,-7.0204,-7.0204,-7.0204,-7.0149,-7.0095,-7.0095,-7.0077,-7.0041,-7.0041,-6.9891,-6.9854,-6.9948,-7.0004,-7.0041,-7.0041,-7.0041,-7.0004,-6.9948,-6.9948,-6.991,-6.9891,-6.9891,-6.9891,-6.9891,-6.9891,-6.9891,-2.9011,-2.9307,-2.9699,-3.087,0.0,-3.1992,-3.2605,0.0,0.0,0.0,0.0,0.0,0.0,-3.5915,0.0,-3.8541,-3.886,-3.9221,-4.0088,-4.1061,-4.1938,-4.2522,-4.3487,-4.4155,-4.4155,-4.4212,-4.427,-4.4367,-4.4423,-4.4536,-4.4831,-4.4978,-4.5283,-4.5649,-4.6038,-4.6777,-4.789,-4.907,-5.0317,-5.1602,-5.251,-5.3066,-5.33,-5.344,-5.3558,-5.3788,-5.5334,-5.6116,-5.6413,-5.7843,-5.8591,-5.8859,-5.8899,-5.8961,-5.9136,-6.0016,-6.0977,-6.1919,-6.2841,-6.3689,-6.4385,-6.452,-6.452,-6.452,-6.4558,-6.4539,-6.4558,-6.4596,-6.4762,-6.4939,-6.5027,-6.5061,-6.5061,-6.5061,-6.6387,-6.7604,-6.7604,-6.8916,-7.0077,-7.0077,-7.0077,-7.0077,-7.0077,-7.0114,-7.0114,-7.0114,-7.0114,-7.0114,-7.0114,-7.0022,-6.9929,-6.9929,-6.9873,-6.9815,-6.9815,-6.9718,-6.9718,-6.9815,-6.9815,-6.9815,-6.9815,-6.9815,-6.9815,-6.9815,-6.9815,-6.9853,-6.9834,-6.9834,-6.9891,-6.9891,-6.9891,-6.9891,-2.9013,-2.9504,-2.9959,-3.0107,-3.0801,0.0,-3.2792,-3.3297,0.0,-3.4221,0.0,0.0,0.0,-3.716,-3.7969,-3.8511,-3.875,-3.9002,-3.9515,0.0,-4.1755,-4.1933,-4.3339,-4.431,-4.431,-4.444,-4.457,-4.457,-4.4665,-4.4831,-4.4978,-4.523,-4.5494,-4.577,-4.6204,-4.6607,-4.7069,-4.8801,-5.0317,-5.1602,-5.2423,-5.298,-5.33,-5.344,-5.3558,-5.3751,-5.4702,-5.5559,-5.6376,-5.723,-5.8029,-5.8716,-5.8859,-5.8961,-5.9097,-5.9956,-6.0895,-6.1839,-6.2644,-6.3509,-6.4324,-6.4324,-6.4324,-6.4324,-6.4385,-6.4405,-6.4463,-6.4558,-6.4596,-6.4634,-6.4634,-6.4689,-6.4743,-6.4743,-6.6065,-6.7314,-6.7314,-6.8622,-6.9738,-6.9738,-6.9738,-6.9738,-6.9738,-6.9834,-6.9929,-6.9929,-6.9929,-6.9929,-6.9929,-6.9777,-6.9738,-6.9738,-6.9638,-6.9617,-6.9617,-6.9617,-6.9617,-6.9636,-6.9617,-6.9617,-6.9617,-6.9617,-6.9617,-6.9617,-6.9617,-6.9657,-6.9699,-6.9699,-6.9796,-6.9891,-6.9891,-6.9891,-2.9414,-2.968,-3.0024,-3.0495,0.0,0.0,0.0,-3.3114,-3.3813,-3.4414,-3.5037,0.0,0.0,0.0,-3.8033,-3.8528,-3.8694,-3.8969,-3.9432,-4.0475,-4.1368,-4.2038,-4.3179,-4.4156,-4.4652,-4.4814,-4.4831,-4.4831,-4.4886,-4.4978,-4.514,-4.5283,-4.5546,-4.577,-4.6204,-4.659,-4.6998,-4.8281,-4.9603,-5.0854,-5.2186,-5.2955,-5.323,-5.3318,-5.34,-5.3514,-5.4489,-5.5384,-5.624,-5.7115,-5.7973,-5.8716,-5.8758,-5.884,-5.8958,-5.9294,-6.0326,-6.1625,-6.1943,-6.2915,-6.4061,-6.4061,-6.4061,-6.4061,-6.4083,-6.4083,-6.4083,-6.4166,-6.4166,-6.4206,-6.4501,-6.4634,-6.4652,-6.4652,-6.5937,-6.7184,-6.7184,-6.8467,-6.9657,-6.9657,-6.9657,-6.9657,-6.9657,-6.9697,-6.9697,-6.9697,-6.9697,-6.9697,-6.9697,-6.9657,-6.9657,-6.9657,-6.9617,-6.9577,-6.9476,-6.9495,-6.9434,-6.935,-6.9495,-6.9596,-6.9596,-6.9596,-6.9596,-6.9596,-6.9596,-6.9617,-6.9657,-6.9657,-6.9638,-6.9697,-6.9697,-6.9737,-2.9836,-3.0068,-3.0168,0.0,0.0,0.0,-3.2393,-3.3132,-3.4005,-3.4563,-3.5249,0.0,-3.6997,0.0,0.0,0.0,-3.875,-3.9023,-3.9484,-4.033,-4.118,-4.1933,-4.3059,-4.3983,-4.4585,-4.4841,-4.4978,-4.4978,-4.5032,-4.514,-4.523,-4.5441,-4.5649,-4.5922,-4.6301,-4.6637,-4.7043,-4.8039,-4.9125,-5.0375,-5.1784,-5.2699,-5.3206,-5.3295,-5.33,-5.3336,-5.4131,-5.5062,-5.608,-5.6737,-5.765,-5.8656,-5.8656,-5.8716,-5.8859,-5.8859,-5.9756,-6.1091,-6.1353,-6.2342,-6.3579,-6.3841,-6.3915,-6.3915,-6.3915,-6.3915,-6.3915,-6.3915,-6.3915,-6.3958,-6.4306,-6.4385,-6.4385,-6.4385,-6.5476,-6.6567,-6.683,-6.7977,-6.9049,-6.9332,-6.9453,-6.9476,-6.9476,-6.9536,-6.9596,-6.9596,-6.9596,-6.9596,-6.9596,-6.9577,-6.9536,-6.9495,-6.9495,-6.9434,-6.9308,-6.9289,-6.9222,-6.9091,-6.9284,-6.9411,-6.9495,-6.9495,-6.9495,-6.9495,-6.9495,-6.9495,-6.9536,-6.9536,-6.9536,-6.9596,-6.9596,-6.9617,-3.0393,-3.0628,0.0,0.0,0.0,0.0,-3.2483,-3.3485,-3.4481,-3.4698,-3.5668,-3.6662,-3.7134,-3.7567,0.0,-3.8528,-3.8805,-3.9185,-3.9625,-4.0575,-4.1239,-4.1393,-4.2893,-4.3885,-4.3885,-4.4551,-4.4978,-4.4978,-4.514,-4.5283,-4.5372,-4.5667,-4.5905,-4.6186,-4.6447,-4.6778,-4.7196,-4.8066,-4.9081,-5.0301,-5.1176,-5.2169,-5.3206,-5.3295,-5.33,-5.3318,-5.344,-5.4423,-5.59,-5.5918,-5.6921,-5.8511,-5.8511,-5.8553,-5.8716,-5.8716,-5.9301,-6.0203,-6.1023,-6.1927,-6.2851,-6.3611,-6.3873,-6.3873,-6.3873,-6.3873,-6.3873,-6.3873,-6.3873,-6.3873,-6.3873,-6.3873,-6.3873,-6.3915,-6.4569,-6.541,-6.6213,-6.7035,-6.7875,-6.8734,-6.9046,-6.9184,-6.9184,-6.9434,-6.9577,-6.9577,-6.9577,-6.9577,-6.9577,-6.9495,-6.935,-6.9222,-6.9222,-6.916,-6.9009,-6.9027,-6.8956,-6.8902,-6.8902,-6.8975,-6.9178,-6.9222,-6.9222,-6.9222,-6.9222,-6.9246,-6.9393,-6.9393,-6.9476,-6.9596,-6.9596,-6.9596,-3.0893,0.0,0.0,-3.1603,0.0,0.0,0.0,-3.4003,0.0,0.0,-3.6163,-3.6769,-3.7238,-3.7711,0.0,-3.8528,-3.8914,-3.9379,-3.9798,-4.0172,-4.0764,-4.1577,-4.2637,-4.3563,-4.4234,-4.4906,-4.5318,-4.5406,-4.5459,-4.5511,-4.5563,-4.577,-4.6023,-4.6186,-4.6447,-4.6778,-4.7196,-4.7509,-4.8251,-4.9465,-5.0338,-5.156,-5.3042,-5.3188,-5.323,-5.323,-5.3318,-5.3967,-5.5054,-5.6301,-5.7433,-5.8418,-5.8418,-5.8462,-5.848,-5.848,-5.9023,-5.9863,-6.0678,-6.1493,-6.2353,-6.3169,-6.3382,-6.3382,-6.3382,-6.3382,-6.3382,-6.3382,-6.3382,-6.3382,-6.3382,-6.3382,-6.3474,-6.383,-6.4569,-6.526,-6.5484,-6.6624,-6.7688,-6.795,-6.8518,-6.8975,-6.8975,-6.9065,-6.9128,-6.9128,-6.9128,-6.9128,-6.9128,-6.9065,-6.902,-6.8975,-6.8975,-6.8975,-6.8929,-6.8929,-6.8929,-6.8902,-6.8902,-6.8948,-6.8994,-6.8975,-6.8975,-6.8975,-6.9046,-6.9072,-6.9116,-6.9203,-6.9265,-6.9308,-6.9308,-6.9651,-3.1419,0.0,0.0,-3.2347,-3.2885,-3.3538,-3.446,0.0,0.0,0.0,-3.6523,-3.6937,-3.7476,-3.7943,0.0,-3.8805,-3.9164,-3.9537,-3.9935,-4.0138,-4.054,-4.1266,-4.2135,-4.3059,-4.3952,-4.4681,-4.5252,-4.5649,-4.5667,-4.5718,-4.5787,-4.5922,-4.6122,-4.6332,-4.6542,-4.6824,-4.7267,-4.7276,-4.7865,-4.9016,-4.9907,-5.111,-5.2412,-5.2975,-5.3206,-5.3225,-5.3603,-5.4209,-5.5116,-5.6466,-5.7523,-5.8305,-5.8305,-5.8349,-5.8393,-5.8393,-5.8707,-5.9279,-6.0406,-6.1108,-6.1699,-6.2844,-6.3213,-6.3213,-6.3213,-6.3213,-6.3213,-6.3213,-6.3213,-6.3213,-6.3213,-6.3213,-6.3289,-6.361,-6.4089,-6.4599,-6.4979,-6.5818,-6.6694,-6.7365,-6.797,-6.8437,-6.8754,-6.8856,-6.8902,-6.8902,-6.8902,-6.8902,-6.8902,-6.8902,-6.8902,-6.8902,-6.8902,-6.8856,-6.881,-6.881,-6.881,-6.8763,-6.8763,-6.8763,-6.8763,-6.8856,-6.8902,-6.8902,-6.8929,-6.8956,-6.8956,-6.9046,-6.9091,-6.9116,-6.9116,-6.9654,-3.1857,0.0,0.0,-3.2773,-3.3351,0.0,-3.5528,-3.5718,-3.5812,-3.6429,0.0,-3.7147,-3.7828,-3.8189,-3.8616,-3.9218,-3.9432,-3.9694,-4.0087,-4.0337,-4.0583,-4.0697,-4.1609,-4.2514,-4.3343,-4.4205,-4.502,-4.5768,-4.5821,-4.5871,-4.5972,-4.6023,-4.6221,-4.659,-4.659,-4.6824,-4.732,-4.7302,-4.7829,-4.8804,-4.9749,-5.061,-5.1427,-5.2633,-5.3164,-5.3201,-5.3977,-5.4748,-5.5537,-5.6363,-5.7216,-5.8041,-5.8115,-5.8242,-5.8349,-5.8349,-5.8349,-5.857,-6.0102,-6.0674,-6.0988,-6.2538,-6.311,-6.3165,-6.3165,-6.3165,-6.3165,-6.3165,-6.3165,-6.3165,-6.3165,-6.3165,-6.3213,-6.3354,-6.34,-6.3604,-6.4503,-6.4707,-6.5246,-6.689,-6.7356,-6.7719,-6.852,-6.8763,-6.8856,-6.8856,-6.8856,-6.8856,-6.8856,-6.8856,-6.8856,-6.8856,-6.8856,-6.881,-6.8716,-6.8668,-6.8621,-6.8524,-6.8506,-6.8506,-6.8506,-6.8716,-6.8856,-6.8856,-6.8856,-6.8856,-6.8856,-6.8902,-6.8929,-6.8983,-6.8983,-6.9578,0.0,-3.2268,0.0,0.0,-3.4219,-3.5309,-3.6276,-3.6461,-3.6523,-3.6738,-3.7042,-3.7476,-3.8148,-3.8544,-3.886,-3.9218,-3.9677,-4.0037,-4.0238,-4.0502,-4.0745,-4.1,-4.1722,-4.2562,-4.355,-4.4286,-4.507,-4.587,-4.5972,-4.5972,-4.5972,-4.6073,-4.6319,-4.659,-4.659,-4.6824,-4.732,-4.7302,-4.7497,-4.7989,-4.8914,-4.9774,-5.061,-5.2186,-5.2955,-5.306,-5.3347,-5.3922,-5.4711,-5.5519,-5.6282,-5.7024,-5.7647,-5.7839,-5.7792,-5.7792,-5.7792,-5.7938,-5.886,-5.9658,-6.0353,-6.144,-6.2223,-6.2755,-6.2855,-6.2873,-6.2873,-6.2873,-6.2873,-6.2873,-6.2873,-6.2873,-6.2904,-6.3051,-6.3147,-6.3316,-6.3623,-6.4207,-6.4967,-6.61,-6.6871,-6.7625,-6.8424,-6.8573,-6.8573,-6.8573,-6.8573,-6.8573,-6.8573,-6.8573,-6.8573,-6.8573,-6.8573,-6.8554,-6.8573,-6.8554,-6.8506,-6.8506,-6.8506,-6.8506,-6.8506,-6.8573,-6.8573,-6.8573,-6.8716,-6.8763,-6.8763,-6.8856,-6.8902,-6.8929,-6.8929,-6.976,0.0,0.0,0.0,-3.3708,0.0,-3.5823,-3.6255,-3.6718,-3.7058,-3.7238,-3.7476,-3.7828,-3.8375,-3.8472,-3.855,-3.8899,-3.9312,-3.9662,-3.981,-4.0377,-4.0793,-4.1,-4.1423,-4.2084,-4.2992,-4.3825,-4.4659,-4.5527,-4.588,-4.6073,-4.6073,-4.6172,-4.6319,-4.659,-4.659,-4.6824,-4.7249,-4.7276,-4.7407,-4.7615,-4.8955,-5.0196,-5.1375,-5.2353,-5.285,-5.2912,-5.2955,-5.3474,-5.4261,-5.5066,-5.5825,-5.6583,-5.7386,-5.7649,-5.7601,-5.7601,-5.7601,-5.771,-5.8531,-5.9333,-6.0117,-6.1039,-6.1843,-6.25,-6.257,-6.2622,-6.2622,-6.2622,-6.2622,-6.2622,-6.2622,-6.2654,-6.2705,-6.2805,-6.2953,-6.3147,-6.326,-6.3622,-6.4177,-6.5123,-6.5957,-6.679,-6.7586,-6.8049,-6.8309,-6.8309,-6.8309,-6.8309,-6.8309,-6.8309,-6.8309,-6.8309,-6.8309,-6.8309,-6.8309,-6.8309,-6.8309,-6.8309,-6.8309,-6.8309,-6.8309,-6.8309,-6.8358,-6.8524,-6.8554,-6.8602,-6.8602,-6.8668,-6.8763,-6.881,-6.881,-6.951,0.0,0.0,-3.3519,-3.4076,-3.5061,0.0,-3.5896,-3.6542,-3.7186,-3.7393,-3.7742,-3.8084,-3.8404,-3.8278,-3.8199,-3.8422,-3.8704,-3.8982,-3.9358,-4.0048,-4.0638,-4.0918,-4.1088,-4.1574,-4.2544,-4.3395,-4.4243,-4.522,-4.587,-4.6172,-4.6172,-4.6221,-4.6368,-4.659,-4.6637,-4.6842,-4.7196,-4.7249,-4.7435,-4.7684,-4.9422,-5.095,-5.2235,-5.2527,-5.2717,-5.2761,-5.2806,-5.3188,-5.3863,-5.4811,-5.5595,-5.627,-5.7188,-5.7553,-5.7553,-5.7553,-5.7553,-5.7644,-5.8318,-5.9156,-6.0049,-6.0723,-6.1597,-6.2362,-6.2415,-6.2415,-6.2415,-6.2415,-6.2415,-6.2415,-6.2415,-6.2449,-6.2552,-6.2552,-6.2737,-6.2953,-6.3099,-6.3165,-6.3405,-6.4247,-6.5226,-6.6149,-6.6962,-6.7645,-6.8088,-6.8088,-6.8088,-6.8088,-6.8088,-6.8088,-6.8088,-6.8088,-6.8088,-6.8088,-6.8088,-6.8088,-6.8088,-6.8088,-6.8088,-6.8088,-6.8088,-6.8088,-6.819,-6.8408,-6.8457,-6.8475,-6.8506,-6.8506,-6.8573,-6.8668,-6.8668,-6.9192,0.0,0.0,-3.3187,0.0,-3.4825,-3.502,0.0,0.0,-3.6094,0.0,-3.7406,-3.8237,-3.804,-3.8127,-3.817,-3.79,-3.8102,-3.8559,-3.9289,-3.9679,-4.0158,-4.096,-4.1093,-4.1725,-4.3371,-4.3645,-4.4358,-4.5926,-4.6119,-4.6172,-4.6172,-4.6301,-4.6429,-4.659,-4.6731,-4.6888,-4.7196,-4.7223,-4.7608,-4.838,-5.0027,-5.0908,-5.1124,-5.1856,-5.2351,-5.2635,-5.2761,-5.2878,-5.3079,-5.4592,-5.5221,-5.5316,-5.6855,-5.7356,-5.7239,-5.7239,-5.7239,-5.7257,-5.7365,-5.8399,-5.9667,-5.9914,-6.102,-6.2257,-6.2362,-6.2415,-6.2415,-6.2415,-6.2415,-6.2415,-6.2415,-6.2415,-6.2415,-6.2415,-6.2552,-6.2705,-6.2953,-6.3051,-6.329,-6.4199,-6.5669,-6.698,-6.7793,-6.8014,-6.8088,-6.8088,-6.8088,-6.8088,-6.8088,-6.8088,-6.8088,-6.8088,-6.8088,-6.8088,-6.8088,-6.8088,-6.8088,-6.8088,-6.8088,-6.8088,-6.8088,-6.8088,-6.8139,-6.8139,-6.8259,-6.8358,-6.8506,-6.8506,-6.8506,-6.8524,-6.8524,-6.903,-3.1912,-3.2305,-3.2883,0.0,-3.4295,-3.4626,-3.5161,-3.5734,-3.6131,-3.6185,-3.6918,-3.7527,-3.7428,-3.7302,-3.7184,-3.7059,-3.7293,-3.7797,-3.8547,-3.9225,-3.9962,-4.0754,-4.1,-4.1556,-4.2745,-4.3358,-4.417,-4.5355,-4.5944,-4.6172,-4.6172,-4.635,-4.6447,-4.659,-4.6731,-4.6888,-4.7088,-4.7133,-4.7833,-4.9189,-5.0358,-5.1131,-5.1581,-5.194,-5.218,-5.2304,-5.2397,-5.2669,-5.3175,-5.4297,-5.4972,-5.5446,-5.6602,-5.7054,-5.7003,-5.7003,-5.7003,-5.7003,-5.7003,-5.776,-5.8807,-5.9293,-6.0268,-6.1299,-6.1806,-6.2005,-6.206,-6.206,-6.2114,-6.2168,-6.2168,-6.2203,-6.231,-6.231,-6.2415,-6.25,-6.2654,-6.2755,-6.329,-6.4646,-6.5474,-6.6427,-6.7679,-6.7881,-6.7881,-6.7881,-6.7881,-6.7881,-6.7881,-6.7881,-6.7881,-6.7881,-6.7881,-6.7881,-6.7881,-6.7881,-6.7881,-6.7881,-6.7881,-6.7881,-6.7881,-6.7881,-6.7881,-6.7985,-6.8139,-6.8208,-6.8309,-6.8309,-6.829,-6.8358,-6.8358,-6.8643,0.0,0.0,-3.2479,-3.3083,-3.3532,-3.3974,0.0,0.0,-3.5684,0.0,-3.6118,-3.6389,-3.6506,-3.6437,-3.6393,-3.6299,-3.653,-3.7007,-3.7942,-3.8772,-3.9615,-4.0528,-4.084,-4.1246,-4.2085,-4.3023,-4.3951,-4.4834,-4.5702,-4.6172,-4.6172,-4.635,-4.6495,-4.659,-4.6778,-4.6888,-4.6998,-4.7482,-4.8468,-4.9923,-5.0731,-5.1413,-5.1987,-5.1987,-5.1987,-5.2005,-5.2318,-5.2749,-5.336,-5.4313,-5.505,-5.568,-5.6489,-5.6794,-5.6794,-5.6794,-5.6794,-5.6794,-5.6794,-5.7316,-5.8125,-5.8934,-5.9725,-6.0534,-6.1343,-6.169,-6.1746,-6.1746,-6.1802,-6.1913,-6.1913,-6.2005,-6.2096,-6.2096,-6.2203,-6.2362,-6.2415,-6.257,-6.32,-6.4937,-6.5249,-6.5763,-6.7412,-6.7687,-6.7687,-6.7687,-6.7687,-6.7687,-6.7687,-6.7687,-6.7687,-6.7687,-6.7687,-6.7687,-6.7687,-6.7687,-6.7687,-6.7687,-6.7687,-6.7687,-6.7687,-6.7687,-6.7741,-6.7847,-6.7933,-6.8037,-6.8088,-6.8088,-6.8139,-6.8259,-6.8259,-6.8309,0.0,-3.2027,0.0,-3.2597,-3.2677,-3.2754,0.0,0.0,-3.3776,-3.461,-3.4806,-3.4903,-3.5157,-3.5866,-3.6209,-3.5717,-3.5779,-3.6395,-3.7874,-3.8218,-3.8828,-4.0346,-4.0534,-4.0923,-4.1905,-4.2748,-4.3675,-4.4817,-4.5586,-4.6073,-4.6172,-4.6447,-4.659,-4.659,-4.6842,-4.698,-4.6998,-4.8461,-4.962,-5.0459,-5.1244,-5.1705,-5.174,-5.174,-5.174,-5.1794,-5.2794,-5.3253,-5.3414,-5.4907,-5.5554,-5.568,-5.6489,-5.6794,-5.6794,-5.6794,-5.6794,-5.6794,-5.6794,-5.7316,-5.8125,-5.8934,-5.9725,-6.0534,-6.1343,-6.1577,-6.1633,-6.1633,-6.1633,-6.1633,-6.1633,-6.1746,-6.1802,-6.1802,-6.2005,-6.2257,-6.2362,-6.2415,-6.296,-6.4762,-6.5091,-6.5639,-6.7412,-6.7687,-6.7687,-6.7687,-6.7687,-6.7687,-6.7687,-6.7687,-6.7687,-6.7687,-6.7687,-6.7687,-6.7687,-6.7687,-6.7687,-6.7687,-6.7687,-6.7687,-6.7687,-6.7687,-6.7687,-6.7687,-6.7741,-6.7847,-6.8088,-6.8088,-6.8088,-6.8088,-6.8088,-6.819,0.0,0.0,0.0,-3.1539,-3.1968,-3.239,-3.2838,-3.302,-3.3264,-3.3898,-3.4046,-3.4336,-3.4958,-3.5368,-3.5546,-3.5417,-3.5475,-3.5828,-3.6868,-3.752,-3.8244,-3.9291,-3.9999,-4.0677,-4.151,-4.2549,-4.3575,-4.447,-4.5436,-4.6023,-4.6073,-4.635,-4.6495,-4.659,-4.6684,-4.6731,-4.6731,-4.8276,-4.9199,-4.9501,-5.0815,-5.1436,-5.1436,-5.1436,-5.1702,-5.2217,-5.3104,-5.3617,-5.3844,-5.4917,-5.5669,-5.6152,-5.6438,-5.6546,-5.6546,-5.6546,-5.6546,-5.6546,-5.6546,-5.6725,-5.7118,-5.7906,-5.8693,-5.948,-6.0268,-6.0934,-6.1386,-6.1386,-6.1519,-6.1577,-6.1577,-6.1633,-6.169,-6.169,-6.1784,-6.195,-6.2005,-6.2603,-6.3491,-6.4675,-6.5296,-6.6062,-6.7195,-6.747,-6.7597,-6.7597,-6.7633,-6.7687,-6.7687,-6.7687,-6.7687,-6.7687,-6.7687,-6.7687,-6.7687,-6.7687,-6.7687,-6.7687,-6.7687,-6.7687,-6.7687,-6.7687,-6.7687,-6.7687,-6.7687,-6.7741,-6.7828,-6.7828,-6.7881,-6.7985,-6.7985,-6.8037,-3.082,0.0,0.0,0.0,-3.1134,-3.1655,-3.235,-3.2497,-3.2696,-3.323,-3.3379,-3.3686,-3.4526,-3.4675,-3.4805,-3.5258,-3.5291,-3.5542,-3.631,-3.7112,-3.7917,-3.8656,-3.9531,-4.0341,-4.0917,-4.2142,-4.3202,-4.3871,-4.5094,0.0,-4.5972,-4.6204,-4.6429,-4.659,-4.659,-4.6714,-4.6997,-4.8254,-4.9033,-4.9316,-5.0609,-5.1246,-5.1246,-5.1176,-5.1582,-5.2359,-5.3191,-5.3796,-5.4331,-5.5114,-5.5737,-5.6217,-5.6217,-5.6217,-5.6217,-5.6217,-5.6217,-5.6217,-5.6217,-5.6217,-5.6342,-5.7142,-5.7925,-5.8708,-5.9491,-6.0333,-6.1093,-6.1093,-6.1152,-6.127,-6.1328,-6.1386,-6.1519,-6.1577,-6.169,-6.1746,-6.1746,-6.2621,-6.373,-6.4549,-6.5405,-6.6207,-6.7064,-6.7341,-6.7414,-6.7414,-6.7451,-6.7506,-6.7506,-6.7579,-6.7633,-6.7633,-6.7687,-6.7687,-6.7687,-6.7687,-6.7687,-6.7687,-6.7687,-6.7687,-6.7687,-6.7687,-6.7687,-6.7687,-6.7687,-6.7687,-6.7687,-6.7687,-6.7741,-6.7828,-6.7828,-6.7881,0.0,0.0,0.0,0.0,0.0,0.0,-3.1739,-3.1909,-3.1957,-3.2723,-3.2768,-3.2878,-3.3624,-3.3756,-3.4097,-3.5094,-3.5274,-3.5542,-3.6245,-3.6999,-3.7752,-3.8489,-3.9225,-3.9781,-4.0087,-4.1424,-4.2567,-4.3114,-4.4544,-4.5546,-4.5972,-4.6105,-4.6332,-4.659,-4.659,-4.6962,-4.7758,-4.8502,-4.9263,-5.0059,-5.0717,-5.1034,-5.1052,-5.0892,-5.1314,-5.2286,-5.3044,-5.3911,-5.4853,-5.5617,-5.5918,-5.5918,-5.5918,-5.5918,-5.5954,-5.5954,-5.5954,-5.5954,-5.5954,-5.5936,-5.6042,-5.6803,-5.7618,-5.8432,-5.9158,-5.9954,-6.0609,-6.0609,-6.0609,-6.0609,-6.074,-6.1058,-6.1328,-6.1519,-6.1577,-6.1577,-6.1577,-6.2434,-6.351,-6.4439,-6.5256,-6.6131,-6.7008,-6.721,-6.7192,-6.7192,-6.721,-6.721,-6.721,-6.7341,-6.7488,-6.7488,-6.7579,-6.7687,-6.7687,-6.7687,-6.7687,-6.7687,-6.7687,-6.7687,-6.7687,-6.7687,-6.7687,-6.7687,-6.7687,-6.7687,-6.7687,-6.7687,-6.7687,-6.7687,-6.7687,-6.7794,-3.0706,0.0,0.0,0.0,0.0,0.0,-3.0594,-3.0605,-3.0841,-3.2027,-3.2209,-3.241,-3.3084,-3.3201,-3.3512,-3.4342,-3.4801,-3.506,-3.5307,-3.6389,-3.7286,-3.7485,-3.8718,-3.959,-3.9642,-4.1266,-4.2339,0.0,-4.4318,-4.5441,-4.5546,-4.5988,-4.6235,-4.6319,-4.6301,-4.6358,-4.6505,-4.7208,-4.7927,-4.868,-4.9449,-5.0058,-5.0582,-5.0526,-5.1242,-5.2572,-5.2782,-5.3696,-5.4997,-5.5658,-5.5918,-5.5918,-5.5918,-5.6272,-5.6768,-5.6768,-5.6768,-5.6768,-5.6768,-5.6396,-5.5954,-5.6166,-5.7175,-5.8343,-5.8538,-5.9547,-6.0609,-6.0609,-6.0609,-6.0609,-6.0671,-6.0714,-6.0836,-6.0998,-6.1135,-6.127,-6.1386,-6.2619,-6.382,-6.4245,-6.5384,-6.6438,-6.6867,-6.7001,-6.7058,-6.7058,-6.7154,-6.721,-6.721,-6.7266,-6.7266,-6.7266,-6.7322,-6.7322,-6.7322,-6.7322,-6.7322,-6.7322,-6.7322,-6.7322,-6.7322,-6.7322,-6.7322,-6.7322,-6.7322,-6.7322,-6.7322,-6.7561,-6.7687,-6.7687,-6.7687,-6.7741,-3.082,-2.9786,0.0,0.0,0.0,0.0,-2.9831,-2.9822,-2.9959,-3.0965,-3.1137,-3.1415,-3.2412,-3.2596,-3.2847,-3.3556,-3.4218,-3.4708,-3.4961,-3.5958,-3.6771,-3.7069,-3.8181,-3.9116,-3.9468,-4.1124,-4.2179,-4.2286,-4.4107,-4.5283,-4.5441,-4.5854,-4.6005,-4.6023,-4.6005,-4.6023,-4.5922,-4.6586,-4.7317,-4.801,-4.8682,-4.9388,-5.0114,-5.0057,-5.0789,-5.2067,-5.2379,-5.3271,-5.46,-5.5255,-5.5572,-5.5648,-5.6024,-5.6505,-5.6946,-5.7282,-5.7405,-5.7352,-5.7017,-5.6594,-5.6165,-5.6124,-5.6951,-5.8026,-5.8237,-5.9186,-6.0171,-6.028,-6.0423,-6.0503,-6.0503,-6.0565,-6.0609,-6.0714,-6.0775,-6.0914,-6.0974,-6.2385,-6.3735,-6.3991,-6.5328,-6.647,-6.6548,-6.6709,-6.6827,-6.6827,-6.6943,-6.7058,-6.7058,-6.7097,-6.7097,-6.7097,-6.7154,-6.721,-6.721,-6.721,-6.721,-6.721,-6.721,-6.721,-6.721,-6.721,-6.721,-6.721,-6.721,-6.721,-6.721,-6.7396,-6.7506,-6.7652,-6.7652,-6.7633,-3.1258,-2.9888,0.0,0.0,-2.8888,0.0,-2.9397,-2.9317,-2.9295,-2.979,-2.9863,-3.0207,-3.1456,-3.1774,-3.206,-3.2722,-3.345,-3.4208,-3.4901,-3.5592,-3.6274,-3.7019,-3.7765,-3.8546,-3.9365,-4.0909,-4.198,-4.2233,-4.3963,-4.514,-4.5563,-4.5667,-4.577,-4.577,-4.577,-4.577,-4.5718,-4.6291,-4.7017,-4.7827,-4.8242,-4.8884,-4.9649,-4.953,-5.006,-5.1114,-5.1796,-5.2753,-5.387,-5.4618,-5.5035,-5.5269,-5.6237,-5.6648,-5.6842,-5.7632,-5.793,-5.7842,-5.7105,-5.6806,-5.6676,-5.6571,-5.7017,-5.7706,-5.8211,-5.8977,-5.9603,-5.9748,-6.0043,-6.0333,-6.0333,-6.0441,-6.0547,-6.0547,-6.0547,-6.0565,-6.0627,-6.1956,-6.3307,-6.3717,-6.513,-6.6269,-6.6287,-6.6409,-6.647,-6.647,-6.6608,-6.6745,-6.6727,-6.6903,-6.6943,-6.6943,-6.7097,-6.7154,-6.7154,-6.7154,-6.7154,-6.7154,-6.7154,-6.7154,-6.7154,-6.7154,-6.7154,-6.7154,-6.7154,-6.7154,-6.7154,-6.721,-6.7285,-6.7488,-6.7488,-6.7524,-3.1745,-3.065,0.0,0.0,-2.8488,0.0,-2.8851,-2.8836,-2.8848,-2.9333,-2.9416,-2.9483,-2.9717,-3.0258,-3.09,-3.1534,-3.2215,-3.3068,-3.4191,-3.5418,-3.6421,-3.717,-3.7816,-3.8493,-3.9259,-4.0817,-4.1832,-4.198,-4.3745,-4.5032,-4.5441,-4.5441,-4.5546,-4.5649,-4.5546,-4.5441,-4.5336,-4.5348,-4.6049,-4.7347,-4.7427,-4.8213,-4.9547,-4.9488,-4.9941,-5.0737,-5.1508,-5.2323,-5.3346,-5.4247,-5.4745,-5.5122,-5.6073,-5.6834,-5.7516,-5.8412,-5.8773,-5.8755,-5.8597,-5.7964,-5.7359,-5.7297,-5.7695,-5.8229,-5.8368,-5.8977,-5.9621,-5.9603,-5.9669,-5.9753,-5.9753,-5.9849,-6.0008,-6.0153,-6.0315,-6.0458,-6.0565,-6.1813,-6.2956,-6.3083,-6.4724,-6.6146,-6.6287,-6.6348,-6.6348,-6.6348,-6.6348,-6.6409,-6.653,-6.6572,-6.665,-6.6786,-6.6845,-6.6845,-6.6845,-6.6845,-6.6845,-6.6845,-6.6845,-6.6845,-6.6845,-6.6845,-6.6845,-6.6845,-6.6845,-6.6845,-6.6903,-6.7097,-6.721,-6.7266,-6.7266,-6.7266,-3.2739,0.0,0.0,-2.9466,-2.8858,0.0,0.0,-2.8417,-2.8417,-2.888,-2.8969,-2.9023,-2.93,-2.9624,-3.0101,-3.0779,-3.1414,-3.2154,-3.322,-3.4432,-3.5585,-3.6637,-3.7369,-3.7998,-3.8676,-4.0213,-4.1527,-4.2467,-4.3838,-4.4814,-4.5086,-4.5177,-4.5402,-4.5851,-4.5797,-4.5877,-4.6088,-4.5903,-4.6367,-4.7429,-4.731,-4.7902,-4.8984,-4.8984,-4.9232,-4.9684,-5.051,-5.1446,-5.234,-5.3301,-5.404,-5.4689,-5.5862,-5.6833,-5.7681,-5.8559,-5.9148,-5.9492,-5.8997,-5.8531,-5.8037,-5.7927,-5.8059,-5.8376,-5.8608,-5.9074,-5.947,-5.947,-5.9537,-5.9621,-5.9621,-5.9652,-5.9718,-5.9849,-5.9978,-6.0089,-6.0216,-6.1559,-6.2799,-6.2799,-6.4362,-6.5704,-6.5895,-6.5976,-6.6101,-6.6146,-6.6225,-6.6348,-6.6409,-6.6409,-6.647,-6.6548,-6.6548,-6.6548,-6.6548,-6.6548,-6.6608,-6.6668,-6.6668,-6.6668,-6.6804,-6.6804,-6.6804,-6.6804,-6.6804,-6.6804,-6.6804,-6.6961,-6.7058,-6.7097,-6.7097,-6.7154,0.0,0.0,0.0,0.0,0.0,-2.8833,0.0,0.0,0.0,-2.8539,-2.8539,-2.8624,-2.9072,-2.9179,-2.9369,-3.0022,-3.0697,-3.1397,0.0,-3.3144,0.0,-3.5835,-3.6653,-3.7403,-3.8129,-3.9664,-4.1276,-4.297,-4.3794,-4.4367,-4.4703,-4.4814,-4.521,-4.592,-4.5954,-4.6255,-4.6886,-4.6693,-4.6868,-4.7502,-4.7316,-4.7655,-4.842,-4.842,-4.8467,-4.8627,-4.9573,-5.0587,-5.1524,-5.2435,-5.3314,-5.4308,-5.5594,-5.6645,-5.7601,-5.8334,-5.9231,-5.9891,-5.9149,-5.8875,-5.8793,-5.8484,-5.8418,-5.8455,-5.884,-5.9081,-5.9234,-5.9234,-5.9386,-5.947,-5.947,-5.9537,-5.9537,-5.9537,-5.9635,-5.9748,-5.9748,-6.1253,-6.2639,-6.2639,-6.4005,-6.5265,-6.5462,-6.5611,-6.5722,-6.5832,-6.6021,-6.6164,-6.6225,-6.6225,-6.6287,-6.6287,-6.6287,-6.6287,-6.6287,-6.6287,-6.6348,-6.6452,-6.6452,-6.653,-6.6686,-6.6745,-6.6745,-6.6804,-6.6804,-6.6804,-6.6804,-6.6804,-6.6863,-6.6943,-6.6943,-6.7001,0.0,0.0,0.0,0.0,-3.0309,0.0,0.0,0.0,-2.8424,-2.8281,0.0,-2.8023,-2.7917,0.0,0.0,0.0,-2.9747,-3.0802,-3.1363,-3.1979,-3.3067,-3.5061,-3.5902,-3.6837,-3.8079,-3.9664,-4.1238,-4.2722,-4.3076,-4.3507,-4.4316,-4.4367,-4.4704,-4.5462,-4.5479,-4.5791,-4.6384,-4.6185,-4.6457,-4.7174,-4.6969,-4.7303,-4.8066,-4.8179,-4.8227,-4.8325,-4.927,-5.0267,-5.1315,-5.2111,-5.3071,-5.4114,-5.5241,-5.6257,-5.7183,-5.8077,-5.8925,-5.9669,-5.9516,-5.9398,-5.9247,-5.9197,-5.9028,-5.8909,-5.8978,-5.9012,-5.9012,-5.9012,-5.9012,-5.9081,-5.9081,-5.9166,-5.9319,-5.9319,-5.9453,-5.9603,-5.9603,-6.1023,-6.2258,-6.2258,-6.362,-6.4861,-6.5282,-6.5349,-6.5349,-6.5415,-6.5528,-6.5657,-6.585,-6.5958,-6.6066,-6.6287,-6.6287,-6.6287,-6.6287,-6.6287,-6.6287,-6.6348,-6.6348,-6.6348,-6.6348,-6.647,-6.659,-6.6804,-6.6804,-6.6804,-6.6804,-6.6804,-6.6804,-6.6804,-6.6804,-6.6863,0.0,0.0,0.0,0.0,0.0,0.0,-3.0046,0.0,-2.9314,0.0,0.0,0.0,0.0,0.0,0.0,0.0,-2.945,-3.0177,-3.0768,-3.1608,-3.2824,-3.4421,0.0,0.0,-3.7926,-3.8962,-3.9968,-4.1024,-4.2038,-4.2767,-4.3124,-4.3598,-4.4423,-4.5607,-4.564,-4.6084,-4.7121,-4.6992,-4.7077,-4.7325,-4.7259,-4.7358,-4.7737,-4.7803,-4.7787,-4.7803,-4.8447,-4.9176,-5.0091,-5.0994,-5.2082,-5.3156,-5.4003,-5.5341,-5.6919,-5.7443,-5.8411,-5.9603,-5.947,-5.9386,-5.9301,-5.9166,-5.903,-5.8909,-5.8909,-5.8823,-5.8684,-5.8684,-5.8754,-5.8909,-5.8909,-5.903,-5.9166,-5.9166,-5.9301,-5.9574,-6.0043,-6.1135,-6.216,-6.2596,-6.3642,-6.4463,-6.4603,-6.4946,-6.5149,-6.5282,-6.5349,-6.5397,-6.548,-6.5593,-6.5657,-6.5722,-6.5722,-6.5722,-6.5832,-6.5832,-6.5895,-6.6146,-6.6225,-6.6287,-6.6287,-6.633,-6.6409,-6.6488,-6.6608,-6.6608,-6.6608,-6.6727,-6.6804,-6.6804,-6.6804,-6.6804,-3.769,0.0,0.0,0.0,0.0,0.0,0.0,0.0,0.0,0.0,0.0,0.0,0.0,0.0,0.0,0.0,0.0,-3.0179,0.0,-3.1428,-3.2418,-3.345,0.0,0.0,0.0,-3.804,-3.8821,-3.9542,-4.105,-4.2012,-4.2209,-4.302,-4.4054,-4.5326,-4.5557,-4.6203,-4.7259,-4.7406,-4.737,-4.7251,-4.7183,-4.7199,-4.7183,-4.7267,-4.7335,-4.7335,-4.7737,-4.8266,-4.911,-5.0142,-5.1212,-5.2219,-5.3078,-5.4685,-5.6555,-5.6753,-5.7936,-5.9336,-5.9251,-5.9166,-5.9115,-5.8961,-5.8823,-5.8718,-5.8718,-5.8648,-5.849,-5.849,-5.8631,-5.8718,-5.8718,-5.8771,-5.8875,-5.8875,-5.9185,-5.965,-6.0221,-6.1311,-6.2266,-6.2805,-6.3641,-6.4198,-6.4198,-6.4585,-6.4911,-6.5064,-6.5131,-6.5216,-6.5216,-6.5282,-6.5282,-6.5282,-6.5282,-6.5349,-6.5462,-6.5462,-6.5575,-6.5814,-6.6021,-6.6146,-6.6207,-6.6207,-6.6207,-6.6287,-6.6409,-6.647,-6.647,-6.6608,-6.6668,-6.6686,-6.6745,-6.6804,0.0,0.0,0.0,-3.5486,0.0,0.0,0.0,0.0,-3.1902,0.0,0.0,0.0,0.0,0.0,0.0,0.0,0.0,0.0,0.0,-3.1116,-3.1517,-3.2001,-3.3636,0.0,0.0,-3.697,-3.81,-3.8788,-4.0197,-4.1327,-4.2048,-4.2736,-4.3457,-4.421,-4.4915,-4.5587,-4.6124,-4.6673,-4.6807,-4.6668,-4.6404,-4.6333,-4.6333,-4.6754,-4.6945,-4.6945,-4.7335,-4.7998,-4.8892,-4.9856,-5.0705,-5.161,-5.2927,-5.4346,-5.5805,-5.6303,-5.7483,-5.8857,-5.8961,-5.8892,-5.8788,-5.8788,-5.8631,-5.849,-5.849,-5.849,-5.849,-5.849,-5.849,-5.849,-5.849,-5.849,-5.849,-5.849,-5.9179,-5.9869,-5.9886,-6.1394,-6.2662,-6.268,-6.3499,-6.4198,-6.4198,-6.4287,-6.4393,-6.4393,-6.4775,-6.4997,-6.4997,-6.5216,-6.5282,-6.5282,-6.5282,-6.5282,-6.5282,-6.5282,-6.5331,-6.5528,-6.551,-6.5704,-6.6003,-6.6003,-6.6066,-6.6287,-6.6287,-6.6287,-6.6287,-6.6287,-6.6348,-6.6348,-6.6668,-6.6668,0.0,0.0,-3.9215,-3.7452,0.0,0.0,0.0,0.0,0.0,0.0,0.0,0.0,0.0,0.0,0.0,0.0,0.0,0.0,0.0,0.0,-3.1381,-3.1707,-3.2991,-3.4119,0.0,0.0,-3.7096,-3.778,-3.9178,-4.03,-4.1,-4.1715,-4.2613,-4.3686,-4.3978,-4.4366,-4.4927,-4.5568,-4.5784,-4.5715,-4.6109,-4.6262,-4.6333,-4.6474,-4.6474,-4.6545,-4.6961,-4.7297,-4.7675,-4.9161,-5.0149,-5.0772,-5.2124,-5.3559,-5.4867,-5.5911,-5.7261,-5.8631,-5.8614,-5.8631,-5.8631,-5.8631,-5.849,-5.8331,-5.8331,-5.8188,-5.8116,-5.8116,-5.8188,-5.8331,-5.8331,-5.8419,-5.849,-5.849,-5.9142,-5.9826,-6.0305,-6.1341,-6.2272,-6.2953,-6.3336,-6.3673,-6.3747,-6.3965,-6.4091,-6.4234,-6.4375,-6.4516,-6.4619,-6.4688,-6.4775,-6.4861,-6.4929,-6.4929,-6.5064,-6.5198,-6.5349,-6.5331,-6.5331,-6.5462,-6.564,-6.5704,-6.5768,-6.5994,-6.6083,-6.6066,-6.6066,-6.6225,-6.6287,-6.6287,-6.6409,-6.6409,-4.2168,-4.1683,0.0,-3.9405,-3.846,0.0,-3.638,0.0,-3.4961,0.0,0.0,0.0,0.0,0.0,0.0,0.0,0.0,0.0,0.0,-3.1418,-3.1438,-3.1425,-3.247,-3.3365,-3.399,-3.5194,-3.6259,-3.6902,-3.8294,-3.9395,-4.0016,-4.097,-4.1878,-4.2623,-4.3153,-4.3554,-4.3786,-4.4421,-4.4702,-4.4718,-4.5349,-4.5683,-4.5754,-4.6095,-4.6207,-4.6223,-4.6545,-4.6738,-4.6904,-4.8437,-4.937,-4.9994,-5.1392,-5.2769,-5.4179,-5.5534,-5.7036,-5.849,-5.849,-5.849,-5.8402,-5.8402,-5.826,-5.8116,-5.8116,-5.8027,-5.7881,-5.7881,-5.7954,-5.8116,-5.8116,-5.8188,-5.826,-5.826,-5.9132,-6.0018,-6.0495,-6.1456,-6.2385,-6.3049,-6.3152,-6.3227,-6.336,-6.3526,-6.3764,-6.4054,-6.4126,-6.4251,-6.4287,-6.4358,-6.4358,-6.4516,-6.4568,-6.4706,-6.4861,-6.4997,-6.5149,-6.5216,-6.5198,-6.5265,-6.5397,-6.5397,-6.5462,-6.5611,-6.5768,-6.5814,-6.5814,-6.6021,-6.6101,-6.6101,-6.6101,-6.6101]}]]